     2.11           OBSERVATION DATA    G (GPS)             RINEX VERSION / TYPE
teqc 2010Oct21 OPUS Account 20111027 18:27:25UTC            PGM / RUN BY / DATE
U 1381                                                      MARKER NAME
1099                                                        MARKER NUMBER
CSMIDDLETON NGS                                             OBSERVER / AGENCY
0220269730 TRIMBLE 5700 NP 1.22 / SP 1.22                   REC # / TYPE / VERS
60041226 TRM41249.00 NONE                                   ANT # / TYPE
  -764528.1311 -5544903.8133  3047779.4808                  APPROX POSITION XYZ
        2.0010        0.0000        0.0000                  ANTENNA: DELTA H/E/N
     1     1                                                WAVELENGTH FACT L1/2
     5    L1    L2    C1    P1    P2                        # / TYPES OF OBSERV
    15                                                      LEAP SECONDS
  2011     8    18     0     0   30.0000000     GPS         TIME OF FIRST OBS
                                                            END OF HEADER
 11  8 18  0  0 30.0000000  0  8G12G28G17G10G05G04G09G02
 -25307110.19157 -19703221.58755  22301903.0634                   22301901.0164
 -81009100.68756 -63111353.99753  24400503.2114                   24400505.1524
 -74409446.91857 -57965206.19855  22775839.3674                   22775838.6994
 -40111080.13357 -31239384.39055  21212568.2424                   21212567.4804
 -15816051.82857 -12307609.39154  23163422.5084                   23163423.1094
 -63144133.15658 -49185106.81655  21042390.5784                   21042389.4024
 -35388126.41057 -27557622.04254  23008720.2894                   23008720.6914
 -48653377.03558 -37894055.37556  20828102.9304                   20828099.2854
 11  8 18  0  1  0.0000000  0  8G12G28G17G10G05G04G09G02
 -25470491.67647 -19830531.78945  22270812.4924                   22270810.3754
 -80990762.75446 -63097064.82443  24403991.7894                   24403995.0084
 -74447762.92647 -57995062.84545  22768548.6174                   22768547.8634
 -40229381.51247 -31331567.24845  21190055.7974                   21190055.0434
 -16001977.19147 -12452486.16844  23128041.9774                   23128042.7234
 -63162139.89148 -49199138.05245  21038963.5164                   21038962.7544
 -35407608.59847 -27572802.99344  23005013.2584                   23005013.3984
 -48755283.31248 -37973462.84446  20808710.7974                   20808707.3524
 11  8 18  0  1 30.0000000  0  8G12G28G17G10G05G04G09G02
 -25633534.19147 -19957577.87445  22239786.3834                   22239784.9264
 -80972182.50446 -63082586.98042  24407528.3594                   24407531.0594
 -74485908.05947 -58024786.35145  22761289.4774                   22761288.4804
 -40347063.85947 -31423267.74145  21167661.6254                   21167661.6254
 -16187717.54347 -12597218.80744  23092696.5474                   23092697.3634
 -63179834.14548 -49212925.80145  21035596.5864                   21035595.7504
 -35426687.15247 -27587669.39244  23001382.4614                   23001382.5434
 -48856795.66448 -38052563.36046  20789393.2664                   20789390.0084
 11  8 18  0  2  0.0000000  0  7G12G17G10G05G04G09G02
 -25796236.32447 -20084358.73045  22208825.0004                   22208823.2894
 -74523883.11347 -58054377.33144  22754063.1094                   22754061.9694
 -40464126.42647 -31514485.30145  21145385.8984                   21145384.8634
 -16373271.23847 -12741805.98845  23057387.0704                   23057387.5044
 -63197219.36747 -49226472.73045  21032288.2344                   21032287.5124
 -35445366.59447 -27602224.84644  22997828.0084                   22997828.0004
 -48957915.95348 -38131358.37046  20770150.5314                   20770147.5274
 11  8 18  0  2 30.0000000  0  7G12G17G10G05G04G09G02
 -25958585.53147 -20210864.55545  22177931.1094                   22177929.4844
 -74561677.16047 -58083827.27244  22746871.2974                   22746870.3634
 -40580557.59848 -31605210.85845  21123229.2424                   21123228.1994
 -16558625.50847 -12886237.80045  23022115.5084                   23022115.3364
 -63214288.13747 -49239773.09646  21029040.4844                   21029039.3324
 -35463640.32047 -27616464.12744  22994350.5784                   22994351.0434
 -49058635.23848 -38209840.93046  20750984.6334                   20750981.3674
 11  8 18  0  3  0.0000000  0  7G12G17G10G05G04G09G02
 -26120562.16047 -20337080.04745  22147108.0474                   22147106.7234
 -74599272.66447 -58113122.51544  22739717.2274                   22739715.7814
 -40696338.53547 -31695429.73745  21101196.8284                   21101195.6174
 -16743760.41847 -13030498.64245  22986885.4774                   22986886.0164
 -63231025.75448 -49252815.40945  21025855.1414                   21025854.3484
 -35481494.27747 -27630376.31144  22990952.7814                   22990952.9844
 -49158937.12948 -38287998.23846  20731897.9224                   20731894.5474
 11  8 18  0  3 30.0000000  0  7G12G17G10G05G04G09G02
 -26282159.38347 -20462999.93645  22116356.9774                   22116355.5434
 -74636664.58247 -58142259.11844  22732601.3204                   22732600.4844
 -40811463.09047 -31785137.15945  21079289.5864                   21079288.1644
 -16928668.18447 -13174582.49945  22951698.6334                   22951698.7424
 -63247430.21147 -49265598.12345  21022733.4064                   21022732.5394
 -35498927.68747 -27643960.85344  22987635.9454                   22987635.2664
 -49258817.91848 -38365827.40746  20712891.2034                   20712887.7544
 11  8 18  0  4  0.0000000  0  7G12G17G10G05G04G09G02
 -26443379.51247 -20588625.95045  22085677.3984                   22085676.3094
 -74673857.52347 -58171240.67944  22725523.3834                   22725523.0044
 -40925934.31647 -31874335.49945  21057506.4144                   21057505.5634
 -17113351.01247 -13318491.08145  22916554.0864                   22916554.7274
 -63263508.66847 -49278126.80145  21019673.6094                   21019673.1604
 -35515948.60247 -27657223.94844  22984396.7734                   22984397.3834
 -49358283.52748 -38443333.07246  20693963.3674                   20693960.0434
 11  8 18  0  4 30.0000000  0  7G12G17G10G05G04G09G02
 -26604224.08647 -20713959.32845  22055070.0004                   22055068.2234
 -74710854.83247 -58200069.80344  22718483.5394                   22718482.7114
 -41039754.82447 -31963026.76746  21035846.8284                   21035846.1644
 -17297810.07847 -13462225.32645  22881453.3054                   22881452.9064
 -63279267.65648 -49290406.55745  21016675.1804                   21016674.3954
 -35532564.43747 -27670171.40344  22981234.5164                   22981235.7074
 -49457338.93047 -38520519.08846  20675114.0864                   20675110.2344
 11  8 18  0  5  0.0000000  0  7G12G17G10G05G04G09G02
 -26764688.60247 -20838996.57945  22024534.9064                   22024532.6334
 -74747654.23447 -58228744.68444  22711480.9614                   22711480.4534
 -41152921.29347 -32051208.41245  21014312.0704                   21014311.2424
 -17482040.52747 -13605781.39045  22846394.9144                   22846395.2854
 -63294707.64148 -49302437.73745  21013737.1564                   21013736.1094
 -35548776.72347 -27682804.39844  22978149.8444                   22978150.0394
 -49555983.00048 -38597384.59246  20656342.6564                   20656339.1954
 11  8 18  0  5 30.0000000  0  7G12G17G10G05G04G09G02
 -26924772.79347 -20963737.46545  21994071.6884                   21994069.7424
 -74784257.10247 -58257266.45744  22704515.3284                   22704514.8244
 -41265434.30947 -32138880.86145  20992901.6484                   20992900.6374
 -17666041.25847 -13749158.46545  22811380.6254                   22811381.4344
 -63309833.30148 -49314223.99245  21010858.7034                   21010857.9264
 -35564591.04747 -27695127.35344  22975140.7814                   22975141.4104
 -49654218.57848 -38673931.78446  20637649.2274                   20637645.5434
 11  8 18  0  6  0.0000000  0  7G12G17G10G05G04G09G02
 -27084473.82847 -21088179.79545  21963681.5704                   21963679.6954
 -74820662.52347 -58285634.35544  22697587.7274                   22697587.3444
 -41377291.72347 -32226042.46545  20971615.8444                   20971614.4454
 -17849809.60947 -13892354.48145  22776410.7894                   22776410.9304
 -63324646.61348 -49325766.85545  21008039.5634                   21008039.0314
 -35580010.45747 -27707142.54144  22972206.2114                   22972206.4774
 -49752046.27348 -38750161.16346  20619033.0554                   20619029.9614
 11  8 18  0  6 30.0000000  0  7G12G17G10G05G04G09G02
 -27243795.04747 -21212326.16145  21933363.5784                   21933362.0164
 -74856875.99647 -58313852.69844  22690697.4774                   22690695.9024
 -41488497.80147 -32312696.51845  20950454.1484                   20950452.8054
 -18033348.39847 -14035371.60945  22741484.5394                   22741484.4534
 -63339155.69147 -49337072.67245  21005279.0314                   21005277.8984
 -35595044.23047 -27718857.25444  22969345.5864                   22969345.8164
 -49849472.82047 -38826077.94246  20600493.3984                   20600490.1214
 11  8 18  0  7  0.0000000  0  7G12G17G10G05G04G09G02
 -27402731.89547 -21336173.01545  21903118.8594                   21903117.4654
 -74892895.10547 -58341919.56244  22683842.6414                   22683841.3094
 -41599049.32847 -32398840.51945  20929416.8134                   20929415.7934
 -18216652.55947 -14178205.88745  22706602.8914                   22706602.1134
 -63353360.98847 -49348141.75245  21002575.7194                   21002574.9884
 -35609693.64847 -27730272.42444  22966557.5474                   22966558.0314
 -49946497.23447 -38901681.36246  20582030.3364                   20582026.6684
 11  8 18  0  7 30.0000000  0  7G12G17G10G05G04G09G02
 -27561279.63347 -21459716.67545  21872948.5704                   21872946.6214
 -74928716.70346 -58369832.51944  22677025.8524                   22677025.0394
 -41708942.28147 -32484471.38145  20908504.7584                   20908503.5744
 -18399716.84847 -14320853.26945  22671766.3674                   22671765.9384
 -63367262.68047 -49358974.27345  20999930.2814                   20999929.7464
 -35623959.68446 -27741388.87844  22963842.9844                   22963843.9884
 -50043118.01648 -38976970.26446  20563643.9694                   20563640.0004
 11  8 18  0  8  0.0000000  0  8G12G30G17G10G05G04G09G02
 -27719443.14147 -21582960.93645  21842850.7504                   21842848.7624
   -276425.19956   -198629.30553  24235644.2274                   24235642.8094
 -74964347.39846 -58397596.77244  22670246.1334                   22670244.4694
 -41818182.61347 -32569593.68345  20887716.6884                   20887715.7194
 -18582545.89847 -14463317.36745  22636974.7664                   22636974.8594
 -63380870.41047 -49369577.71145  20997340.9534                   20997340.3594
 -35637853.08647 -27752214.97344  22961199.6644                   22961199.3404
 -50139343.62148 -39051951.23446  20545332.4304                   20545329.2504
 11  8 18  0  8 30.0000000  0  8G12G30G17G10G05G04G09G02
 -27877231.56247 -21705912.92945  21812824.3054                   21812822.7814
   -464719.87146   -345352.54643  24199813.0474                   24199810.6564
 -74999798.95346 -58425221.40244  22663499.4694                   22663498.6454
 -41926780.57047 -32654215.43445  20867051.3284                   20867050.2774
 -18765148.30547 -14605604.82945  22602227.1564                   22602226.7274
 -63394198.35547 -49379963.12745  20994804.2814                   20994803.9414
 -35651389.07046 -27762762.56144  22958623.9924                   22958623.5274
 -50235186.50847 -39126633.99246  20527094.3054                   20527091.1054
 11  8 18  0  9  0.0000000  0  8G12G30G17G10G05G04G09G02
 -28034645.27347 -21828572.95845  21782870.0784                   21782868.1844
   -652805.16846   -491912.44942  24164021.6334                   24164018.4144
 -75035073.56646 -58452708.15944  22656787.2894                   22656785.9574
 -42034738.04347 -32738338.10845  20846507.3834                   20846506.4654
 -18947524.37547 -14747715.94045  22567522.1334                   22567521.8404
 -63407251.64147 -49390134.56445  20992321.1174                   20992319.9844
 -35664574.16846 -27773036.71444  22956114.9304                   22956114.6524
 -50330650.79748 -39201021.73446  20508928.1484                   20508924.8284
 11  8 18  0  9 30.0000000  0  8G12G30G17G10G05G04G09G02
 -26616258.26647 -20723336.30845  22052779.8204                   22052778.1134
    734746.25846    589296.43442  24428064.0944                   24428060.7034
 -73494750.98447 -57252456.80544  22949901.1644                   22949899.9304
 -40566631.35547 -31594358.83845  21125879.5234                   21125877.8954
 -17554246.50447 -13662044.77545  22832654.4064                   22832653.6484
 -61844613.95347 -48172494.81345  21289680.9454                   21289679.6094
 -34101992.89546 -26555440.96944  23253464.1174                   23253464.9454
 -48850315.79748 -38047513.92446  20790626.7894                   20790623.1564
 11  8 18  0 10  0.0000000  0  8G12G30G17G10G05G04G09G02
 -26772911.10947 -20845403.45445  22022969.7194                   22022968.1024
    547091.90646    443072.33642  24392354.0234                   24392351.3284
 -73529665.46147 -57279662.95644  22943256.7814                   22943256.1804
 -40673299.05547 -31677476.50745  21105581.1954                   21105579.7704
 -17736156.57447 -13803792.77545  22798037.5944                   22798037.5514
 -61857121.21947 -48182240.76945  21287301.0314                   21287299.9344
 -34114482.12546 -26565172.86444  23251087.2734                   23251088.2304
 -48945021.13348 -38121310.26646  20772604.4144                   20772600.9694
 11  8 18  0 10 30.0000000  0  8G12G30G17G10G05G04G09G02
 -26929171.75447 -20967164.96945  21993234.3914                   21993232.9144
    359664.79745    297025.28542  24356688.2114                   24356686.1524
 -73564391.64847 -57306722.32944  22936648.4844                   22936648.3794
 -40779311.91847 -31760083.90545  21085407.2274                   21085405.9384
 -17917821.02347 -13945349.39445  22763467.6174                   22763467.7704
 -61869350.74247 -48191770.27545  21284973.8134                   21284972.5634
 -34126620.57046 -26574631.40044  23248777.2034                   23248778.2074
 -49039340.67647 -38194805.99846  20754656.2114                   20754652.7544
 11  8 18  0 11  0.0000000  0  8G12G30G17G10G05G04G09G02
 -27085038.73847 -21088619.76945  21963573.7734                   21963572.0984
    172466.87546    151156.82042  24321065.2584                   24321062.8404
 -73598929.28546 -57333634.81644  22930076.2584                   22930075.9614
 -40884669.75047 -31842180.89545  21065358.4224                   21065357.2194
 -18099238.32047 -14086713.42545  22728944.9774                   22728945.6804
 -61881306.33247 -48201086.33145  21282698.5084                   21282697.9924
 -34138412.87546 -26583820.25944  23246533.7814                   23246534.0164
 -49133276.07847 -38268002.39146  20736781.0704                   20736777.3794
 11  8 18  0 11 30.0000000  0  8G12G30G17G10G05G04G09G02
 -27240502.87947 -21209760.64845  21933990.1884                   21933988.4774
    -14492.84046      5473.93042  24285488.6484                   24285486.8244
 -73633271.53146 -57360395.03644  22923541.1564                   22923540.6644
 -40989364.85948 -31923761.48045  21045435.4304                   21045434.5394
 -18280399.19947 -14227877.63245  22694471.5394                   22694471.2034
 -61892983.54347 -48210185.47145  21280476.6334                   21280475.5434
 -34149856.10247 -26592737.10644  23244356.5164                   23244356.2234
 -49226822.03147 -38340895.31746  20718979.8594                   20718976.0784
 11  8 18  0 12  0.0000000  0  8G12G30G17G10G05G04G09G02
 -27395562.32047 -21330586.17545  21904483.0784                   21904481.8834
   -201211.82846   -140021.31242  24249957.2034                   24249955.8204
 -73667418.12547 -57387002.83444  22917043.7034                   22917042.6484
 -41093396.18048 -32004824.84045  21025638.9384                   21025637.9804
 -18461300.79347 -14368839.84245  22660047.3444                   22660046.9614
 -61904384.89847 -48219069.66345  21278306.9064                   21278306.2074
 -34160953.66447 -26601384.59044  23242243.9694                   23242244.0234
 -49319979.66847 -38413485.65246  20701252.5164                   20701248.7704
 11  8 18  0 12 30.0000000  0  8G12G30G17G10G05G04G09G02
 -27550206.99647 -21451088.51845  21875055.4534                   21875054.0084
   -387680.07446   -285321.07442  24214472.9064                   24214472.3874
 -73701361.56246 -57413452.29044  22910584.1954                   22910583.2934
 -41196754.98447 -32085364.13945  21005970.5004                   21005969.1994
 -18641932.56247 -14509591.77145  22625673.7974                   22625673.2384
 -61915505.37947 -48227734.98445  21276190.5394                   21276190.0394
 -34171701.40647 -26609759.44944  23240198.9064                   23240199.1054
 -49412742.54347 -38485768.39846  20683600.2734                   20683596.8134
 11  8 18  0 13  0.0000000  0  8G12G30G17G10G05G04G09G02
 -27704438.84447 -21571269.16945  21845705.8524                   21845704.5234
   -573899.16846   -430426.84643  24179036.2034                   24179036.6024
 -73735105.39146 -57439746.23244  22904163.0784                   22904162.6414
 -41299444.67647 -32165382.06145  20986429.4614                   20986428.2814
 -18822296.17647 -14650134.75945  22591351.1564                   22591351.3054
 -61926351.66847 -48236186.64345  21274126.7664                   21274125.8484
 -34182107.52047 -26617868.18144  23238219.6024                   23238219.7704
 -49505116.21547 -38557747.86246  20666021.8444                   20666018.7074
 11  8 18  0 13 30.0000000  0  8G12G30G17G10G05G04G09G02
 -27858252.72747 -21691124.12245  21816436.0394                   21816434.2854
   -759863.94546   -575334.35543  24143648.4144                   24143648.1994
 -73768646.25047 -57465882.01044  22897780.6724                   22897780.2854
 -41401461.64147 -32244875.76945  20967015.9774                   20967014.6484
 -19002386.32447 -14790464.63945  22557081.5474                   22557081.6374
 -61936923.45347 -48244424.39845  21272115.0164                   21272113.9924
 -34192172.67247 -26625711.21344  23236303.8524                   23236305.2974
 -49597098.84047 -38629422.62446  20648518.2584                   20648514.6994
 11  8 18  0 14  0.0000000  0  8G12G30G17G10G05G04G09G02
 -28011653.35947 -21810657.06245  21787244.8054                   21787243.0234
   -945578.65246   -720047.00643  24108308.3984                   24108308.3554
 -73801990.60247 -57491864.64244  22891435.1094                   22891434.7934
 -41502811.63347 -32323849.77645  20947730.2114                   20947728.5744
 -19182206.96947 -14930584.50945  22522862.4534                   22522862.8714
 -61947230.40247 -48252455.80945  21270153.5234                   21270153.1764
 -34201907.46947 -26633296.83244  23234451.1564                   23234452.1724
 -49688698.46947 -38700798.93146  20631087.7034                   20631083.4804
 11  8 18  0 14 30.0000000  0  8G12G30G17G10G05G04G09G02
 -28164626.62147 -21929856.96745  21758135.1804                   21758132.9804
  -1131029.07846   -864553.77743  24073018.2974                   24073017.8674
 -73835126.94147 -57517685.21644  22885129.5704                   22885129.6844
 -41603481.89547 -32402294.11745  20928573.1094                   20928571.5084
 -19361743.72347 -15070483.20245  22488698.7504                   22488697.4264
 -61957263.07847 -48260273.46845  21268244.5554                   21268243.7504
 -34211303.89547 -26640618.77244  23232663.2734                   23232663.6374
 -49779904.84047 -38771868.80846  20613731.8054                   20613727.9964
 11  8 18  0 15  0.0000000  0  9G12G30G17G10G05G04G25G09G02
 -28317170.19147 -22048722.05145  21729106.9694                   21729105.5664
  -1316212.92646  -1008852.81943  24037778.5234                   24037779.2624
 -73868054.73047 -57543343.28744  22878863.6724                   22878862.8134
 -41703471.94547 -32480208.42345  20909545.2114                   20909544.4344
 -19540993.79347 -15210158.48745  22454587.7894                   22454587.1914
 -61967024.16047 -48267879.52645  21266386.9304                   21266386.3444
   1303639.90656   1031973.42653  24613288.8594                   24613291.5234
 -34220365.76646 -26647680.01444  23230939.0234                   23230939.6914
 -49870719.28548 -38842633.30046  20596450.1884                   20596446.3324
 11  8 18  0 15 30.0000000  0  9G12G30G17G10G05G04G25G09G02
 -28469295.79347 -22167261.43445  21700158.6644                   21700156.5634
  -1501141.44146  -1152952.89243  24002587.9384                   24002587.4024
 -73900787.33247 -57568849.25344  22872635.3364                   22872634.1094
 -41802794.40247 -32557602.51545  20890644.7424                   20890643.6524
 -19719968.17647 -15349618.94345  22420529.7664                   22420529.7544
 -61976529.52347 -48275286.28845  21264578.1414                   21264577.7664
   1118708.94146    887871.40843  24578097.7814                   24578100.8244
 -34229110.32847 -26654494.02744  23229275.0164                   23229275.9494
 -49961156.50847 -38913103.84946  20579240.8204                   20579236.8284
 11  8 18  0 16  0.0000000  0  9G12G30G17G10G05G04G25G09G02
 -28621012.64547 -22285482.30745  21671287.7664                   21671285.8204
  -1685823.27046  -1296860.71143  23967444.3834                   23967443.7624
 -73933335.43747 -57594211.47844  22866441.6954                   22866441.2504
 -41901459.87147 -32634484.68445  20871869.5314                   20871868.1024
 -19898675.68747 -15488871.46645  22386522.9304                   22386522.9884
 -61985793.22747 -48282504.77145  21262815.6564                   21262814.6644
    933927.97346    743886.26643  24542934.7274                   24542937.5354
 -34237552.68046 -26661072.54044  23227668.1094                   23227669.3484
 -50051229.26647 -38983290.40146  20562100.2344                   20562096.7734
 11  8 18  0 16 30.0000000  0  9G12G30G17G10G05G04G25G09G02
 -28772317.57847 -22403382.20546  21642495.4064                   21642493.6054
  -1870255.36346  -1440573.98143  23932348.4064                   23932347.1024
 -73965698.45746 -57619429.44044  22860283.5554                   22860282.8444
 -41999467.12547 -32710853.97045  20853219.2194                   20853218.2854
 -20077112.91847 -15627913.38845  22352567.5704                   22352567.4964
 -61994817.41047 -48289536.59745  21261098.2034                   21261097.3714
    749299.59846    600020.06543  24507801.3364                   24507803.3834
 -34245696.00046 -26667418.07844  23226118.5004                   23226119.3834
 -50140938.32047 -39053193.54746  20545029.1334                   20545025.5044
 11  8 18  0 17  0.0000000  0  9G12G30G17G10G05G04G25G09G02
 -28923201.73047 -22520954.21746  21613783.2504                   21613781.1174
  -2054428.29746  -1584085.29342  23897300.1564                   23897299.7344
 -73997868.95746 -57644497.39744  22854161.0554                   22854161.1374
 -42096808.41447 -32786704.29046  20834695.9614                   20834694.8014
 -20255270.55147 -15766737.40945  22318665.4844                   22318664.9884
 -62003597.49647 -48296378.22645  21259427.4454                   21259426.2704
    564832.92646    456279.87542  24472697.7974                   24472699.9304
 -34253536.85946 -26673527.87744  23224626.4774                   23224627.4574
 -50230277.98047 -39122808.84346  20528028.0084                   20528024.5234
 11  8 18  0 17 30.0000000  0  9G12G30G17G10G05G04G25G09G02
 -29073659.99247 -22638194.37445  21585151.7194                   21585149.7774
  -2238336.72746  -1727390.50543  23862303.8594                   23862302.4734
 -74029844.02346 -57669413.06844  22848076.6094                   22848076.4104
 -42193480.08247 -32862032.85745  20816299.9614                   20816298.6644
 -20433142.85247 -15905339.12645  22284817.1644                   22284816.7464
 -62012132.78147 -48303029.10545  21257803.1094                   21257802.3444
    380533.14146    312669.66442  24437626.6954                   24437627.8134
 -34261076.03546 -26679402.64744  23223192.3594                   23223192.8444
 -50319246.38747 -39192134.87846  20511097.9144                   20511094.4804
 11  8 18  0 18  0.0000000  0  9G12G30G17G10G05G04G25G09G02
 -29223679.78147 -22755092.85246  21556603.7424                   21556601.8094
  -2421968.16446  -1870479.86443  23827360.2344                   23827359.7894
 -74061612.82046 -57694168.00044  22842031.1254                   22842031.8674
 -42289471.49647 -32936831.33545  20798033.2114                   20798031.8954
 -20610717.17647 -16043708.63745  22251025.5084                   22251025.3444
 -62020416.03147 -48309483.58145  21256226.6884                   21256225.6914
    196412.33246    169198.93943  24402590.6954                   24402590.0354
 -34268307.60246 -26685037.65944  23221816.1804                   23221816.9494
 -50407835.10947 -39261165.02646  20494240.0314                   20494236.3914
 11  8 18  0 18 30.0000000  0  9G12G30G17G10G05G04G25G09G02
 -29373256.35947 -22871645.97945  21528140.5554                   21528138.4884
  -2605316.81246  -2013348.91443  23792470.0394                   23792469.3914
 -74093172.60947 -57718760.07744  22836025.9534                   22836025.5784
 -42384778.90247 -33011096.84045  20779896.8364                   20779895.3874
 -20787987.50047 -16181841.28745  22217292.2114                   22217291.9414
 -62028446.55547 -48315741.14645  21254698.5634                   21254697.3484
     12475.94946     25871.91543  24367587.7344                   24367589.3554
 -34275231.70746 -26690433.20644  23220498.4144                   23220499.5274
 -50496042.10247 -39329897.73946  20477455.2274                   20477451.0784
 11  8 18  0 19  0.0000000  0  9G12G30G17G10G05G04G25G09G02
 -27946961.45747 -21760247.30945  21799554.9774                   21799553.3164
  -1212953.51246   -928390.47643  24057428.0084                   24057427.4224
 -72549101.21547 -56515587.60644  23129852.4304                   23129852.5744
 -40903977.95347 -31857225.93045  21061683.7344                   21061682.8714
 -19389524.39547 -15092129.71045  22483410.8204                   22483410.4534
 -60460805.75047 -47094202.84645  21553010.4924                   21553009.9304
   1404152.83246   1110295.52143  24632415.0084                   24632416.8794
 -32706431.22746 -25467991.29144  23519030.9224                   23519032.2344
 -49008445.19147 -38170731.30746  20760535.1174                   20760531.9454
 11  8 18  0 19 30.0000000  0  9G12G30G17G10G05G04G25G09G02
 -28095639.47347 -21876100.27145  21771262.5944                   21771260.8984
  -1395724.42245  -1070809.26242  24022647.1254                   24022647.1174
 -72580236.58646 -56539849.00644  23123928.3054                   23123927.1564
 -40997910.68747 -31930420.24745  21043809.3444                   21043807.9024
 -19566174.18047 -15229778.80845  22449795.7504                   22449794.9614
 -60468333.25447 -47100068.42945  21551578.0394                   21551577.8324
   1220596.54346    967264.81243  24597485.6334                   24597487.3984
 -32712746.93046 -25472912.70643  23517829.1254                   23517831.1134
 -49095888.14148 -38238868.65346  20743895.3444                   20743891.6994
 11  8 18  0 20  0.0000000  0  9G12G30G17G10G05G04G25G09G02
 -28243862.58647 -21991598.76746  21743056.4384                   21743055.0704
  -1578200.33246  -1212998.28343  23987923.7344                   23987921.9964
 -72611156.58247 -56563942.51644  23118044.6024                   23118044.1414
 -41091153.06247 -32003076.62246  21026065.7974                   21026064.6054
 -19742507.25447 -15367181.10745  22416240.5234                   22416239.9884
 -60475610.46547 -47105738.98745  21550193.3364                   21550193.0984
   1037236.14146    824386.66543  24562593.1484                   24562594.6374
 -32718761.72346 -25477599.62643  23516685.5474                   23516685.3634
 -49182948.27347 -38306707.71046  20727328.5474                   20727325.2774
 11  8 18  0 20 30.0000000  0  9G12G30G17G10G05G04G25G09G02
 -28391624.84447 -22106738.13645  21714938.3284                   21714936.6254
  -1760374.84046  -1354952.41643  23953257.6094                   23953255.8404
 -72641857.77347 -56587865.60244  23112202.6884                   23112202.2154
 -41183700.41047 -32075191.43345  21008454.3284                   21008453.1764
 -19918517.15647 -15504331.61845  22382746.6254                   22382746.1914
 -60482636.18447 -47111213.59745  21548856.5234                   21548855.3054
    854077.46546    681665.63143  24527739.5474                   24527741.3054
 -32724475.40646 -25482051.88143  23515598.1484                   23515597.6764
 -49269623.18448 -38374246.60046  20710834.9844                   20710831.5314
 11  8 18  0 21  0.0000000  0  9G12G30G17G10G05G04G25G09G02
 -28538929.92647 -22221521.28946  21686907.0314                   21686905.0124
  -1942251.20346  -1496674.21543  23918647.9454                   23918647.6254
 -72672345.31647 -56611622.17244  23106400.4694                   23106400.4454
 -41275558.17247 -32146768.86845  20990974.4924                   20990973.3794
 -20094207.13747 -15641232.81145  22349313.7584                   22349313.3364
 -60489418.53947 -47116498.54745  21547565.8364                   21547565.0434
    671117.07046    539099.12843  24492922.9064                   24492925.1844
 -32729897.45347 -25486276.91343  23514566.4144                   23514566.6644
 -49355920.54348 -38441491.27646  20694412.9454                   20694409.2344
 11  8 18  0 21 30.0000000  0  9G12G30G17G10G05G04G25G09G02
 -28685767.31647 -22335940.01245  21658964.8204                   21658963.1644
  -2123818.59846  -1638155.23843  23884096.2194                   23884095.7194
 -72702610.51247 -56635205.47944  23100641.6884                   23100641.1334
 -41366717.80147 -32217802.31945  20973627.0164                   20973625.7544
 -20269565.85947 -15777875.91045  22315944.1564                   22315944.0394
 -60495951.70347 -47121589.33345  21546322.5704                   21546321.9844
    488365.44546    396695.36943  24458146.3914                   24458148.5354
 -32735023.38347 -25490271.18744  23513590.9304                   23513592.0204
 -49441832.91047 -38508435.96346  20678064.4384                   20678060.4884
 11  8 18  0 22  0.0000000  0  9G12G30G17G10G05G04G25G09G02
 -28832130.62547 -22449989.31146  21631112.5394                   21631110.9494
  -2305070.31646  -1779390.33543  23849605.2974                   23849604.5204
 -72732649.07846 -56658612.17144  23094923.9454                   23094924.9144
 -41457174.21547 -32288287.80845  20956414.0004                   20956413.0944
 -20444586.88347 -15914255.85545  22282638.7504                   22282638.1374
 -60502233.93447 -47126484.56345  21545127.2894                   21545126.7074
    305828.94146    254459.19543  24423411.2894                   24423412.6884
 -32739852.87946 -25494034.49144  23512671.6804                   23512672.6644
 -49527357.34447 -38575078.35146  20661789.4774                   20661785.8484
 11  8 18  0 22 30.0000000  0  9G12G30G17G10G05G04G25G09G02
 -28978017.11347 -22563667.06746  21603351.5234                   21603349.4344
  -2486003.19146  -1920377.02043  23815174.7274                   23815174.6914
 -72762459.99246 -56681841.53744  23089251.6254                   23089251.7304
 -41546926.47347 -32358224.61745  20939335.2114                   20939333.9804
 -20619266.99647 -16050370.15145  22249398.4694                   22249398.0274
 -60508267.20747 -47131185.83345  21543979.7114                   21543978.5434
    123510.49646    112392.98144  24388717.2034                   24388719.0474
 -32744388.78546 -25497569.01943  23511808.2114                   23511809.5394
 -49612494.90647 -38641419.30146  20645588.2034                   20645584.7274
 11  8 18  0 23  0.0000000  0  9G12G30G17G10G05G04G25G09G02
 -29123423.89547 -22676971.05545  21575681.6254                   21575679.5274
  -2666613.98446  -2061112.71243  23780805.8364                   23780805.2894
 -72792042.17246 -56704892.63444  23083623.3284                   23083622.8094
 -41635973.55947 -32427611.93245  20922389.5554                   20922388.1884
 -20793602.54747 -16186215.97745  22216223.3674                   22216222.8054
 -60514052.75847 -47135694.06345  21542878.1954                   21542878.1134
    -58586.93047    -29501.05944  24354065.2894                   24354066.7774
 -32748633.91846 -25500877.03343  23511001.1804                   23511001.7974
 -49697246.13347 -38707459.21146  20629460.5314                   20629457.0434
 11  8 18  0 23 30.0000000  0  9G12G30G17G10G05G04G25G09G02
 -29268344.91847 -22789896.51546  21548104.1564                   21548101.9614
  -2846896.42246  -2201592.46643  23746498.5474                   23746499.4804
 -72821391.54746 -56727762.34644  23078038.2424                   23078037.5784
 -41724311.48447 -32496446.65445  20905580.1024                   20905578.2154
 -20967587.23847 -16321788.38645  22183114.7194                   22183114.6844
 -60519589.49647 -47140008.43545  21541824.9924                   21541823.7704
   -240457.38346   -171218.26943  24319456.5084                   24319458.1094
 -32752588.49247 -25503958.53843  23510248.7194                   23510249.5044
 -49781608.59448 -38773196.17546  20613406.9924                   20613403.7034
 11  8 18  0 24  0.0000000  0  9G12G30G17G10G05G04G25G09G02
 -29412781.25847 -22902444.30746  21520618.6724                   21520616.9844
  -3026850.97346  -2341816.76544  23712254.6644                   23712254.7034
 -72850511.09047 -56750452.96344  23072496.7504                   23072496.4774
 -41811943.22747 -32564731.09945  20888903.6254                   20888902.6334
 -21141221.52747 -16457087.76345  22150073.2974                   22150073.1024
 -60524882.68047 -47144133.00645  21540817.5084                   21540816.6214
   -422101.64146   -312759.15943  24284890.3594                   24284892.2074
 -32756259.11347 -25506818.80143  23509550.0474                   23509550.2854
 -49865586.62548 -38838633.59146  20597426.9064                   20597422.9064
 11  8 18  0 24 30.0000000  0  9G12G30G17G10G05G04G25G09G02
 -29556725.06247 -23014608.30046  21493227.2114                   21493224.9964
  -3206469.01647  -2481778.79444  23678074.5784                   23678075.0314
 -72879394.26646 -56772959.36844  23067000.7274                   23067000.7034
 -41898862.21148 -32632460.14845  20872363.6174                   20872362.6454
 -21314496.58247 -16592107.20445  22117099.9924                   22117099.6454
 -60529928.82847 -47148065.09345  21539857.6024                   21539856.4454
   -603511.39846   -454117.36843  24250369.4614                   24250370.6844
 -32759643.66446 -25509456.15244  23508906.0704                   23508906.2664
 -49949175.54348 -38903767.79846  20581520.1484                   20581516.5904
 11  8 18  0 25  0.0000000  0  9G12G30G17G10G05G04G25G09G02
 -29700180.04347 -23126391.40545  21465928.5084                   21465926.5824
  -3385754.18046  -2621481.50043  23643957.9844                   23643957.2584
 -72908047.10946 -56795286.29844  23061548.2114                   23061548.1524
 -41985074.18447 -32699638.28545  20855957.7664                   20855956.9264
 -21487415.92247 -16726849.48445  22084194.2814                   22084194.5434
 -60534736.46547 -47151811.33045  21538942.4304                   21538941.5704
   -784690.50847   -595295.89243  24215892.9144                   24215893.4774
 -32762751.93046 -25511878.25743  23508314.4694                   23508315.3754
 -50032382.91448 -38968604.70446  20565686.3834                   20565682.4734
 11  8 18  0 25 30.0000000  0  9G12G30G17G10G05G04G25G09G02
 -29843136.89147 -23237786.35046  21438724.8204                   21438722.5314
  -3564696.79346  -2760917.23243  23609905.6174                   23609904.9184
 -72936462.07047 -56817427.87844  23056141.0474                   23056140.0234
 -42070571.50047 -32766259.57045  20839688.6954                   20839687.4574
 -21659969.34847 -16861306.62745  22051358.6724                   22051358.5474
 -60539300.77347 -47155367.94445  21538074.2194                   21538073.4574
   -965629.46947   -736287.29843  24181461.5784                   24181462.4144
 -32765580.19946 -25514082.16044  23507776.3364                   23507777.9614
 -50115202.94148 -39033139.77046  20549926.1024                   20549922.3284
 11  8 18  0 26  0.0000000  0  9G12G30G17G10G05G04G25G09G02
 -29985594.19947 -23348792.06846  21411616.1414                   21411613.8714
  -3743294.88346  -2900084.53343  23575919.6724                   23575919.5164
 -72964639.44947 -56839384.32544  23050779.1024                   23050778.3444
 -42155354.77747 -32832324.45045  20823555.0474                   20823552.9454
 -21832155.64547 -16995477.69045  22018592.8364                   22018591.7384
 -60543624.53947 -47158737.11345  21537251.3134                   21537250.3134
  -1146326.69146   -877090.30143  24147074.5234                   24147076.7624
 -32768132.98846 -25516071.44244  23507290.2504                   23507291.5514
 -50197637.44948 -39097374.44046  20534239.6724                   20534235.4224
 11  8 18  0 26 30.0000000  0  9G12G30G17G10G05G04G25G09G02
 -30127545.68747 -23459403.60846  21384603.7274                   21384601.7464
  -3921541.66847  -3038978.02844  23542000.7584                   23541999.9414
 -72992574.75847 -56861152.14644  23045463.4694                   23045462.4144
 -42239419.98047 -32897829.76146  20807557.8444                   20807556.1414
 -22003967.84047 -17129357.25945  21985897.8444                   21985897.5594
 -60547706.27047 -47161917.70145  21536474.3754                   21536474.0474
  -1326775.69546  -1017699.85343  24112735.7974                   24112738.2774
 -32770410.07446 -25517845.89343  23506857.4144                   23506858.3524
 -50279683.73447 -39161306.60446  20518626.6174                   20518622.9344
 11  8 18  0 27  0.0000000  0  9G12G30G17G10G05G04G25G09G02
 -30268995.21547 -23569624.02346  21357686.5004                   21357684.5434
  -4099440.60546  -3177600.51943  23508148.2504                   23508147.1914
 -73020273.53547 -56882735.66244  23040192.2974                   23040191.9064
 -42322772.72347 -32962779.93945  20791696.2344                   20791694.8014
 -22175409.13747 -17262947.82445  21953273.6334                   21953273.0744
 -60551554.14547 -47164916.06745  21535742.5474                   21535741.0554
  -1506980.09447  -1158118.89143  24078444.8284                   24078446.4614
 -32772420.70746 -25519412.71843  23506475.5394                   23506475.4264
 -50361349.17247 -39224942.00646  20503086.1644                   20503082.4384
 11  8 18  0 27 30.0000000  0  9G12G30G17G10G05G04G25G09G02
 -30409936.82847 -23679448.66146  21330866.3914                   21330864.4774
  -4276985.20746  -3315946.87543  23474361.7894                   23474361.0044
 -73047731.86747 -56904131.80644  23034967.0704                   23034966.8054
 -42405408.78947 -33027171.64645  20775970.8674                   20775969.7304
 -22346473.26247 -17396244.47745  21920721.0704                   21920721.0004
 -60555166.44947 -47167730.87545  21535055.1644                   21535054.5204
  -1686933.70346  -1298342.47443  24044201.0944                   24044202.8164
 -32774164.77346 -25520771.79644  23506143.4774                   23506144.2664
 -50442631.34848 -39288278.75646  20487618.7114                   20487615.1804
 11  8 18  0 28  0.0000000  0  9G12G30G17G10G05G04G25G09G02
 -30550366.22747 -23788874.17146  21304143.2424                   21304141.4844
  -4454170.84846  -3454013.50343  23440644.2424                   23440643.6294
 -73074947.21947 -56925338.60144  23029788.3524                   23029788.5204
 -42487325.95747 -33091003.20845  20760382.6334                   20760381.3484
 -22517155.00447 -17529243.17245  21888241.8914                   21888240.7424
 -60558543.37547 -47170362.27845  21534412.3284                   21534411.4414
  -1866632.08646  -1438367.17443  24010005.6254                   24010006.9534
 -32775643.75846 -25521924.31244  23505861.1414                   23505862.9884
 -50523529.48448 -39351316.25346  20472224.1024                   20472220.4964
 11  8 18  0 28 30.0000000  0  9G12G30G17G10G05G04G25G09G02
 -29114855.72747 -22670294.53746  21577311.7034                   21577310.0234
  -3055567.86346  -2364192.92743  23706789.5314                   23706789.2154
 -71526497.45347 -55718754.38544  23324447.5784                   23324448.4534
 -40993100.57447 -31926671.72046  21044724.2664                   21044723.1884
 -21112024.79747 -16434336.42745  22155628.9064                   22155628.3594
 -58986266.11747 -45945211.17745  21833606.8984                   21833605.8754
   -470645.73046   -350585.51643  24275652.5634                   24275654.7584
 -31201440.27046 -24295272.28644  23805421.9064                   23805423.8324
 -49028621.00847 -38186452.50046  20756696.0944                   20756691.5864
 11  8 18  0 29  0.0000000  0  9G12G30G17G10G05G04G25G09G02
 -29254248.69947 -22778912.42546  21550786.2734                   21550784.7894
  -3232021.72746  -2501689.32344  23673211.8204                   23673211.5164
 -71553220.00847 -55739577.19444  23319362.8834                   23319362.8244
 -41073574.13347 -31989378.35545  21029410.6024                   21029409.3484
 -21281928.00847 -16566728.49645  22123297.1174                   22123296.5554
 -58989173.19147 -45947476.47245  21833053.5474                   21833052.4144
   -649820.54347   -490202.20243  24241557.2664                   24241559.0204
 -31202394.32446 -24296015.82344  23805240.9924                   23805241.9734
 -49108748.90647 -38248889.79646  20741448.1334                   20741444.1054
 11  8 18  0 29 30.0000000  0  9G12G30G17G10G05G04G25G09G02
 -29393118.60247 -22887122.71946  21524360.1724                   21524358.2234
  -3408104.24646  -2638896.39043  23639703.8674                   23639704.1054
 -71579694.23447 -55760206.50044  23314325.3524                   23314325.0394
 -41153324.02747 -32051521.10345  21014234.2814                   21014233.3754
 -21451436.50847 -16698812.97145  22091040.6954                   22091040.3244
 -58991847.22347 -45949560.15345  21832544.4924                   21832543.9224
   -828728.45347   -629610.91743  24207512.0944                   24207513.1334
 -31203089.82046 -24296557.83743  23805107.7814                   23805109.9494
 -49188492.14547 -38311027.37146  20726273.4534                   20726269.3164
 11  8 18  0 30  0.0000000  0  9G12G30G17G10G05G04G25G09G02
 -29531464.45347 -22994924.64846  21498033.7894                   21498031.8164
  -3583813.98846  -2775813.01543  23606267.9844                   23606267.4414
 -71605920.87946 -55780642.89344  23309333.5784                   23309334.2114
 -41232351.61747 -32113101.01445  20999196.3444                   20999194.7814
 -21620548.88347 -16830588.78245  22058859.8284                   22058858.7424
 -58994291.60947 -45951464.89345  21832079.6254                   21832078.7114
  -1007368.25446   -768810.79243  24173518.2974                   24173518.7974
 -31203531.51246 -24296902.11444  23805024.4844                   23805026.3954
 -49267853.18447 -38372867.13546  20711171.4924                   20711167.7344
 11  8 18  0 30 30.0000000  0  9G12G30G17G10G05G04G25G09G02
 -29669278.77747 -23102312.41146  21471808.7894                   21471806.6414
  -3759142.87546  -2912432.78243  23572903.1334                   23572903.3524
 -71631894.24646 -55800881.95344  23304392.1954                   23304391.8094
 -41310651.45747 -32174113.86145  20984296.2034                   20984295.0084
 -21789257.12147 -16962049.67245  22026755.3444                   22026754.7974
 -58996503.10247 -45953188.17845  21831658.3914                   21831657.9574
  -1185732.19946   -907795.51943  24139576.5004                   24139577.7814
 -31203717.71946 -24297047.29644  23804989.7114                   23804991.8014
 -49346827.96947 -38434405.92746  20696143.1174                   20696139.3754
 11  8 18  0 31  0.0000000  0  9G12G30G17G10G05G04G25G09G02
 -29806558.38747 -23209283.50446  21445685.2114                   21445683.2814
  -3934086.75446  -3048752.61543  23539612.2194                   23539612.5204
 -71657612.25047 -55820922.00144  23299498.6884                   23299498.0274
 -41388221.98047 -32234558.41945  20969535.2194                   20969534.0084
 -21957556.81247 -17093192.24445  21994729.6094                   21994728.6844
 -58998482.10247 -45954730.28445  21831282.6254                   21831281.1254
  -1363816.21947  -1046562.20944  24105687.8284                   24105689.2114
 -31203650.33646 -24296994.86244  23805002.4844                   23805003.5434
 -49425416.48047 -38495643.73146  20681188.0394                   20681184.2274
 11  8 18  0 31 30.0000000  0  9G12G30G17G10G05G04G25G09G02
 -29943303.78947 -23315838.31446  21419663.3284                   21419661.5474
  -4108645.83646  -3184772.57043  23506394.8754                   23506394.4414
 -71683077.53146 -55840765.12544  23294652.3364                   23294652.2544
 -41465066.12547 -32294436.94046  20954912.1644                   20954910.6054
 -22125448.30147 -17224016.72445  21962780.6174                   21962779.7384
 -59000234.00047 -45956095.40845  21830949.1094                   21830947.9574
  -1541620.75047  -1185111.05644  24071852.7584                   24071854.4264
 -31203335.96146 -24296749.92643  23805062.5394                   23805063.0474
 -49503622.84847 -38556583.76046  20666306.1954                   20666302.0274
 11  8 18  0 32  0.0000000  0  9G12G30G17G10G05G04G25G09G02
 -30079511.65247 -23421974.27546  21393743.7034                   21393741.9734
  -4282816.04346  -3320489.60943  23473251.7504                   23473251.0044
 -71708288.40246 -55860410.00844  23289855.0864                   23289855.0474
 -41541182.28947 -32353748.21345  20940427.5704                   20940426.0784
 -22292927.48847 -17354519.93245  21930910.6254                   21930909.5594
 -59001759.46947 -45957284.12045  21830658.4924                   21830657.7814
  -1719142.12146  -1323439.33943  24038070.8914                   24038072.7464
 -31202776.53546 -24296314.14543  23805168.0704                   23805170.3674
 -49581446.91847 -38617225.88946  20651496.3284                   20651492.7734
 11  8 18  0 32 30.0000000  0  9G12G30G17G10G05G04G25G09G02
 -30215172.43447 -23527683.93146  21367928.3134                   21367926.4574
  -4456587.49246  -3455895.89143  23440183.5474                   23440182.6294
 -71733237.16046 -55879850.63244  23285107.3984                   23285106.9384
 -41616563.25847 -32412486.60845  20926083.1954                   20926081.4224
 -22459984.37947 -17484694.07545  21899120.3674                   21899119.3484
 -59003053.16447 -45958292.21045  21830412.6564                   21830411.5864
  -1896370.53146  -1461539.26443  24004345.6884                   24004346.6564
 -31201968.27746 -24295684.35843  23805323.1174                   23805323.8914
 -49658882.62947 -38677565.40346  20636760.8674                   20636757.2154
 11  8 18  0 33  0.0000000  0  9G12G30G17G10G05G04G25G09G02
 -30350290.15647 -23632970.42746  21342216.1804                   21342214.1804
  -4629963.59446  -3590994.10743  23407191.2274                   23407190.6134
 -71757929.68446 -55899091.64244  23280408.5314                   23280408.1804
 -41691215.49247 -32470657.16245  20911877.1724                   20911875.9804
 -22626622.29347 -17614541.73946  21867409.9774                   21867409.3244
 -59004123.49647 -45959126.27445  21830208.8204                   21830208.1134
  -2073309.64547  -1599413.81543  23970675.4064                   23970677.1484
 -31200921.23046 -24294868.58243  23805521.3834                   23805522.9414
 -49735937.56247 -38737608.21846  20622097.7664                   20622094.2464
 11  8 18  0 33 30.0000000  0  9G12G30G17G10G05G04G25G09G02
 -30484860.51247 -23737830.39846  21316608.2504                   21316606.3134
  -4802939.59846  -3725780.56943  23374275.6174                   23374274.8714
 -71782363.19947 -55918130.78044  23275759.3134                   23275758.9304
 -41765136.89547 -32528258.23946  20897810.4064                   20897809.0704
 -22792836.67247 -17744059.39445  21835780.6414                   21835779.9924
 -59004970.51647 -45959786.31145  21830047.3524                   21830047.2774
  -2249954.89846  -1737059.34844  23937060.7584                   23937062.5784
 -31199636.78947 -24293867.76944  23805766.3834                   23805767.2814
 -49812610.95747 -38797353.72346  20607507.2114                   20607503.4574
 11  8 18  0 34  0.0000000  0  9G12G30G17G10G05G04G25G09G02
 -30618881.18747 -23842262.04946  21291104.9844                   21291102.9104
  -4975512.23046  -3860252.74644  23341435.9064                   23341435.4144
 -71806537.13747 -55936967.68944  23271159.2814                   23271159.1684
 -41838327.16447 -32585289.59946  20883882.5864                   20883881.9104
 -22958624.34447 -17873244.53945  21804232.3914                   21804231.0984
 -59005595.66447 -45960273.46845  21829928.1884                   21829928.0234
  -2426303.28946  -1874473.59243  23903503.1484                   23903504.2814
 -31198117.93446 -24292684.27644  23806054.9454                   23806056.2154
 -49888903.54348 -38856802.49946  20592989.3984                   20592985.6724
 11  8 18  0 34 30.0000000  0  9G12G30G17G10G05G04G25G09G02
 -30752343.44547 -23946258.57146  21265708.2194                   21265705.7664
  -5147672.32446  -3994403.39143  23308674.9224                   23308673.8324
 -71830444.27346 -55955596.67944  23266609.8914                   23266610.0664
 -41910779.77747 -32641746.16645  20870095.4454                   20870094.3634
 -23123975.91047 -18002089.85246  21772766.9144                   21772765.5864
 -59005994.42247 -45960584.20945  21829852.8754                   21829852.0554
  -2602345.71546  -2011649.43443  23870002.5634                   23870004.1724
 -31196361.17247 -24291315.46044  23806390.4454                   23806391.0084
 -49964810.03947 -38915950.41946  20578544.6724                   20578541.1454
 11  8 18  0 35  0.0000000  0  9G12G30G17G10G05G04G25G09G02
 -30885244.59047 -24049817.88646  21240417.7274                   21240415.9144
  -5319416.68746  -4128230.14943  23275992.7194                   23275991.9734
 -71854084.03946 -55974017.30444  23262111.4774                   23262111.9884
 -41982494.59047 -32697627.82945  20856448.5634                   20856447.1254
 -23288888.41447 -18130593.03746  21741385.0784                   21741384.2854
 -59006168.42247 -45960719.82845  21829820.1724                   21829818.8324
  -2778079.17246  -2148584.50343  23836561.6484                   23836564.0044
 -31194369.82047 -24289763.76044  23806767.9694                   23806770.0514
 -50040331.09847 -38974797.98946  20564173.4534                   20564170.1644
 11  8 18  0 35 30.0000000  0  9G12G30G17G10G05G04G25G09G02
 -31017586.98847 -24152941.79146  21215233.6954                   21215231.6684
  -5490746.65646  -4261733.98043  23243389.7584                   23243389.5234
 -71877460.02746 -55992232.39144  23257663.0474                   23257663.5634
 -42053475.84847 -32752937.85745  20842941.1724                   20842939.8594
 -23453362.84847 -18258754.88946  21710086.8594                   21710085.9494
 -59006123.73847 -45960685.04545  21829828.5554                   21829827.7074
  -2953505.33246  -2285280.14144  23803178.7814                   23803181.2424
 -31192151.80547 -24288035.49943  23807191.0784                   23807192.0234
 -50115472.26247 -39033349.54546  20549874.8054                   20549871.4224
 11  8 18  0 36  0.0000000  0  9G12G30G17G10G05G04G25G09G02
 -31149365.75447 -24255626.50146  21190157.0474                   21190155.3244
  -5661657.00446  -4394910.82843  23210867.3364                   23210866.5204
 -71900568.91046 -56010239.40144  23253265.2734                   23253265.1334
 -42123721.09047 -32807674.39845  20829573.7274                   20829572.7774
 -23617394.49247 -18386571.69646  21678872.1334                   21678871.2664
 -59005859.96547 -45960479.53545  21829878.6414                   21829878.0314
  -3128619.03146  -2421732.24243  23769855.5234                   23769858.1724
 -31189707.68047 -24286130.98843  23807655.9844                   23807657.3524
 -50190231.99247 -39091603.87046  20535648.6484                   20535644.6954
 11  8 18  0 36 30.0000000  0  9G12G30G17G10G05G04G25G09G02
 -31280578.48447 -24357870.16646  21165188.0634                   21165186.1254
  -5832144.79346  -4527758.40043  23178423.8054                   23178423.1644
 -71923410.76647 -56028038.26544  23248918.9304                   23248918.7154
 -42193230.50447 -32861837.54445  20816346.5474                   20816345.7504
 -23780980.39547 -18514041.15946  21647742.9534                   21647742.2464
 -59005378.77047 -45960104.60845  21829970.2424                   21829969.6254
  -3303417.55946  -2557938.83443  23736593.3444                   23736594.7624
 -31187040.91047 -24284053.07643  23808163.2114                   23808164.1454
 -50264611.72348 -39149562.09946  20521494.3524                   20521490.5664
 11  8 18  0 37  0.0000000  0  9G12G30G17G10G05G04G25G09G02
 -31411222.41847 -24459670.60646  21140327.3054                   21140325.2194
  -6002206.27346  -4660273.75843  23146062.1484                   23146061.6564
 -71945983.81246 -56045627.72444  23244623.5004                   23244623.6174
 -42262003.12147 -32915426.60445  20803259.8674                   20803258.9064
 -23944116.45347 -18641160.10946  21616698.8204                   21616698.3754
 -59004681.04347 -45959560.94045  21830102.7734                   21830102.0744
  -3477897.33246  -2693897.08144  23703390.3524                   23703392.4774
 -31184153.85246 -24281803.39643  23808713.0234                   23808714.1024
 -50338611.66447 -39207224.39046  20507412.8364                   20507408.7544
 11  8 18  0 37 30.0000000  0  9G12G30G17G10G05G04G25G09G02
 -31541291.19947 -24561022.86946  21115576.2424                   21115574.2664
  -6171834.30146  -4792451.42043  23113783.2034                   23113782.0004
 -71968283.28946 -56063003.96344  23240379.6954                   23240380.6374
 -42330035.09447 -32968438.51045  20790313.6334                   20790312.0704
 -24106795.89547 -18767923.24546  21585741.8754                   21585741.2154
 -59003764.54747 -45958846.80145  21830277.3524                   21830276.7854
  -3652051.42246  -2829601.51444  23670250.1564                   23670252.5234
 -31181045.45746 -24279381.29843  23809304.9144                   23809305.8484
 -50412228.73847 -39264588.33846  20493403.9844                   20493400.0124
 11  8 18  0 38  0.0000000  0  9G12G30G17G10G05G04G25G09G02
 -31670782.66048 -24661925.30446  21090934.6884                   21090932.6604
  -6341026.11346  -4924289.14943  23081586.9694                   23081585.9304
 -71990308.75046 -56080166.71944  23236189.1804                   23236188.6914
 -42397326.41447 -33020873.29845  20777508.6804                   20777507.1214
 -24269016.04747 -18894328.50546  21554872.5004                   21554871.7234
 -59002630.95747 -45957963.50645  21830492.7974                   21830492.3444
  -3825877.22746  -2965050.08244  23637172.1024                   23637174.3244
 -31177719.32446 -24276789.60543  23809937.5004                   23809938.5554
 -50485463.87947 -39321654.68546  20479467.6094                   20479463.8954
 11  8 18  0 38 30.0000000  0  9G12G30G17G10G05G04G25G09G02
 -30224270.48048 -23534772.95246  21366196.8054                   21366194.3834
  -4934353.45746  -3828180.46344  23349267.5234                   23349267.6884
 -70436639.24647 -54869515.20044  23531842.5864                   23531842.3014
 -40888455.31247 -31845129.55545  21064637.2734                   21064635.7664
 -22855348.93047 -17792769.66546  21823884.7424                   21823883.6374
 -57425862.43447 -44729312.72745  22130542.2194                   22130541.9224
  -2423946.39147  -1872636.43144  23903950.5554                   23903952.9494
 -29598758.77046 -23046430.77743  24110403.6484                   24110404.8754
 -48982896.38347 -38150822.84646  20765396.7894                   20765393.2194
 11  8 18  0 39  0.0000000  0  9G12G30G17G10G05G04G25G09G02
 -30352597.91048 -23634768.32946  21341776.8984                   21341774.7734
  -5102661.72746  -3959329.70944  23317239.5944                   23317238.8754
 -70458112.36346 -54886247.52444  23527756.5394                   23527756.0514
 -40954263.35948 -31896408.52645  21052114.0314                   21052113.0634
 -23016639.06647 -17918450.21846  21793191.9064                   21793190.9574
 -57424297.66847 -44728093.45345  22130839.8054                   22130839.2624
  -2597104.81647  -2007565.08344  23870999.9614                   23871001.4964
 -29595004.11746 -23043505.15543  24111118.1024                   24111119.6334
 -49055368.74647 -38207294.81246  20751605.5704                   20751602.0354
 11  8 18  0 39 30.0000000  0  9G12G30G17G10G05G04G25G09G02
 -30480343.80948 -23734310.58846  21317468.0554                   21317465.7344
  -5270527.27746  -4090133.95643  23285295.9304                   23285294.7034
 -70479312.12546 -54902766.88444  23523722.1804                   23523721.1024
 -41019333.87148 -31947112.81145  21039731.5784                   21039730.4024
 -23177463.85547 -18043768.17546  21762587.7504                   21762587.1644
 -57422523.57047 -44726711.05845  22131177.3054                   22131176.7774
  -2769928.94947  -2142233.24944  23838112.0864                   23838113.7074
 -29591043.64146 -23040419.16243  24111872.2034                   24111873.2544
 -49127464.71147 -38263473.47346  20737886.1484                   20737882.5044
 11  8 18  0 40  0.0000000  0  9G12G30G17G10G05G04G25G09G02
 -30607504.05547 -23833396.47546  21293269.5474                   21293267.7814
  -5437945.64147  -4220589.78344  23253436.5864                   23253436.0704
 -70500236.28146 -54919071.44644  23519740.3284                   23519740.1804
 -41083665.19948 -31997241.12245  21027489.7664                   21027488.9534
 -23337818.51247 -18168719.81046  21732073.4614                   21732072.6604
 -57420540.03147 -44725165.47445  22131554.7584                   22131554.1214
  -2942414.29347  -2276637.37844  23805289.1024                   23805291.3484
 -29586878.74646 -23037173.85443  24112664.4064                   24112666.2384
 -49199184.08247 -38319358.69246  20724238.4304                   20724234.7074
 11  8 18  0 40 30.0000000  0  9G12G30G17G10G05G04G25G09G02
 -30734075.89548 -23932023.88546  21269184.0084                   21269182.2234
  -5604913.22746  -4350694.29844  23221663.8984                   23221663.9774
 -70520883.16047 -54935159.97744  23515811.4144                   23515810.8094
 -41147256.93447 -32046793.10445  21015388.9774                   21015387.7624
 -23497699.78147 -18293302.56246  21701649.0234                   21701647.9804
 -57418348.03147 -44723457.43744  22131971.7734                   22131971.0124
  -3114557.41447  -2410774.85544  23772531.7194                   23772533.9304
 -29582512.18046 -23033771.42543  24113495.4614                   24113496.8204
 -49270526.95747 -38374950.52446  20710662.6334                   20710658.6604
 11  8 18  0 41  0.0000000  0  9G12G30G17G10G05G04G25G09G02
 -30860050.94548 -24030186.26746  21245211.5554                   21245210.1954
  -5771421.07447  -4480440.61243  23189978.7194                   23189978.1604
 -70541246.80146 -54951027.78744  23511936.2814                   23511936.3094
 -41210103.51248 -32095764.45545  21003429.5084                   21003428.4924
 -23657098.44547 -18417509.25946  21671316.7274                   21671315.4024
 -57415943.27347 -44721583.61945  22132429.7974                   22132428.8634
  -3286349.54347  -2544638.78444  23739841.0084                   23739842.8714
 -29577941.16846 -23030209.62443  24114366.2274                   24114366.7194
 -49341488.37547 -38430245.12646  20697158.9454                   20697155.3244
 11  8 18  0 41 30.0000000  0  9G12G30G17G10G05G04G25G09G02
 -30985427.35948 -24127882.15446  21221353.6804                   21221351.5474
  -5937466.09046  -4609826.27943  23158380.6804                   23158380.2854
 -70561326.15246 -54966674.05744  23508115.9694                   23508115.2734
 -41272204.73848 -32144155.00945  20991611.6254                   20991610.4884
 -23816011.21147 -18541337.33146  21641076.4304                   21641075.4614
 -57413327.22347 -44719545.16144  22132927.2734                   22132926.7934
  -3457787.63746  -2678226.89544  23707217.3594                   23707218.2934
 -29573168.49246 -23026490.82843  24115274.1484                   24115274.8404
 -49412069.36748 -38485243.27746  20683728.1804                   20683724.0434
 11  8 18  0 42  0.0000000  0  9G12G30G17G10G05G04G25G09G02
 -31110208.48048 -24225114.21946  21197608.4224                   21197606.2504
  -6103050.89846  -4738853.39643  23126871.2034                   23126870.1724
 -70581126.07846 -54982102.60044  23504347.5944                   23504347.6994
 -41333566.60547 -32191969.43545  20979935.2894                   20979933.8484
 -23974441.74647 -18664789.64946  21610928.0314                   21610926.8134
 -57410507.18447 -44717347.74145  22133464.6174                   22133463.1564
  -3628874.46947  -2811541.26044  23674660.3054                   23674661.6524
 -29568203.06646 -23022621.65043  24116218.3364                   24116220.1214
 -49482276.38347 -38539950.02946  20670367.9534                   20670363.9774
 11  8 18  0 42 30.0000000  0  9G12G30G17G10G05G04G25G09G02
 -31234384.62148 -24321874.84546  21173978.6094                   21173976.2704
  -6268165.22746  -4867513.86843  23095452.0164                   23095449.7544
 -70600638.74646 -54997307.32444  23500634.6414                   23500634.6684
 -41394182.22348 -32239202.37445  20968400.5704                   20968399.2384
 -24132379.33247 -18787857.83346  21580873.3914                   21580872.1684
 -57407477.52747 -44714986.98945  22134040.6094                   22134040.3324
  -3799599.91447  -2944574.04544  23642172.2974                   23642174.6024
 -29563040.48046 -23018599.02243  24117201.0234                   24117203.4304
 -49552103.24648 -38594360.54746  20657080.5084                   20657076.6334
 11  8 18  0 43  0.0000000  0  9G12G30G17G10G05G04G25G09G02
 -31357954.21148 -24418162.83846  21150463.6174                   21150461.9924
  -6432806.73846  -4995805.89144  23064121.4694                   23064119.6844
 -70619864.05146 -55012288.12244  23496975.9224                   23496976.3834
 -41454052.48448 -32285854.51945  20957007.7504                   20957006.2464
 -24289821.75047 -18910540.18746  21550912.9064                   21550912.2344
 -57404240.18047 -44712464.40645  22134656.8054                   22134656.0474
  -3969961.66447  -3077323.36244  23609753.7504                   23609755.8954
 -29557684.60946 -23014425.70543  24118220.1024                   24118221.9384
 -49621551.47347 -38648476.02446  20643864.6254                   20643861.1054
 11  8 18  0 43 30.0000000  0  9G12G30G17G10G05G04G25G09G02
 -31480916.16048 -24513977.34546  21127065.2344                   21127063.3834
  -6596973.84846  -5123728.29443  23032881.1174                   23032879.9454
 -70638802.63746 -55027045.49744  23493372.6334                   23493372.8054
 -41513179.18047 -32331927.25445  20945755.8134                   20945755.2194
 -24446767.59047 -19032835.59646  21521046.9534                   21521046.1174
 -57400798.22747 -44709782.39145  22135312.0784                   22135311.1254
  -4139958.19947  -3209788.13044  23577404.3834                   23577406.1604
 -29552139.87546 -23010105.26943  24119275.7424                   24119277.6484
 -49690623.37548 -38702298.27846  20630720.8204                   20630717.2034
 11  8 18  0 44  0.0000000  0  9G12G30G17G10G05G04G25G09G02
 -31603260.05148 -24609310.24846  21103783.9144                   21103781.9104
  -6760654.74247  -5251271.82243  23001733.5704                   23001732.3914
 -70657444.96546 -55041572.03444  23489824.2814                   23489824.7664
 -41571553.69147 -32377413.88645  20934647.9614                   20934646.2154
 -24603205.07847 -19154734.88546  21491277.8284                   21491277.0704
 -57397144.29747 -44706935.20445  22136007.0474                   22136006.4774
  -4309577.91447  -3341959.30344  23545127.0084                   23545128.7424
 -29546400.60946 -23005633.18043  24120367.9454                   24120370.0514
 -49759311.52048 -38755821.48646  20617650.1484                   20617646.1094
 11  8 18  0 44 30.0000000  0  9G12G30G17G10G05G04G25G09G02
 -31724989.40247 -24704164.28246  21080619.9924                   21080618.1994
  -6923852.39146  -5378438.79343  22970677.7034                   22970676.0124
 -70675796.89846 -55055872.29943  23486331.8754                   23486332.7304
 -41629182.52347 -32422319.46445  20923681.7424                   20923680.1604
 -24759137.21547 -19276240.38146  21461605.0394                   21461604.6054
 -57393285.90247 -44703928.68144  22136742.0394                   22136740.4534
  -4478823.82447  -3473839.15944  23512920.2114                   23512922.0864
 -29540476.00046 -23001016.72943  24121495.7344                   24121496.9264
 -49827622.36747 -38809050.69746  20604650.6414                   20604646.8324
 11  8 18  0 45  0.0000000  0  9G12G30G17G10G05G04G25G09G02
 -31846099.50448 -24798535.77946  21057573.0784                   21057571.5044
  -7086560.96946  -5505224.63344  22939715.9384                   22939714.6414
 -70693854.64146 -55069943.31544  23482896.7974                   23482896.4884
 -41686063.34047 -32466642.15845  20912857.3364                   20912855.8164
 -24914558.54747 -19397347.86146  21432029.2974                   21432028.5664
 -57389221.71147 -44700761.79744  22137514.5394                   22137514.0824
  -4647690.27047  -3605423.29344  23480786.3444                   23480788.5634
 -29534366.10946 -22996255.84343  24122658.4774                   24122659.4884
 -49895554.09048 -38861984.47646  20591723.7424                   20591719.5044
 11  8 18  0 45 30.0000000  0  9G12G30G17G10G05G04G25G09G02
 -31966586.51248 -24892421.75546  21034645.0634                   21034643.4064
  -7248776.03947  -5631625.90644  22908847.1564                   22908845.9104
 -70711615.82046 -55083783.25543  23479516.8754                   23479516.6174
 -41742194.92247 -32510381.05545  20902175.7814                   20902174.6094
 -25069464.79747 -19518053.96846  21402551.3134                   21402550.6254
 -57384951.83647 -44697434.65544  22138327.4064                   22138326.4534
  -4816172.78546  -3736708.29444  23448724.8594                   23448726.4884
 -29528072.34446 -22991351.65943  24123856.0004                   24123856.1564
 -49963106.81248 -38914622.94146  20578868.8834                   20578865.0744
 11  8 18  0 46  0.0000000  0  9G12G30G17G10G05G04G25G09G02
 -32086446.89148 -24985819.45546  21011836.2504                   21011834.5004
  -7410493.14546  -5757639.20444  22878073.6484                   22878071.8284
 -70729078.59046 -55097390.70944  23476193.3754                   23476193.5984
 -41797576.35247 -32553535.42745  20891637.1564                   20891636.1954
 -25223851.48447 -19638355.25246  21373172.7424                   21373171.8094
 -57380476.18747 -44693947.15444  22139179.0234                   22139178.2114
  -4984267.05546  -3867690.75744  23416736.9774                   23416739.0004
 -29521596.30546 -22986305.57143  24125088.2194                   24125089.3014
 -50030279.50048 -38966965.28846  20566085.8364                   20566082.4844
 11  8 18  0 46 30.0000000  0  9G12G30G17G10G05G04G25G09G02
 -32205676.14148 -25078725.33646  20989147.5084                   20989146.2154
  -7571706.78947  -5883260.18244  22847395.5394                   22847394.8324
 -70746239.82046 -55110763.08144  23472927.6884                   23472928.6174
 -41852205.33247 -32596103.46345  20881241.8204                   20881240.3324
 -25377713.53547 -19758247.69546  21343893.8524                   21343892.6334
 -57375793.80947 -44690298.57844  22140070.1094                   22140069.0784
  -5151967.66846  -3998366.46044  23384824.7734                   23384826.6454
 -29514938.64546 -22981117.83143  24126354.5704                   24126356.2034
 -50097070.64548 -39019010.31546  20553376.5004                   20553372.9024
 11  8 18  0 47  0.0000000  0  9G12G30G17G10G05G04G25G09G02
 -32324270.75848 -25171136.71846  20966580.2274                   20966578.1254
  -7732412.85247  -6008485.63344  22816813.5864                   22816813.0944
 -70763097.46146 -55123898.95844  23469720.0554                   23469720.2974
 -41906081.25847 -32638084.69645  20870989.2344                   20870987.8794
 -25531046.64148 -19877727.99246  21314715.3594                   21314714.0944
 -57370904.62547 -44686488.84144  22141000.1484                   22140999.7854
  -5319270.46947  -4128732.21244  23352988.5084                   23352989.5274
 -29508101.14546 -22975790.05143  24127657.0474                   24127658.1054
 -50163480.06248 -39070757.90346  20540739.1954                   20540735.3794
 11  8 18  0 47 30.0000000  0  9G12G30G17G10G05G04G25G09G02
 -32442226.53148 -25263050.29246  20944134.0164                   20944132.0204
  -7892606.01647  -6133311.39244  22786330.9534                   22786330.0204
 -70779648.68746 -55136796.05343  23466570.6174                   23466570.9384
 -41959202.48847 -32679477.86345  20860881.0554                   20860879.4614
 -25683845.77748 -19996792.21346  21285638.7274                   21285637.3874
 -57365808.14547 -44682517.60144  22141970.3444                   22141969.1724
  -5486170.28547  -4258783.94544  23321228.4454                   23321229.6954
 -29501084.69946 -22970322.80043  24128991.9924                   24128993.6804
 -50229506.41048 -39122206.97746  20528174.6484                   20528170.9734
 11  8 18  0 48  0.0000000  0  9G12G30G17G10G05G04G25G09G02
 -32559539.37548 -25354462.90046  20921809.6414                   20921807.9414
  -8052281.57447  -6257733.84444  22755945.9224                   22755943.7384
 -70795891.25446 -55149452.66544  23463479.8754                   23463479.7934
 -42011568.07048 -32720282.20245  20850915.8914                   20850914.2664
 -25836106.41048 -20115436.81746  21256664.4534                   21256663.4694
 -57360503.82047 -44678384.40044  22142979.6254                   22142979.0664
  -5652662.49647  -4388518.08244  23289545.8594                   23289547.4184
 -29493890.39546 -22964716.95343  24130360.8204                   24130362.4654
 -50295148.87948 -39173356.94146  20515683.6644                   20515680.1024
 11  8 18  0 48 30.0000000  0  9G12G30G17G10G05G04G25G09G02
 -32676203.86348 -25445370.25446  20899609.3834                   20899607.6294
  -8211433.05147  -6381747.92744  22725659.6804                   22725658.2854
 -70811820.88746 -55161865.39443  23460448.3674                   23460448.2034
 -42063174.27047 -32760494.81545  20841095.5084                   20841094.0704
 -25987822.19948 -20233656.87146  21227793.5004                   21227792.3364
 -57354989.74247 -44674087.72144  22144029.5704                   22144028.2274
  -5818740.55947  -4517929.50344  23257941.8134                   23257943.0554
 -29486517.85246 -22958972.23443  24131764.7504                   24131765.3634
 -50360404.96548 -39224205.81646  20503265.1884                   20503261.7304
 11  8 18  0 49  0.0000000  0  9G12G30G17G10G05G04G25G09G02
 -31216796.02348 -24308169.32446  21177325.3754                   21177323.6254
  -6794634.03147  -5277748.64644  22995267.5474                   22995266.0634
 -69252017.97346 -53946434.56043  23757269.3204                   23757268.8054
 -40538602.44947 -31572516.76045  21131212.0634                   21131210.6134
 -24563567.24248 -19123847.78046  21498820.2664                   21498819.4104
 -55773848.99247 -43442030.03344  22444910.4384                   22444909.4224
  -4408977.84847  -3419413.00844  23526210.4844                   23526211.4534
 -27903551.82046 -21725492.33643  24432992.3674                   24432993.5594
 -48849855.40248 -38047154.19946  20790713.4454                   20790709.6604
 11  8 18  0 49 30.0000000  0  9G12G30G17G10G05G04G25G09G02
 -31332159.07447 -24398062.58646  21155372.8524                   21155370.7934
  -6952729.97347  -5400940.22844  22965183.0004                   22965181.6174
 -69267321.03146 -53958359.06044  23754357.1644                   23754356.8874
 -40588694.55948 -31611549.58145  21121679.5004                   21121678.2664
 -24714186.52348 -19241213.40446  21470158.5394                   21470157.5594
 -55767920.54347 -43437410.52044  22446038.2974                   22446037.4384
  -4574220.41446  -3548173.39144  23494766.7734                   23494766.9414
 -27895832.64546 -21719477.50343  24434461.1094                   24434463.7304
 -48914343.26648 -38097404.47646  20778441.7664                   20778438.0084
 11  8 18  0 50  0.0000000  0  9G12G30G17G10G05G04G25G09G02
 -31446864.77748 -24487443.64746  21133544.8914                   21133542.6844
  -7110289.61347  -5523713.93844  22935200.3284                   22935199.1644
 -69282305.62746 -53970035.42543  23751505.1804                   23751505.4064
 -40638026.29347 -31649989.88245  21112291.9844                   21112290.5944
 -24864249.46948 -19358145.53146  21441602.5864                   21441601.1214
 -55761783.21947 -43432628.23144  22447206.7344                   22447205.9574
  -4739036.77347  -3676601.65844  23463402.5554                   23463403.3054
 -27887940.59845 -21713327.92743  24435962.3054                   24435964.9024
 -48978444.49248 -38147353.47946  20766243.7274                   20766240.2704
 11  8 18  0 50 30.0000000  0  9G12G30G17G10G05G04G25G09G02
 -31560910.24648 -24576310.20546  21111842.6954                   21111840.4494
  -7267309.46947  -5646066.96944  22905320.0784                   22905319.2664
 -69296971.24646 -53981463.13443  23748715.1254                   23748714.4024
 -40686597.60248 -31687837.64745  21103049.5474                   21103048.1294
 -25013752.78547 -19474641.57546  21413153.1804                   21413152.1334
 -55755437.52047 -43427683.54444  22448414.3914                   22448413.3524
  -4903423.44947  -3804695.16044  23432121.3204                   23432121.4024
 -27879878.15245 -21707045.67242  24437497.1884                   24437498.5124
 -49042159.00848 -38197001.13146  20754119.4304                   20754115.3484
 11  8 18  0 51  0.0000000  0  9G12G30G17G10G05G04G25G09G02
 -31674290.40248 -24664658.36446  21090267.1804                   21090265.2274
  -7423783.23447  -5767994.50544  22875544.4064                   22875543.6134
 -69311313.90246 -53992639.25843  23745985.9384                   23745985.7544
 -40734406.39147 -31725091.23145  21093951.6884                   21093950.1174
 -25162690.15648 -19590696.61846  21384810.8754                   21384809.7974
 -55748881.57047 -43422575.04144  22449661.5704                   22449660.8244
  -5067374.16847  -3932448.88244  23400922.0474                   23400923.1094
 -27871644.80546 -21700630.16442  24439064.2034                   24439065.2894
 -49105484.68448 -38246345.80446  20742068.9614                   20742065.2504
 11  8 18  0 51 30.0000000  0  9G12G30G17G10G05G04G25G09G02
 -31787004.19548 -24752487.27346  21068818.6024                   21068816.1524
  -7579709.27047  -5889495.27044  22845872.2814                   22845870.5944
 -69325333.66446 -54003563.78843  23743317.6804                   23743317.2704
 -40781454.13747 -31761751.81645  21084998.9064                   21084997.6294
 -25311060.18747 -19706309.59946  21356577.1024                   21356576.2034
 -55742117.85547 -43417304.66344  22450948.6564                   22450948.4844
  -5230887.28147  -4059861.65744  23369807.0164                   23369806.9694
 -27863244.83646 -21694084.85542  24440662.7274                   24440664.7034
 -49168423.71548 -38295389.21446  20730092.0864                   20730088.3714
 11  8 18  0 52  0.0000000  0  9G12G30G17G10G05G04G25G09G02
 -31899048.69547 -24839794.64946  21047497.0474                   21047494.8674
  -7735083.78947  -6010566.24644  22816305.3834                   22816303.9104
 -69339029.35946 -54014235.83443  23740711.6334                   23740711.0204
 -40827740.77747 -31797819.30145  21076190.4924                   21076189.2034
 -25458859.25448 -19821477.66146  21328451.9694                   21328451.2194
 -55735147.03947 -43411872.87944  22452275.3754                   22452274.3914
  -5393958.93747  -4186930.45344  23338775.1174                   23338775.8794
 -27854680.21945 -21687411.21343  24442293.0234                   24442294.1994
 -49230976.10948 -38344131.33446  20718188.5554                   20718185.1724
 11  8 18  0 52 30.0000000  0  9G12G30G17G10G05G04G25G09G02
 -32010427.99648 -24926583.69646  21026302.2274                   21026300.2854
  -7889909.21147  -6131209.40944  22786842.8594                   22786841.1994
 -69352405.39146 -54024658.73243  23738165.8834                   23738165.6804
 -40873272.65247 -31833298.68845  21067526.1644                   21067524.9774
 -25606090.16848 -19936202.99946  21300434.7114                   21300433.6684
 -55727975.68747 -43406284.84544  22453640.2274                   22453639.3164
  -5556591.60547  -4313657.17544  23307826.7194                   23307827.9654
 -27845959.25846 -21680615.76643  24443952.7194                   24443954.5274
 -49293148.39148 -38392577.26946  20706357.6174                   20706354.0664
 11  8 18  0 53  0.0000000  0  9G12G30G17G10G05G04G25G09G02
 -32121139.08248 -25012852.06646  21005234.6484                   21005232.6644
  -8044182.17647  -6251422.04044  22757485.8524                   22757484.3054
 -69365460.85946 -54034831.88844  23735681.7814                   23735681.7974
 -40918050.04747 -31868190.16845  21059005.5314                   21059004.1954
 -25752749.73848 -20050483.15546  21272526.4614                   21272525.3874
 -55720604.59447 -43400541.19844  22455042.0164                   22455041.9184
  -5718781.90647  -4440039.17244  23276963.0084                   23276964.3554
 -27837084.52046 -21673700.44043  24445641.0084                   24445643.9344
 -49354940.80548 -38440727.21346  20694599.0004                   20694595.0944
 11  8 18  0 53 30.0000000  0  9G12G30G17G10G05G04G25G09G02
 -32231170.69548 -25098590.96346  20984296.4454                   20984294.0744
  -8197890.32047  -6371194.59944  22728235.5944                   22728235.1374
 -69378185.84846 -54044747.48743  23733260.2584                   23733260.0434
 -40962064.28947 -31902486.96645  21050629.6884                   21050628.5704
 -25898825.68048 -20164308.52746  21244729.0164                   21244727.9454
 -55713025.70347 -43394635.57444  22456484.5004                   22456483.9884
  -5880517.43747  -4566066.78944  23246185.3204                   23246187.4654
 -27828049.18746 -21666660.00443  24447360.8204                   24447362.9264
 -49416344.87148 -38488574.52646  20682914.4064                   20682910.2114
 11  8 18  0 54  0.0000000  0  9G12G30G17G10G05G04G25G09G02
 -32340524.90248 -25183802.01246  20963486.9454                   20963484.7974
  -8351034.32047  -6490527.51344  22699093.5474                   22699092.5864
 -69390583.34046 -54054407.88343  23730900.9384                   23730900.9384
 -41005320.04747 -31936192.74145  21042398.0704                   21042397.2424
 -26044318.89848 -20277679.82946  21217042.6644                   21217041.3094
 -55705243.72747 -43388571.71144  22457965.4304                   22457964.9774
  -6041798.83247  -4691740.55744  23215495.0864                   23215496.1054
 -27818859.84846 -21659499.58243  24449109.4774                   24449111.6954
 -49477365.09848 -38536122.75146  20671302.4774                   20671298.3754
 11  8 18  0 54 30.0000000  0  9G12G30G17G10G05G04G25G09G02
 -32449194.62148 -25268479.70146  20942807.5784                   20942805.4574
  -8503606.22347  -6609414.68044  22670060.2894                   22670058.9304
 -69402647.77746 -54063808.76243  23728605.4694                   23728605.3594
 -41047813.14547 -31969304.23445  21034312.6254                   21034310.9694
 -26189221.87148 -20390591.19346  21189468.1174                   21189467.2934
 -55697254.96947 -43382346.72244  22459486.0234                   22459485.2664
  -6202618.11747  -4817054.27144  23184892.1024                   23184893.2734
 -27809514.38346 -21652217.48943  24450887.9454                   24450890.3094
 -49537997.71548 -38583368.95946  20659764.5314                   20659760.6994
 11  8 18  0 55  0.0000000  0  9G12G30G17G10G05G04G25G09G02
 -32557181.37548 -25352625.20546  20922258.3444                   20922256.3554
  -8655606.59847  -6727856.46044  22641135.5784                   22641134.8094
 -69414381.69946 -54072952.05644  23726372.1804                   23726373.1804
 -41089547.38747 -32001824.40445  21026370.8054                   21026369.1954
 -26333535.54748 -20503043.36246  21162006.5234                   21162005.1374
 -55689063.93047 -43375964.12744  22461044.8364                   22461044.2544
  -6362975.88747  -4942008.30244  23154377.4694                   23154377.6764
 -27800019.10246 -21644818.68743  24452694.5474                   24452697.4884
 -49598246.76648 -38630316.28346  20648299.5864                   20648295.9264
 11  8 18  0 55 30.0000000  0  9G12G30G17G10G05G04G25G09G02
 -32664483.60548 -25436237.33946  20901839.1724                   20901837.3674
  -8807032.82047  -6845850.86244  22612319.3444                   22612319.0434
 -69425785.09846 -54081837.85044  23724202.6094                   23724202.8834
 -41130524.37147 -32033754.51245  21018572.7114                   21018571.4844
 -26477257.10548 -20615034.15946  21134657.0084                   21134655.8484
 -55680672.45347 -43369425.31344  22462641.5164                   22462640.9224
  -6522869.34847  -5066600.57444  23123950.0784                   23123951.3244
 -27790377.26646 -21637305.70943  24454529.4924                   24454532.1684
 -49658113.53148 -38676965.72146  20636906.7114                   20636903.8244
 11  8 18  0 56  0.0000000  0  9G12G30G17G10G05G04G25G09G02
 -32771096.44548 -25519312.26346  20881551.5784                   20881549.6454
  -8957878.76647  -6963393.10644  22583614.3134                   22583613.4774
 -69436854.30146 -54090463.25244  23722096.3834                   23722097.1174
 -41170741.75047 -32065092.71745  21010919.4694                   21010918.4414
 -26620380.91848 -20726559.16746  21107421.1564                   21107420.1024
 -55672078.26247 -43362728.55044  22464277.3754                   22464276.2274
  -6682292.42647  -5190826.25844  23093612.9144                   23093614.3794
 -27780588.40646 -21629678.09843  24456393.0314                   24456394.8954
 -49717595.77048 -38723315.51946  20625588.0944                   20625584.6094
 11  8 18  0 56 30.0000000  0  9G12G30G17G10G05G04G25G09G02
 -32877022.89548 -25601852.33246  20861394.7424                   20861393.1094
  -9108146.55147  -7080484.86444  22555019.7814                   22555018.6564
 -69447593.33246 -54098831.30544  23720052.1884                   23720053.4494
 -41210205.59047 -32095843.75445  21003410.1094                   21003408.7584
 -26762909.51248 -20837620.36046  21080299.0084                   21080297.6294
 -55663287.45347 -43355878.58544  22465949.5784                   22465949.1954
  -6841247.12547  -5314687.02144  23063364.7974                   23063365.8324
 -27770660.24246 -21621941.96543  24458282.3364                   24458283.5234
 -49776698.86748 -38769369.90646  20614340.8284                   20614337.3404
 11  8 18  0 57  0.0000000  0  9G12G30G17G10G05G04G25G09G02
 -32982258.50048 -25683854.10846  20841368.7274                   20841366.9064
  -9257830.53547  -7197121.67244  22526536.0004                   22526534.9774
 -69457998.76246 -54106939.41043  23718071.5554                   23718073.3054
 -41248914.13347 -32126006.24945  20996043.8204                   20996042.7034
 -26904837.20748 -20948213.32646  21053290.8674                   21053289.8444
 -55654298.56247 -43348874.26644  22467660.0234                   22467659.5354
  -6999727.73047  -5438178.32344  23033206.9614                   23033207.9344
 -27760592.73046 -21614097.25743  24460198.0314                   24460199.7854
 -49835421.74248 -38815128.00246  20603166.4384                   20603162.6884
 11  8 18  0 57 30.0000000  0  9G12G30G17G10G05G04G25G09G02
 -33086806.85548 -25765320.35646  20821474.0704                   20821471.4414
  -9406932.99647  -7313305.36644  22498162.5784                   22498161.5044
 -69468075.37546 -54114791.36544  23716154.7194                   23716155.3874
 -41286873.52347 -32155584.98645  20988820.3834                   20988819.4494
 -27046166.55548 -21058340.05946  21026397.1024                   21026395.5274
 -55645117.96547 -43341720.56844  22469407.0394                   22469406.3554
  -7157736.56247  -5561302.00844  23003138.7274                   23003140.0944
 -27750393.84846 -21606150.21743  24462138.3834                   24462140.2734
 -49893770.13748 -38860594.28346  20592062.9694                   20592059.1414
 11  8 18  0 58  0.0000000  0  9G12G30G17G10G05G04G25G09G02
 -33190663.89147 -25846247.90846  20801710.5164                   20801708.7504
  -9555449.28147  -7429032.25644  22469901.1644                   22469899.8524
 -69477820.77046 -54122385.20644  23714300.7344                   23714300.8914
 -41324082.76647 -32184579.18145  20981739.9774                   20981738.3484
 -27186893.29348 -21167997.22946  20999617.2274                   20999616.1484
 -55635745.14547 -43334417.07644  22471190.6954                   22471190.0824
  -7315268.68447  -5684054.24944  22973161.1334                   22973162.7424
 -27740064.72746 -21598101.75243  24464104.2274                   24464106.0554
 -49951742.92248 -38905767.89246  20581031.4304                   20581027.6134
 11  8 18  0 58 30.0000000  0  9G12G30G17G10G05G04G25G09G02
 -33293827.28547 -25926634.96146  20782079.3444                   20782077.3754
  -9703375.59047  -7544299.46644  22441751.5634                   22441750.3324
 -69487233.10946 -54129719.47343  23712509.2894                   23712509.6374
 -41360541.73047 -32212988.73945  20974802.2274                   20974800.6684
 -27327013.84448 -21277182.01446  20972953.6024                   20972952.3794
 -55626179.89846 -43326963.64944  22473010.3444                   22473010.6604
  -7472320.32847  -5806432.05244  22943275.5944                   22943276.4614
 -27729607.12946 -21589953.06243  24466094.5394                   24466096.9224
 -50009340.12948 -38950648.81546  20570070.7034                   20570066.8484
 11  8 18  0 59  0.0000000  0  9G12G30G17G10G05G04G25G09G02
 -33396296.78147 -26006481.32846  20762580.0004                   20762577.9224
  -9850710.60947  -7659105.93544  22413714.3834                   22413713.3714
 -69496314.03146 -54136795.56343  23710781.3674                   23710782.1724
 -41396253.49247 -32240816.08145  20968006.3674                   20968004.8164
 -27466527.23848 -21385893.71346  20946404.8054                   20946403.6134
 -55616425.12947 -43319362.54944  22474867.6564                   22474866.8134
  -7628890.06647  -5928434.39344  22913481.1334                   22913481.6564
 -27719025.47346 -21581707.85243  24468108.2424                   24468111.3134
 -50066564.28148 -38995239.07846  20559181.5634                   20559177.6804
 11  8 18  0 59 30.0000000  0  9G12G30G17G10G05G04G25G09G02
 -31922643.73048 -24858180.23646  21043007.0004                   21043005.2274
  -8422022.99247  -6545842.80844  22685584.7664                   22685583.2114
 -67929638.50846 -52916009.44744  24008910.6484                   24008910.6914
 -39855794.26647 -31040458.22045  21261145.7344                   21261144.7274
 -26030002.77748 -20266523.96046  21219766.5234                   21219765.0004
 -54031058.61347 -42084012.01444  22776552.6484                   22776551.9654
  -6209546.12147  -4822452.03844  23183573.3754                   23183574.1724
 -26132899.02046 -20345765.31843  24769937.9534                   24769941.0354
 -48547990.50448 -37811934.82146  20848156.2584                   20848152.8404
 11  8 18  1  0  0.0000000  0  9G12G30G17G10G05G04G25G09G02
 -32023713.06647 -24936935.56446  21023773.9224                   21023771.8054
  -8568159.69947  -6659715.52644  22657775.8594                   22657773.9344
 -67938046.59046 -52922561.20844  24007309.8054                   24007310.5634
 -39890007.69947 -31067118.03045  21254635.1644                   21254634.0044
 -26168286.95347 -20374277.82846  21193451.9844                   21193450.4734
 -54020920.79747 -42076112.41044  22778481.9144                   22778481.1994
  -6365136.03947  -4943690.84544  23153965.0394                   23153966.1644
 -26122069.91446 -20337327.21543  24771998.8444                   24772002.3204
 -48604463.92648 -37855940.09046  20837410.0704                   20837406.0784
 11  8 18  1  0 30.0000000  0  9G12G30G17G10G05G04G25G09G02
 -32124082.21947 -25015145.28746  21004674.4694                   21004672.2114
  -8713695.38347  -6773119.89244  22630081.3364                   22630080.0704
 -67946119.86346 -52928852.10244  24005773.2814                   24005774.3484
 -39923475.75047 -31093197.01645  21248266.4454                   21248265.8954
 -26305955.20347 -20481551.74946  21167254.3594                   21167252.9344
 -54010595.56246 -42068066.81744  22780446.0314                   22780445.8404
  -6520234.00447  -5064546.34344  23124451.6094                   23124452.3094
 -26111123.61346 -20328797.78543  24774082.1024                   24774085.8874
 -48660565.71548 -37899655.76446  20826734.1954                   20826730.7384
 11  8 18  1  1  0.0000000  0  9G12G30G17G10G05G04G25G09G02
 -32223750.55548 -25092808.93046  20985708.0784                   20985706.1374
  -8858628.14847  -6886054.48944  22602500.8054                   22602500.1454
 -67953858.93046 -52934882.52844  24004300.4064                   24004301.4414
 -39956200.81647 -31118697.06745  21242038.8914                   21242038.0944
 -26443005.74647 -20588344.33346  21141174.6334                   21141173.0434
 -54000084.73446 -42059876.55544  22782446.2814                   22782446.4884
  -6674838.00847  -5185016.91444  23095031.2734                   23095032.1804
 -26100063.75846 -20320179.79143  24776187.1414                   24776189.4534
 -48716297.44548 -37943083.07546  20816128.6564                   20816125.1914
 11  8 18  1  1 30.0000000  0  9G12G30G17G10G05G04G25G09G02
 -32322714.96948 -25169924.07046  20966876.0004                   20966873.5514
  -9002954.21947  -6998516.29844  22575037.3284                   22575036.0004
 -67961261.96946 -52940651.11344  24002891.7664                   24002892.6604
 -39988182.80947 -31143618.10545  21235953.0864                   21235951.9694
 -26579435.15248 -20694652.94146  21115212.4534                   21115211.3444
 -53989388.31647 -42051541.68844  22784482.1804                   22784481.9924
  -6828944.11747  -5305099.53344  23065705.1954                   23065706.6564
 -26088892.17246 -20311474.86143  24778312.7974                   24778314.6684
 -48771659.22348 -37986222.12146  20805593.8674                   20805590.2854
 11  8 18  1  2  0.0000000  0  9G12G30G17G10G05G04G25G09G02
 -32420980.25447 -25246494.42246  20948176.3834                   20948174.5084
  -9146676.78547  -7110507.89444  22547687.4844                   22547686.2704
 -67968334.23846 -52946161.94344  24001546.0314                   24001547.1804
 -40019428.82448 -31167965.62445  21230007.1334                   21230006.2384
 -26715246.90648 -20800480.23746  21089368.3674                   21089367.4844
 -53978513.71147 -42043067.98444  22786551.1174                   22786551.5274
  -6982555.38347  -5424796.56844  23036473.9144                   23036475.3364
 -26077617.31246 -20302689.36342  24780458.1884                   24780460.3594
 -48826657.96148 -38029078.27246  20795128.0394                   20795124.1724
 11  8 18  1  2 30.0000000  0  9G12G30G17G10G05G04G25G09G02
 -32518544.35948 -25322518.40546  20929610.8364                   20929608.6334
  -9289792.18747  -7222026.35644  22520453.5784                   22520452.4844
 -67975074.32846 -52951413.96244  24000264.2664                   24000264.6604
 -40049939.52047 -31191740.17145  21224201.3134                   21224199.5704
 -26850437.51247 -20905823.52946  21063642.4224                   21063641.3634
 -53967460.66047 -42034455.23744  22788655.5634                   22788655.0394
  -7135667.94947  -5544105.03344  23007337.8754                   23007338.7624
 -26066241.04346 -20293824.92642  24782622.9224                   24782624.5004
 -48881293.22348 -38071651.18946  20784731.0314                   20784727.4844
 11  8 18  1  3  0.0000000  0  9G12G30G17G10G05G04G25G09G02
 -32615402.33247 -25397992.13346  20911179.3754                   20911176.9224
  -9432294.97747  -7333067.48044  22493335.9774                   22493335.0434
 -67981479.49646 -52956405.02544  23999044.8984                   23999045.2814
 -40079713.44147 -31214940.61145  21218535.4534                   21218534.4184
 -26985002.28948 -21010679.16246  21038035.9384                   21038034.5234
 -53956227.71947 -42025702.30144  22790792.7424                   22790792.3714
  -7288276.37547  -5663020.65944  22978297.7034                   22978298.5234
 -26054763.27746 -20284881.41042  24784807.6884                   24784809.3634
 -48935563.42248 -38113939.63346  20774403.6414                   20774400.0234
 11  8 18  1  3 30.0000000  0  9G12G30G17G10G05G04G25G09G02
 -32711556.48847 -25472917.46046  20892881.8364                   20892879.3674
  -9574185.96147  -7443631.85644  22466334.6254                   22466334.1524
 -67987552.56646 -52961137.26443  23997889.9614                   23997889.0164
 -40108755.44547 -31237570.74445  21213009.1414                   21213007.5274
 -27118942.11748 -21115047.82346  21012547.7584                   21012546.4344
 -53944819.44947 -42016812.71944  22792963.7504                   22792963.6024
  -7440381.16047  -5781543.82344  22949352.7344                   22949353.9774
 -26043190.41046 -20275863.73442  24787010.1484                   24787012.0234
 -48989473.04748 -38155947.13446  20764144.8984                   20764141.4494
 11  8 18  1  4  0.0000000  0  9G12G30G17G10G05G04G25G09G02
 -32807007.97348 -25547295.23546  20874718.3054                   20874715.8284
  -9715464.94947  -7553719.36244  22439450.4774                   22439449.7624
 -67993295.38746 -52965612.19043  23996796.6644                   23996795.5004
 -40137069.35247 -31259633.52245  21207621.1724                   21207619.6604
 -27252257.11347 -21218929.61046  20987178.6804                   20987177.4924
 -53933239.46146 -42007789.33244  22795167.2504                   22795167.0274
  -7591982.02047  -5899674.33645  22920503.9774                   22920505.0474
 -26031527.75046 -20266776.16343  24789229.7734                   24789232.1334
 -49043025.46548 -38197676.27846  20753954.4534                   20753950.7894
 11  8 18  1  4 30.0000000  0  9G12G30G17G10G05G04G25G09G02
 -32901757.11748 -25621125.73646  20856687.5944                   20856685.5474
  -9856131.07847  -7663329.30244  22412682.6804                   22412681.3204
 -67998709.48446 -52969831.00743  23995765.3674                   23995765.7934
 -40164658.23047 -31281131.34245  21202370.7274                   21202369.8554
 -27384946.38347 -21322323.79746  20961928.6954                   20961927.5664
 -53921490.47346 -41998634.32044  22797402.8284                   22797402.3054
  -7743077.90647  -6017411.36344  22891751.3284                   22891752.8794
 -26019779.50846 -20257621.77243  24791465.3444                   24791468.0514
 -49096223.35948 -38239129.17646  20743830.8204                   20743827.5204
 11  8 18  1  5  0.0000000  0  9G12G30G17G10G05G04G25G09G02
 -32995795.53547 -25694402.41646  20838793.2194                   20838790.8874
  -9996174.64547  -7772454.17444  22386033.4384                   22386032.0274
 -68003787.39546 -52973787.85943  23994799.0234                   23994800.8364
 -40191516.27748 -31302059.67345  21197260.0944                   21197259.0274
 -27517001.34848 -21425223.73946  20936799.7664                   20936798.4534
 -53909566.62946 -41989343.03144  22799671.9534                   22799671.3874
  -7893658.98047  -6134747.23544  22863096.7504                   22863098.3484
 -26007941.41846 -20248397.41843  24793717.9064                   24793721.5434
 -49149060.75848 -38280301.16146  20733776.7194                   20733773.1294
 11  8 18  1  5 30.0000000  0  9G12G30G17G10G05G04G25G09G02
 -33089126.60248 -25767127.91846  20821032.5084                   20821030.5234
 -10135598.42247  -7881096.06344  22359501.5784                   22359500.4654
 -68008533.96546 -52977486.47943  23993896.2194                   23993896.8954
 -40217650.62148 -31322424.09145  21192286.9384                   21192285.7774
 -27648424.83247 -21527631.62746  20911790.5784                   20911789.1484
 -53897474.16047 -41979920.33444  22801972.6334                   22801971.8054
  -8043727.72747  -6251683.92445  22834539.9144                   22834540.8284
 -25996021.60946 -20239109.48842  24795986.5474                   24795989.0274
 -49201543.64148 -38321196.91346  20723789.5394                   20723785.6094
 11  8 18  1  6  0.0000000  0  9G12G30G17G10G05G04G25G09G02
 -33181749.14848 -25839301.31346  20803406.8914                   20803405.0274
 -10274399.30947  -7989252.58944  22333088.8754                   22333087.5164
 -68012948.37946 -52980926.30643  23993057.0314                   23993056.8324
 -40243062.14547 -31342225.25945  21187451.2114                   21187449.8364
 -27779213.86347 -21629545.12446  20886902.2814                   20886900.8014
 -53885213.84047 -41970366.84144  22804306.5554                   22804305.5864
  -8193280.91847  -6368218.84845  22806080.9064                   22806081.7234
 -25984022.54746 -20229759.68442  24798270.1954                   24798272.8554
 -49253672.67248 -38361816.92946  20713869.5004                   20713865.8284
 11  8 18  1  6 30.0000000  0  9G12G30G17G10G05G04G25G09G02
 -33273664.64148 -25910923.77046  20785916.0634                   20785914.1914
 -10412577.52747  -8096923.88644  22306794.7194                   22306792.8134
 -68017032.96146 -52984109.14943  23992279.7664                   23992279.1764
 -40267755.31647 -31361466.69345  21182751.8134                   21182750.7734
 -27909369.05947 -21730964.72146  20862134.6254                   20862133.0234
 -53872789.45347 -41960685.54244  22806670.1644                   22806670.7974
  -8342318.57847  -6484352.08745  22777720.0004                   22777720.4414
 -25971949.54746 -20220352.37343  24800568.2034                   24800569.2814
 -49305451.66448 -38402164.19046  20704016.5234                   20704012.6054
 11  8 18  1  7  0.0000000  0  9G12G30G17G10G05G04G25G09G02
 -33364873.14848 -25981995.32046  20768559.6334                   20768557.5274
 -10550131.90247  -8204109.12744  22280618.3984                   22280617.2624
 -68020788.71146 -52987035.70943  23991565.0084                   23991564.5124
 -40291732.77747 -31380150.41045  21178189.3984                   21178188.1094
 -28038889.78148 -21831889.93346  20837487.9064                   20837486.0944
 -53860203.46947 -41950878.27844  22809065.4384                   22809065.1094
  -8490839.35247  -6600082.57545  22749457.3524                   22749458.1764
 -25959806.66246 -20210890.58443  24802878.5864                   24802881.0554
 -49356882.85248 -38442240.43546  20694229.0314                   20694225.4844
 11  8 18  1  7 30.0000000  0  8G12G30G17G10G05G04G25G02
 -33455373.54348 -26052515.10046  20751338.1644                   20751336.2424
 -10687060.34847  -8310806.62244  22254561.8284                   22254561.1214
 -68024215.51646 -52989705.95543  23990912.5314                   23990912.7274
 -40314996.69947 -31398278.12845  21173762.4064                   21173761.1294
 -28167774.13747 -21932319.26846  20812961.6644                   20812960.1724
 -53847457.19946 -41940946.12044  22811490.4534                   22811490.5084
  -8638840.80947  -6715408.37645  22721293.9534                   22721294.4694
 -49407967.60948 -38482046.72946  20684507.9224                   20684504.2274
 11  8 18  1  8  0.0000000  0  8G12G30G17G10G05G04G25G02
 -33545163.66848 -26122481.41146  20734251.3524                   20734249.7584
 -10823359.13347  -8417013.44244  22228625.1094                   22228624.2234
 -68027312.02746 -52992118.86743  23990323.2424                   23990323.6174
 -40337547.39547 -31415850.08745  21169471.1644                   21169469.7934
 -28296018.69547 -22032250.05246  20788557.8134                   20788556.1134
 -53834550.64846 -41930889.08643  22813945.9844                   22813946.6684
  -8786319.03547  -6830326.49345  22693229.0004                   22693230.1644
 -49458705.60947 -38521582.82246  20674853.0704                   20674849.5944
 11  8 18  1  8 30.0000000  0  8G12G30G17G10G05G04G25G02
 -33634230.50048 -26191884.12546  20717303.0164                   20717300.9494
 -10959013.98847  -8522718.50744  22202811.3204                   22202809.8914
 -68030066.36346 -52994265.08243  23989797.7584                   23989799.5664
 -40359374.73847 -31432858.39445  21165317.7274                   21165316.0274
 -28423609.77748 -22131671.64046  20764277.7584                   20764276.2974
 -53821473.08247 -41920698.79644  22816434.7814                   22816434.8244
  -8933259.60547  -6944825.62544  22665267.3914                   22665268.6214
 -49509086.15247 -38560840.39146  20665266.0944                   20665262.2544
 11  8 18  1  9  0.0000000  0  8G12G30G17G10G05G04G25G02
 -33722570.44148 -26260720.43846  20700492.4924                   20700490.2664
 -11094019.94147  -8627917.92944  22177119.8284                   22177118.8914
 -68032475.23846 -52996142.19243  23989340.3444                   23989340.6724
 -40380477.77347 -31449302.30645  21161301.6804                   21161300.5274
 -28550542.69548 -22230580.37646  20740123.2344                   20740121.9924
 -53808222.91447 -41910374.00143  22818957.3754                   22818956.5514
  -9079657.26647  -7058901.72445  22637408.9144                   22637409.7624
 -49559107.52747 -38599818.07146  20655747.0634                   20655743.4104
 11  8 18  1  9 30.0000000  0  8G12G30G17G10G05G04G25G02
 -33810181.33648 -26328988.65146  20683820.2734                   20683818.0904
 -11228373.61747  -8732609.07044  22151553.2664                   22151552.0434
 -68034537.77046 -52997749.42243  23988948.1254                   23988949.0824
 -40400857.50447 -31465182.59945  21157424.0704                   21157422.2464
 -28676814.26248 -22328973.77546  20716094.3834                   20716092.9884
 -53794800.27347 -41899914.88744  22821511.6254                   22821511.1604
  -9225508.36747  -7172551.91645  22609654.8444                   22609655.5594
 -49608769.93748 -38638516.05046  20646296.8674                   20646292.9104
 11  8 18  1 10  0.0000000  0  8G12G30G17G10G05G04G25G02
 -33897069.62148 -26396693.80046  20667286.0944                   20667284.0204
 -11362079.99247  -8836795.82244  22126109.6024                   22126108.7854
 -68036261.27046 -52999092.44143  23988620.6254                   23988620.5314
 -40420522.80947 -31480506.19345  21153681.3284                   21153679.9884
 -28802430.31648 -22426856.37646  20692190.6484                   20692189.0664
 -53781213.66047 -41889327.94244  22824097.3054                   22824096.9024
  -9370817.68747  -7285779.95844  22582002.7114                   22582003.8714
 -49658081.68048 -38676940.77546  20636913.3204                   20636909.4534
 11  8 18  1 10 30.0000000  0  8G12G30G17G10G05G04G25G02
 -33983238.41848 -26463838.30746  20650888.5234                   20650886.6134
 -11495140.90247  -8940479.59644  22100789.5784                   22100787.9184
 -68037649.09046 -53000173.89543  23988356.6024                   23988356.4344
 -40439479.73847 -31495277.80745  21150074.1884                   21150072.8674
 -28927392.55148 -22524229.51046  20668411.2584                   20668409.7034
 -53767468.19947 -41878617.22244  22826712.5634                   22826712.3404
  -9515586.62947  -7398586.90345  22554454.2584                   22554454.6334
 -49707048.16448 -38715096.46746  20627595.4844                   20627591.5354
 11  8 18  1 11  0.0000000  0  8G12G30G17G10G05G04G25G02
 -32493267.74248 -25302822.18646  20934420.6174                   20934418.7934
 -10052133.50447  -7816058.21744  22375384.6334                   22375382.8284
 -66463285.41046 -51773396.96643  24287947.6414                   24287948.1214
 -38882313.43447 -30281901.47145  21446392.6804                   21446391.7234
 -27476278.92648 -21393491.58946  20944548.9534                   20944547.3524
 -52178149.53147 -40640187.10544  23129149.8134                   23129150.1414
  -8084391.86747  -6283370.17945  22826801.0784                   22826802.1884
 -48180252.44947 -37525385.51846  20918134.4844                   20918130.8954
 11  8 18  1 11 30.0000000  0  8G12G30G17G10G05G04G25G02
 -32578000.43448 -25368847.63146  20918296.6254                   20918294.4184
 -10183902.50447  -7918735.30644  22350309.1644                   22350308.7704
 -66464007.96946 -51773960.03743  24287810.3284                   24287811.0634
 -38899865.12947 -30295578.09545  21443052.9304                   21443051.7664
 -27599934.12948 -21489846.25446  20921017.7274                   20921016.4064
 -52164095.72347 -40629236.10944  23131824.2974                   23131824.3984
  -8228078.51247  -6395333.74145  22799458.6414                   22799459.5984
 -48228537.07848 -37563009.89546  20908946.5474                   20908942.6174
 11  8 18  1 12  0.0000000  0  8G12G30G17G10G05G04G25G02
 -32662012.52348 -25434311.61046  20902309.6334                   20902307.3244
 -10315020.94147  -8020905.47044  22325358.3364                   22325357.6294
 -66464396.20346 -51774262.59043  24287735.9924                   24287737.0204
 -38916715.76647 -30308708.43645  21439846.5004                   21439845.3874
 -27722931.75848 -21585688.53646  20897612.1644                   20897610.6134
 -52149888.35247 -40618165.52944  23134527.7974                   23134527.8324
  -8371218.97747  -6506871.73345  22772220.0864                   22772221.0234
 -48276481.23048 -37600368.97046  20899822.7194                   20899819.2234
 11  8 18  1 12 30.0000000  0  8G12G30G17G10G05G04G25G02
 -32745310.50848 -25499219.11546  20886458.4774                   20886456.3984
 -10445493.95747  -8122572.71044  22300530.3674                   22300529.1914
 -66464457.45746 -51774310.30143  24287724.2274                   24287724.7234
 -38932874.58247 -30321299.72145  21436771.4774                   21436770.4804
 -27845277.41448 -21681022.78046  20874330.4694                   20874328.7344
 -52135535.50847 -40606981.47944  23137259.1024                   23137258.5784
  -8513818.03947  -6617987.84444  22745084.4774                   22745085.6724
 -48324093.28948 -37637469.25946  20890762.7344                   20890759.0164
 11  8 18  1 13  0.0000000  0  8G12G30G17G10G05G04G25G02
 -32827893.64848 -25563569.60046  20870743.6884                   20870741.4064
 -10575319.20747  -8223735.19745  22275825.0234                   22275824.2424
 -66464191.45346 -51774103.02343  24287775.6564                   24287775.3444
 -38948343.36747 -30333353.31145  21433827.6254                   21433826.5704
 -27966969.27348 -21775847.56646  20851173.2114                   20851171.7774
 -52121038.15646 -40595684.85944  23140018.4694                   23140016.7774
  -8655873.07847  -6728680.03445  22718052.1884                   22718053.3164
 -48371373.78147 -37674311.20346  20881765.3594                   20881761.5744
 11  8 18  1 13 30.0000000  0  8G12G30G17G10G05G04G25G02
 -32909760.12147 -25627361.65546  20855164.8204                   20855162.6094
 -10704493.57047  -8324390.50545  22251244.2274                   22251243.5004
 -66463597.33646 -51773640.14843  24287888.3914                   24287889.4774
 -38963123.56647 -30344870.34545  21431015.2274                   21431014.1174
 -28088004.27348 -21870160.53146  20828141.1644                   20828139.5274
 -52106396.63746 -40584275.92144  23142804.1484                   23142802.8874
  -8797380.65647  -6838945.61145  22691124.2814                   22691125.4964
 -48418323.52748 -37710895.41546  20872831.6254                   20872827.2304
 11  8 18  1 14  0.0000000  0  8G12G30G17G10G05G04G25G02
 -32990917.64848 -25690601.28746  20839721.1024                   20839719.0124
 -10833023.55147  -8424543.69244  22226785.9694                   22226785.1764
 -66462683.41046 -51772928.01443  24288063.6334                   24288063.0394
 -38977225.46547 -30355858.82045  21428331.5234                   21428330.2304
 -28208389.34448 -21963967.03346  20805232.4694                   20805231.0234
 -52091620.69546 -40572762.22444  23145615.4844                   23145615.4024
  -8938346.94947  -6948789.42645  22664299.0234                   22664299.8754
 -48464951.89148 -37747229.19846  20863957.9844                   20863954.5394
 11  8 18  1 14 30.0000000  0  8G12G30G17G10G05G04G25G02
 -33071362.25848 -25753285.39046  20824412.7974                   20824410.7974
 -10960903.82047  -8524190.59345  22202450.8674                   22202450.0274
 -66461446.69946 -51771964.34343  24288297.7424                   24288297.8324
 -38990647.94547 -30366317.87245  21425777.5864                   21425776.3874
 -28328119.83248 -22057263.48346  20782448.6334                   20782446.8524
 -52076708.21146 -40561142.12744  23148453.5394                   23148453.3524
  -9078766.39847  -7058207.13345  22637578.0864                   22637578.6254
 -48511257.00448 -37783311.09746  20855146.8284                   20855142.7384
 11  8 18  1 15  0.0000000  0  8G12G30G17G10G05G04G25G02
 -33151093.14148 -25815413.34546  20809240.5084                   20809238.8874
 -11088131.95347  -8623329.33645  22178240.0864                   22178238.7774
 -66459886.63346 -51770748.70343  24288594.7894                   24288595.5904
 -39003392.65247 -30376248.81245  21423352.0704                   21423351.0164
 -28447193.71148 -22150048.29446  20759789.3444                   20759788.0824
 -52061659.80946 -40549416.12044  23151317.2584                   23151316.9534
  -9218636.11747  -7167196.47845  22610962.2974                   22610962.5744
 -48557239.40248 -37819141.51846  20846396.5164                   20846392.6684
 11  8 18  1 15 30.0000000  0  8G12G30G17G10G05G04G25G02
 -33230113.20348 -25876987.41646  20794203.6954                   20794201.5744
 -11214709.68747  -8721961.28345  22154153.0234                   22154151.9224
 -66458007.03546 -51769284.10543  24288952.4224                   24288953.3014
 -39015465.81247 -30385656.46545  21421054.6484                   21421053.4924
 -28565613.01248 -22242323.03346  20737255.0004                   20737253.1884
 -52046480.52746 -40537588.11643  23154205.8524                   23154205.0634
  -9357957.62947  -7275758.64145  22584449.7034                   22584451.0474
 -48602904.04748 -37854724.35546  20837706.7194                   20837702.9734
 11  8 18  1 16  0.0000000  0  8G12G30G17G10G05G04G25G02
 -33308424.62548 -25938009.30346  20779301.7734                   20779299.2154
 -11340637.37947  -8820086.74544  22130189.8984                   22130188.1994
 -66455809.90246 -51767572.01643  24289370.2344                   24289371.9384
 -39026871.79347 -30394544.23745  21418884.4304                   21418882.8794
 -28683378.58648 -22334088.38446  20714844.9844                   20714843.7154
 -52031173.70346 -40525660.71844  23157118.2274                   23157117.8954
  -9496730.75447  -7383893.49945  22558042.1024                   22558043.2074
 -48648254.37948 -37890062.26346  20829076.5944                   20829073.1134
 11  8 18  1 16 30.0000000  0  8G12G30G17G10G05G04G25G02
 -33386028.45748 -25998479.82746  20764533.8984                   20764531.8874
 -11465914.72347  -8917705.40645  22106350.1254                   22106349.1414
 -66453297.32845 -51765614.19443  24289848.7194                   24289848.6524
 -39037614.45347 -30402915.13245  21416839.9384                   21416838.9774
 -28800490.33648 -22425344.26246  20692559.3984                   20692557.8364
 -52015741.99646 -40513635.99543  23160054.4614                   23160054.4224
  -9634954.99247  -7491600.63745  22531738.7344                   22531739.7894
 -48693293.48048 -37925157.67046  20820505.7584                   20820502.2544
 11  8 18  1 17  0.0000000  0  8G12G30G17G10G05G04G25G02
 -33462923.60547 -26058398.11646  20749901.5314                   20749899.1604
 -11590539.38747  -9014815.51145  22082635.3984                   22082634.2974
 -66450468.79346 -51763410.17543  24290386.7894                   24290387.1484
 -39047695.57447 -30410770.54045  21414921.6254                   21414920.6644
 -28916946.72348 -22516089.46146  20670398.4064                   20670396.9454
 -52000186.52346 -40501514.80743  23163014.2584                   23163014.7304
  -9772627.60547  -7598877.94845  22505540.1804                   22505541.4264
 -48738021.87947 -37960010.95746  20811994.3524                   20811990.8874
 11  8 18  1 17 30.0000000  0  9G12G30G17G10G05G04G25G29G02
 -33539113.69547 -26117767.01746  20735402.7274                   20735400.5944
 -11714513.54347  -9111418.73245  22059043.7504                   22059042.5704
 -66447328.65646 -51760963.29343  24290984.3524                   24290984.8834
 -39057121.38347 -30418115.31345  21413127.7814                   21413126.5864
 -29032750.36348 -22606326.02346  20648361.6954                   20648360.4654
 -51984512.23846 -40489301.11043  23165997.4774                   23165997.3444
  -9909750.37547  -7705726.81645  22479446.8444                   22479448.1484
  10813469.13356   8439066.39753  24613760.3284                   24613760.2304
 -48782444.89847 -37994626.28046  20803540.8524                   20803537.2424
 11  8 18  1 18  0.0000000  0  9G12G30G17G10G05G04G25G29G02
 -33614606.85247 -26176592.84646  20721036.4924                   20721034.6764
 -11837843.86747  -9207520.26845  22035574.5944                   22035573.0204
 -66443885.56246 -51758280.43343  24291639.7034                   24291640.4064
 -39065902.96547 -30424958.09245  21411456.3834                   21411455.2934
 -29147908.02048 -22696059.23146  20626448.2114                   20626446.3554
 -51968728.86746 -40477002.38043  23169001.1484                   23169001.0234
 -10046329.66447  -7812152.17645  22453456.4064                   22453457.3714
  10667239.53546   8325121.37944  24585934.2274                   24585933.5354
 -48826572.16847 -38029011.17746  20795143.6804                   20795140.0554
 11  8 18  1 18 30.0000000  0  9G12G30G17G10G05G04G25G29G02
 -33689413.58247 -26234883.79846  20706801.4774                   20706799.4454
 -11960539.53147  -9303127.26245  22012226.7274                   22012225.2504
 -66440150.68446 -51755370.15443  24292350.6804                   24292351.3554
 -39074052.98847 -30431308.75845  21409905.8754                   21409904.3954
 -29262429.37948 -22785296.61946  20604655.1334                   20604653.6294
 -51952848.34046 -40464627.95143  23172022.5394                   23172022.5744
 -10182374.04347  -7918160.74845  22427567.9614                   22427569.2344
  10521040.29746   8211200.04143  24558113.4614                   24558112.9224
 -48870415.91047 -38063175.10646  20786800.8984                   20786796.9064
 11  8 18  1 19  0.0000000  0  9G12G30G17G10G05G04G25G29G02
 -33763530.63347 -26292637.34146  20692697.4844                   20692695.8404
 -12082595.66047  -9398235.94045  21989000.1954                   21988998.6174
 -66436121.31246 -51752230.40743  24293117.4064                   24293117.6094
 -39081571.40647 -30437167.26045  21408475.1804                   21408474.1454
 -29376310.15648 -22874034.84246  20582984.3834                   20582982.7154
 -51936869.24246 -40452176.70343  23175063.7034                   23175063.1954
 -10317878.46947  -8023748.57945  22401781.9924                   22401783.5514
  10374874.57446   8097304.71543  24530298.4774                   24530298.5044
 -48913974.34847 -38097116.73646  20778511.7344                   20778508.3754
 11  8 18  1 19 30.0000000  0  9G12G30G17G10G05G04G25G29G02
 -33836958.93747 -26349854.20946  20678724.5944                   20678722.7934
 -12204012.03147  -9492846.07745  21965895.2664                   21965893.8404
 -66431798.77346 -51748862.21643  24293939.0234                   24293940.6254
 -39088462.11347 -30442536.64445  21407163.8204                   21407162.7464
 -29489550.57848 -22962274.10746  20561435.6334                   20561433.6994
 -51920793.92646 -40439650.48243  23178123.1254                   23178122.2704
 -10452842.20747  -8128915.08445  22376099.8054                   22376100.7544
  10228741.13346   7983434.61243  24502490.4454                   24502489.8754
 -48957250.46948 -38130838.38846  20770277.0164                   20770273.0634
 11  8 18  1 20  0.0000000  0  9G12G30G17G10G05G04G25G29G02
 -33909695.50847 -26406532.02946  20664883.0394                   20664881.3554
 -12324783.68447  -9586953.87245  21942912.9614                   21942911.5704
 -66427180.10546 -51745263.30343  24294818.3364                   24294819.2424
 -39094724.34047 -30447416.28845  21405972.6094                   21405971.1054
 -29602145.94148 -23050010.72046  20540009.2664                   20540007.5944
 -51904620.48846 -40427047.80244  23181201.0084                   23181201.2234
 -10587259.92247  -8233656.14345  22350521.0314                   22350521.8484
  10082643.91446   7869592.68043  24474688.2814                   24474688.2074
 -49000241.79747 -38164338.10646  20762095.8674                   20762092.0704
 11  8 18  1 20 30.0000000  0  9G12G30G17G10G05G04G25G29G02
 -33981741.72747 -26462671.94846  20651173.5634                   20651171.1564
 -12444910.43447  -9680559.16345  21920053.5944                   21920052.0634
 -66422267.07446 -51741434.96543  24295753.1174                   24295754.1604
 -39100361.98847 -30451809.26545  21404899.8364                   21404898.1954
 -29714096.59048 -23137244.95646  20518705.7274                   20518703.9964
 -51888351.48046 -40414370.65944  23184297.1724                   23184296.9844
 -10721131.00047  -8337971.24545  22325046.2814                   22325047.3014
   9936581.70746   7755778.04543  24446893.9454                   24446893.4224
 -49042951.63747 -38197618.48046  20753968.0474                   20753964.3674
 11  8 18  1 21  0.0000000  0  9G12G30G17G10G05G04G25G29G02
 -34053093.80547 -26518270.96646  20637595.5234                   20637593.5354
 -12564387.30947  -9773658.01645  21897317.6884                   21897316.4344
 -66417056.59846 -51737374.85643  24296745.5004                   24296745.8324
 -39105374.37147 -30455714.99745  21403945.2814                   21403944.4454
 -29825398.06648 -23223973.34946  20497525.8204                   20497523.7774
 -51871984.88346 -40401617.48243  23187411.4304                   23187411.2704
 -10854450.08647  -8441856.23745  22299676.2814                   22299676.9614
   9790557.99646   7641993.31543  24419106.1334                   24419105.2384
 -49085377.53947 -38230677.61446  20745894.8754                   20745891.3284
 11  8 18  1 21 30.0000000  0  9G12G30G17G10G05G04G25G29G02
 -34123753.24647 -26573330.26746  20624149.5084                   20624147.8834
 -12683214.33647  -9866250.51645  21874705.7504                   21874704.5044
 -66411550.77346 -51733084.61943  24297792.7274                   24297793.4024
 -39109765.40647 -30459136.58645  21403109.7584                   21403108.8754
 -29936050.97748 -23310196.35446  20476469.3054                   20476467.4734
 -51855523.39846 -40388790.35043  23190543.4774                   23190543.2344
 -10987216.70747  -8545310.73345  22274411.6094                   22274412.3984
   9644571.66846   7528237.77843  24391326.0784                   24391325.3364
 -49127522.61747 -38263517.92046  20737874.8444                   20737871.3714
 11  8 18  1 22  0.0000000  0  9G12G30G17G10G05G04G25G29G02
 -34193719.30547 -26627849.28246  20610835.6254                   20610833.4024
 -12801389.47747  -9958335.02345  21852218.0704                   21852216.6454
 -66405749.09046 -51728563.87843  24298896.7584                   24298898.0274
 -39113537.27747 -30462075.69445  21402392.2974                   21402390.8594
 -30046053.62148 -23395912.67546  20455536.5004                   20455534.6254
 -51838967.72746 -40375889.88343  23193693.6024                   23193693.6334
 -11119428.38347  -8648332.80245  22249252.6724                   22249253.4774
   9498623.32046   7414511.77043  24363552.8524                   24363551.9804
 -49169387.91047 -38296140.22746  20729908.3524                   20729904.2854
 11  8 18  1 22 30.0000000  0  9G12G30G17G10G05G04G25G29G02
 -32687573.00048 -25454228.77846  20897445.5004                   20897443.1524
 -11343490.40647  -8822309.78645  22129646.8594                   22129645.7194
 -64824235.59846 -50496215.73743  24599849.1094                   24599849.4694
 -37541275.65247 -29236936.78745  21701583.4304                   21701582.4104
 -28579984.08248 -22253520.79246  20734519.9384                   20734518.5704
 -50246902.82046 -39135319.87243  23496653.9844                   23496653.4534
  -9675661.80147  -7523319.89445  22523992.5004                   22523993.3164
  10928135.22746   8528417.30043  24635580.1724                   24635580.2424
 -47635556.10548 -37100946.60946  21021786.8444                   21021783.0234
 11  8 18  1 23  0.0000000  0  9G12G30G17G10G05G04G25G29G02
 -32756150.56647 -25507665.85246  20884395.7194                   20884393.3204
 -11460354.68747  -8913372.84245  22107408.7734                   22107407.1644
 -64817841.64546 -50491233.41643  24601066.5634                   24601066.1684
 -37543814.77047 -29238915.28945  21701100.9534                   21701099.2934
 -28688680.27748 -22338219.09146  20713835.7424                   20713834.1564
 -50230160.18446 -39122273.63043  23499840.1254                   23499840.0704
  -9806755.18047  -7625470.56045  22499045.8754                   22499047.0904
  10782266.69546   8414753.59743  24607822.0004                   24607822.3284
 -47676862.64147 -37133133.49946  21013926.0864                   21013922.4304
 11  8 18  1 23 30.0000000  0  9G12G30G17G10G05G04G25G29G02
 -32824035.78148 -25560563.43246  20871477.4304                   20871475.6334
 -11576563.52347  -9003925.16445  22085294.9144                   22085293.2774
 -64811154.19546 -50486022.47043  24602337.9064                   24602339.0784
 -37545743.70747 -29240418.35345  21700733.6804                   21700732.2624
 -28796723.98848 -22422408.96446  20693275.8594                   20693274.1414
 -50213327.92646 -39109157.63443  23503042.6804                   23503043.4024
  -9937288.66047  -7727184.95245  22474206.8754                   22474207.4024
  10636436.25045   8301119.54543  24580071.2734                   24580070.4804
 -47717893.89547 -37165105.90546  21006118.6024                   21006114.4304
 11  8 18  1 24  0.0000000  0  9G12G30G17G10G05G04G25G29G02
 -32891228.50847 -25612921.40846  20858691.2034                   20858689.1254
 -11692114.89547  -9093965.17245  22063306.1954                   22063304.3754
 -64804172.74246 -50480582.38543  24603667.3524                   24603667.5784
 -37547064.22347 -29241447.31645  21700482.1724                   21700480.8164
 -28904113.81248 -22506089.31046  20672839.9924                   20672838.1054
 -50196406.84446 -39095972.39143  23506263.9924                   23506263.2974
 -10067259.75447  -7828461.12945  22449473.7274                   22449474.7894
  10490644.83246   8187515.97043  24552327.2194                   24552327.1484
 -47758650.80947 -37196864.53346  20998362.8674                   20998358.8244
 11  8 18  1 24 30.0000000  0  9G12G30G17G10G05G04G25G29G02
 -32957727.39847 -25664738.71846  20846037.1254                   20846034.9964
 -11807006.14147  -9183490.77745  22041442.6254                   22041441.3404
 -64796896.85546 -50474912.84043  24605052.7194                   24605052.5554
 -37547777.95347 -29242003.46845  21700346.3204                   21700344.9534
 -29010847.34448 -22589258.26346  20652529.2664                   20652527.6454
 -50179396.76646 -39082717.82043  23509500.4844                   23509500.7734
 -10196665.38347  -7929296.66545  22424848.6174                   22424849.5824
  10344893.97746   8073943.86443  24524592.4384                   24524592.0434
 -47799133.37148 -37228409.38946  20990658.8134                   20990655.1024
 11  8 18  1 25  0.0000000  0  8G12G30G10G05G04G25G29G02
 -33023533.43447 -25716016.15046  20833514.4304                   20833512.1844
 -11921236.66047  -9272501.53845  22019705.3674                   22019703.2544
 -37547888.46147 -29242089.56445  21700324.4534                   21700324.3094
 -29116924.56648 -22671915.80346  20632343.4534                   20632341.6254
 -50162299.93046 -39069395.62543  23512753.7584                   23512753.9264
 -10325504.43047  -8029690.70545  22400331.4144                   22400331.9654
  10199183.13746   7960403.05843  24496865.0314                   24496864.7814
 -47839344.02347 -37259742.35146  20983007.5864                   20983003.4454
 11  8 18  1 25 30.0000000  0  8G12G30G10G05G04G25G29G02
 -33088644.75047 -25766752.24546  20821123.8674                   20821121.7854
 -12034803.11747  -9360994.83945  21998094.5004                   21998093.0554
 -37547396.45747 -29241706.18445  21700419.2814                   21700417.3014
 -29222342.59848 -22754059.70246  20612282.4694                   20612281.5124
 -50145115.42646 -39056005.06243  23516023.8444                   23516023.7464
 -10453772.93047  -8129640.17045  22375922.8914                   22375923.6134
  10053514.89547   7846895.32744  24469145.3054                   24469145.4184
 -47879282.06647 -37290862.90846  20975407.1884                   20975403.1134
 11  8 18  1 26  0.0000000  0  8G12G30G10G05G04G25G29G02
 -33153052.27347 -25816939.92946  20808867.6334                   20808865.8754
 -12147695.10947  -9448962.56645  21976611.7424                   21976610.1764
 -37546295.40647 -29240848.20245  21700628.5004                   21700627.1564
 -29327091.52048 -22835682.19146  20592349.7194                   20592348.4024
 -50127835.11746 -39042539.89643  23519311.3984                   23519311.7584
 -10581460.08647  -8229136.62445  22351624.3834                   22351625.2544
   9907898.50446   7733428.08044  24441435.0004                   24441434.9574
 -47918939.05148 -37321764.44946  20967860.7344                   20967856.6994
 11  8 18  1 26 30.0000000  0  8G12G30G10G05G04G25G29G02
 -33216751.41047 -25866575.60646  20796746.3674                   20796744.2934
 -12259906.16847  -9536399.70345  21955258.5234                   21955257.1214
 -37544583.46147 -29239514.21045  21700954.4454                   21700952.9494
 -29431165.28948 -22916778.60246  20572544.8284                   20572543.6174
 -50110455.36746 -39028997.18043  23522618.9924                   23522619.6524
 -10708558.89847  -8328174.61845  22327438.5234                   22327439.2704
   9762339.42646   7620005.49243  24413735.6024                   24413736.5314
 -47958311.68447 -37352444.41746  20960368.3834                   20960364.5234
 11  8 18  1 27  0.0000000  0  8G12G30G10G05G04G25G29G02
 -33279742.67648 -25915659.70546  20784759.4384                   20784757.3484
 -12371435.21947  -9623305.41845  21934035.1414                   21934034.1054
 -37542263.50047 -29237706.44345  21701395.8054                   21701394.7114
 -29534563.27048 -22997348.42446  20552869.4304                   20552867.8324
 -50092977.41846 -39015377.98943  23525945.5634                   23525945.1294
 -10835067.80947  -8426752.96945  22303364.8754                   22303365.3754
   9616837.84446   7506627.70743  24386047.9454                   24386047.1484
 -47997401.52348 -37382904.02646  20952929.9844                   20952925.7734
 11  8 18  1 27 30.0000000  0  8G12G30G10G05G04G25G29G02
 -33342029.53548 -25964194.92046  20772906.4774                   20772904.4884
 -12482284.29347  -9709681.28045  21912941.4844                   21912940.0004
 -37539341.38747 -29235429.48245  21701951.8754                   21701950.4304
 -29637288.03548 -23077393.66346  20533321.5004                   20533319.8324
 -50075405.71146 -39001685.76243  23529288.6024                   23529288.5864
 -10960988.18047  -8524872.70645  22279402.6724                   22279403.4924
   9471390.87946   7393292.56944  24358369.8134                   24358369.0634
 -48036212.99247 -37413146.71146  20945544.3134                   20945540.1994
 11  8 18  1 28  0.0000000  0  8G12G30G10G05G04G25G29G02
 -33403619.12948 -26012186.80046  20761186.1804                   20761184.7034
 -12592458.98047  -9795531.64345  21891975.6254                   21891974.2814
 -37535826.98047 -29232690.97145  21702620.5314                   21702619.4924
 -29739345.75048 -23156919.11646  20513900.4454                   20513899.2074
 -50057748.21946 -38987926.65443  23532648.5234                   23532648.7734
 -11086325.14847  -8622537.83245  22255551.8204                   22255552.7194
   9325992.21946   7279994.96944  24330701.8524                   24330701.3324
 -48074754.35547 -37443178.93846  20938210.0314                   20938206.3444
 11  8 18  1 28 30.0000000  0  8G12G30G10G05G04G25G29G02
 -33464511.58248 -26059635.46146  20749599.2034                   20749597.2384
 -12701957.82447  -9880855.38045  21871138.8594                   21871137.1914
 -37531722.75847 -29229492.89145  21703401.3914                   21703400.6094
 -29840735.24648 -23235923.89146  20494606.7504                   20494605.1254
 -50040005.86346 -38974101.39843  23536024.8284                   23536024.7074
 -11211076.60947  -8719746.71945  22231812.1484                   22231813.1844
   9180642.47746   7166735.48343  24303042.3204                   24303041.8094
 -48113026.75448 -37473001.57346  20930926.9534                   20930922.9964
 11  8 18  1 29  0.0000000  0  8G12G30G10G05G04G25G29G02
 -33524705.35948 -26106539.69346  20738145.0474                   20738142.3674
 -12810777.67247  -9965650.01745  21850431.1024                   21850429.7114
 -37527029.80147 -29225836.04845  21704294.8524                   21704293.4534
 -29941454.00448 -23314406.00546  20475440.7734                   20475439.2154
 -50022177.83646 -38960209.39043  23539417.7894                   23539416.6524
 -11335239.06247  -8816496.63245  22208184.8674                   22208185.7774
   9035343.74646   7053515.68843  24275393.1334                   24275393.1294
 -48151029.68448 -37502614.22946  20923695.1954                   20923691.5984
 11  8 18  1 29 30.0000000  0  8G12G30G10G05G04G25G29G02
 -33584203.81648 -26152902.11846  20726822.6254                   20726820.0354
 -12918920.51647 -10049917.14745  21829852.1644                   21829850.6484
 -37521753.93047 -29221724.98845  21705298.7194                   21705297.1844
 -30041504.42648 -23392367.33746  20456401.5944                   20456399.7624
 -50004268.44546 -38946253.99843  23542825.6414                   23542825.2194
 -11458813.75847  -8912788.55745  22184669.3834                   22184669.7584
   8890093.18046   6940333.46243  24247752.7814                   24247753.1764
 -48188767.14548 -37532020.04346  20916513.9694                   20916510.3634
 11  8 18  1 30  0.0000000  0  8G12G30G10G05G04G25G29G02
 -33643015.68447 -26198729.53646  20715630.5864                   20715628.7304
 -13026393.34847 -10133662.19045  21809400.6884                   21809398.7774
 -37515906.04747 -29217168.18645  21706411.3914                   21706410.3554
 -30140893.96148 -23469813.68446  20437488.1484                   20437486.5084
 -49986287.02746 -38932242.50543  23546247.7734                   23546247.0944
 -11581807.25047  -9008627.59345  22161264.6644                   22161265.5594
   8744883.10246   6827182.79443  24220120.8364                   24220120.5394
 -48226248.69947 -37561226.43346  20909381.6094                   20909377.9144
 11  8 18  1 30 30.0000000  0  8G12G30G10G05G04G25G29G02
 -33701138.53948 -26244020.06046  20704570.5864                   20704568.5634
 -13133192.33647 -10216882.17845  21789077.6414                   21789076.1134
 -37509486.71147 -29212166.09945  21707633.3754                   21707632.0164
 -30239619.40647 -23546742.57346  20418701.6094                   20418700.1094
 -49968231.83647 -38918173.44344  23549683.8204                   23549682.8954
 -11704215.02747  -9104010.25445  22137970.9534                   22137971.7154
   8599716.85246   6714066.30443  24192495.8444                   24192495.8054
 -48263473.01647 -37590232.39246  20902297.9144                   20902294.3594
 11  8 18  1 31  0.0000000  0  8G12G30G10G05G04G25G29G02
 -33758573.16848 -26288774.30746  20693641.0234                   20693639.0664
 -13239316.52747 -10299576.31845  21768882.6484                   21768881.2194
 -37502498.94147 -29206721.08445  21708962.5634                   21708961.2734
 -30337680.21147 -23623153.56146  20400041.0634                   20400039.2624
 -49950104.30947 -38904048.13444  23553132.9774                   23553132.2704
 -11826035.60547  -9198935.34545  22114788.9384                   22114790.2894
   8454594.60246   6600984.11044  24164879.8364                   24164879.5824
 -48300441.77347 -37619039.21446  20895263.0784                   20895259.1914
 11  8 18  1 31 30.0000000  0  8G12G30G10G05G04G25G29G02
 -33815316.39847 -26332989.80746  20682843.1644                   20682841.2504
 -13344761.39147 -10381741.12245  21748816.7504                   21748815.7814
 -37494941.77347 -29200832.36445  21710400.7114                   21710399.5664
 -30435071.93047 -23699043.17446  20381508.0314                   20381506.4494
 -49931901.85947 -38889864.43443  23556596.3284                   23556595.7114
 -11947263.82047  -9293398.84645  22091720.5474                   22091721.2584
   8309520.22746   6487939.15743  24137273.3984                   24137271.3594
 -48337152.59047 -37647645.04046  20888277.4304                   20888273.4024
 11  8 18  1 32  0.0000000  0  8G12G30G10G05G04G25G29G02
 -33871377.81247 -26376674.01946  20672175.1484                   20672172.8984
 -13449534.77747 -10463382.71645  21728879.4774                   21728878.0784
 -37486827.12147 -29194509.24045  21711944.4454                   21711943.6684
 -30531803.61348 -23774418.48346  20363100.4454                   20363099.1994
 -49913634.77047 -38875630.30143  23560072.5784                   23560072.8244
 -12067906.96147  -9387406.45445  22068762.5784                   22068763.3674
   8164485.41846   6374925.06543  24109675.0234                   24109672.1724
 -48373615.55948 -37676057.73746  20881338.7344                   20881334.5634
 11  8 18  1 32 30.0000000  0  8G12G30G10G05G04G25G29G02
 -33926757.36348 -26419826.91746  20661636.5164                   20661634.8284
 -13553634.81647 -10544499.64545  21709069.8754                   21709068.6174
 -37478157.34047 -29187753.58945  21713595.0164                   21713593.5204
 -30627873.56248 -23849278.14746  20344818.8914                   20344817.5554
 -49895303.01247 -38861345.81543  23563561.7034                   23563561.1094
 -12187962.53947  -9480956.24345  22045917.5164                   22045917.7974
   8019491.08246   6261942.58443  24082082.8204                   24082080.6024
 -48409831.27348 -37704277.77646  20874447.1954                   20874443.1644
 11  8 18  1 33  0.0000000  0  8G12G30G10G05G04G25G29G02
 -33981455.57448 -26462448.89146  20651228.0394                   20651225.5554
 -13657060.71147 -10625091.22545  21689388.8674                   21689387.1954
 -37468935.52747 -29180567.73644  21715349.2194                   21715348.0164
 -30723281.43447 -23923621.90946  20326663.3444                   20326661.8284
 -49876908.03547 -38847012.09943  23567061.8204                   23567060.8984
 -12307429.16847  -9574047.08645  22023183.1724                   22023184.0744
   7874537.73046   6148991.90843  24054498.9224                   24054496.6804
 -48445800.96947 -37732306.10246  20867602.2664                   20867598.5044
 11  8 18  1 33 30.0000000  0  8G12G30G10G05G04G25G29G02
 -34035475.73048 -26504542.52146  20640948.2274                   20640946.3134
 -13759814.06647 -10705158.76345  21669835.3204                   21669833.9104
 -37459167.12147 -29172955.95745  21717207.9064                   21717206.8594
 -30818029.57847 -23997451.59746  20308633.4304                   20308631.8954
 -49858453.21946 -38832631.73243  23570573.6254                   23570572.6884
 -12426307.76247  -9666679.73045  22000561.3754                   22000562.0394
   7729623.40646   6036071.72943  24026922.3364                   24026921.2274
 -48481528.64847 -37760145.84346  20860803.3134                   20860799.5554
 11  8 18  1 34  0.0000000  0  8G12G30G10G05G04G25G29G02
 -34088818.03548 -26546107.96846  20630797.4694                   20630795.0984
 -13861893.41447 -10784701.11645  21650410.3284                   21650409.1684
 -37448854.91047 -29164920.46945  21719170.8984                   21719168.9844
 -30912116.69547 -24070766.20046  20290729.2034                   20290727.4694
 -49839939.32846 -38818205.37243  23574096.4924                   23574096.1604
 -12544596.30147  -9758852.60745  21978051.6954                   21978052.5354
   7584748.86346   5923182.50344  23999353.0474                   23999354.3524
 -48517015.12147 -37787797.62646  20854050.3674                   20854046.6374
 11  8 18  1 34 30.0000000  0  8G12G30G10G05G04G25G29G02
 -34141480.07848 -26587143.32846  20620776.0864                   20620774.1414
 -13963295.20347 -10863715.50245  21631114.2664                   21631112.8524
 -37437998.68747 -29156461.07145  21721237.1334                   21721234.9024
 -31005539.86348 -24143563.44446  20272951.4064                   20272949.9414
 -49821364.77046 -38803731.69243  23577631.5234                   23577630.8444
 -12662290.53547  -9850562.40145  21955655.3444                   21955655.7544
   7439917.36346   5810326.83143  23971792.9924                   23971793.1954
 -48552258.89847 -37815260.29046  20847343.7504                   20847340.2154
 11  8 18  1 35  0.0000000  0  8G12G30G10G05G04G25G29G02
 -32618047.95348 -25400053.37746  20910675.5004                   20910674.0474
 -12488601.60547  -9714603.59445  21911738.9774                   21911737.5704
 -35851188.62947 -27919985.68245  22023196.5864                   22023195.0904
 -29522882.00048 -22988245.59246  20555091.8524                   20555090.2544
 -48227317.50046 -37561616.98943  23880967.6254                   23880968.0944
 -11203971.47747  -8714209.87045  22233164.4304                   22233164.8054
   8870547.82846   6925103.89343  24244033.0394                   24244032.7934
 -47011846.52747 -36614938.95846  21140474.6094                   21140470.4614
 11  8 18  1 35 30.0000000  0  8G12G30G10G05G04G25G29G02
 -32669354.55548 -25440032.55746  20900912.7114                   20900910.5314
 -12588647.64847  -9792561.54845  21892700.6334                   21892699.6214
 -35839256.09047 -27910687.58745  22025467.2344                   22025465.7304
 -29614977.96548 -23060008.66346  20537566.5164                   20537564.8054
 -48208626.50846 -37547052.62843  23884524.2734                   23884524.5594
 -11320474.59847  -8804991.53445  22210994.1484                   22210994.8554
   8725801.92646   6812314.94643  24216488.6884                   24216488.3284
 -47046610.70748 -36642027.92146  21133859.1254                   21133855.3914
 11  8 18  1 36  0.0000000  0  8G12G30G10G05G04G25G29G02
 -32719988.49248 -25479487.59046  20891277.2504                   20891274.8954
 -12688018.52347  -9869993.40045  21873791.0004                   21873789.7384
 -35826793.74647 -27900976.67344  22027838.7584                   22027837.3164
 -29706413.85547 -23131257.37346  20520167.0084                   20520165.1024
 -48189882.94546 -37532447.19743  23888092.0634                   23888091.4344
 -11436383.82847  -8895310.39745  22188937.4454                   22188938.5784
   8581095.55946   6699556.77343  24188951.7504                   24188950.2584
 -47081141.05147 -36668934.67346  21127288.1024                   21127284.2504
 11  8 18  1 36 30.0000000  0  8G12G30G10G05G04G25G29G02
 -32769950.62948 -25518419.14246  20881769.5394                   20881767.2194
 -12786713.56647  -9946898.63045  21855010.1954                   21855009.1884
 -35813805.09847 -27890855.63945  22030310.3594                   22030308.8164
 -29797189.72748 -23201991.78746  20502892.8984                   20502890.9184
 -48171087.99246 -37517801.86643  23891668.4694                   23891667.6294
 -11551697.95747  -8985165.57345  22166993.7504                   22166994.4774
   8436428.93447   6586829.56543  24161423.2584                   24161422.0434
 -47115438.91847 -36695660.25546  21120761.3134                   21120758.0784
 11  8 18  1 37  0.0000000  0  8G12G30G10G05G04G25G29G02
 -32819244.34048 -25556829.83646  20872389.2424                   20872387.1484
 -12884734.57047 -10023278.63845  21836357.3834                   21836356.2974
 -35800295.46147 -27880328.66045  22032881.4064                   22032879.8554
 -29887307.43048 -23272213.34646  20485744.0864                   20485742.4184
 -48152244.98046 -37503119.10943  23895254.2194                   23895253.9494
 -11666417.94948  -9074557.77345  22145163.7274                   22145164.3794
   8291800.22746   6474131.93644  24133901.7274                   24133900.0904
 -47149508.12947 -36722207.68846  21114277.9924                   21114274.6484
 11  8 18  1 37 30.0000000  0  8G12G30G10G05G04G25G29G02
 -32867868.33248 -25594718.67546  20863136.8364                   20863134.6954
 -12982078.78147 -10099131.27545  21817833.3444                   21817832.6214
 -35786266.12147 -27869396.68844  22035550.5474                   22035549.2234
 -29976764.98048 -23341920.49646  20468720.6414                   20468718.8954
 -48133353.12146 -37488398.18443  23898849.1024                   23898848.9734
 -11780540.47348  -9163484.40245  22123446.8134                   22123447.5904
   8147211.75446   6361465.64244  24106386.7274                   24106386.1604
 -47183347.84847 -36748576.29346  21107838.9534                   21107835.3954
 11  8 18  1 38  0.0000000  0  8G12G30G10G05G04G25G29G02
 -32915823.09448 -25632086.04546  20854011.0314                   20854009.0634
 -13078744.85247 -10174455.48545  21799438.5164                   21799437.5474
 -35771719.27047 -27858061.50744  22038318.6094                   22038317.6764
 -30065561.52348 -23411112.57946  20451823.4454                   20451821.3324
 -48114412.84846 -37473639.57243  23902453.0864                   23902453.6374
 -11894063.40248  -9251943.85145  22101844.1334                   22101845.1454
   8002664.74646   6248831.72344  24078880.3524                   24078879.7854
 -47216958.67647 -36774766.54646  21101442.7424                   21101439.0824
 11  8 18  1 38 30.0000000  0  8G12G30G10G05G04G25G29G02
 -32963108.35948 -25668931.71446  20845012.8444                   20845010.7504
 -13174731.10247 -10249249.97845  21781173.1484                   21781171.6294
 -35756657.15647 -27846324.79244  22041185.0164                   22041183.8554
 -30153695.74248 -23479788.57646  20435051.6484                   20435050.0474
 -48095424.10946 -37458843.13343  23906066.5704                   23906067.3714
 -12006984.42647  -9339934.23445  22080356.2114                   22080356.8714
   7858160.44146   6136231.05844  24051381.7274                   24051381.5314
 -47250341.10947 -36800778.81446  21095090.7194                   21095086.5274
 11  8 18  1 39  0.0000000  0  8G12G30G10G05G04G25G29G02
 -33009730.56648 -25705260.71846  20836141.1804                   20836139.0044
 -13270041.91047 -10323518.13445  21763036.2584                   21763035.0864
 -35741088.25447 -27834193.17644  22044148.1254                   22044146.1334
 -30241172.45748 -23547952.22046  20418405.4384                   20418403.7074
 -48076392.87546 -37444013.52843  23909688.2814                   23909688.7854
 -12119307.17248  -9427458.45245  22058981.6644                   22058981.9224
   7713694.66446   6023660.30644  24023890.7424                   24023890.2154
 -47283501.13747 -36826617.77746  21088780.6414                   21088776.5744
 11  8 18  1 39 30.0000000  0  8G12G30G10G05G04G25G29G02
 -33055687.20348 -25741071.08546  20827395.7344                   20827393.7464
 -13364673.52747 -10397257.07145  21745028.3674                   21745026.9104
 -35725012.21547 -27821666.38045  22047207.2734                   22047205.1884
 -30327988.71148 -23615601.21746  20401885.0314                   20401883.2274
 -48057317.09846 -37429149.36143  23913319.1414                   23913318.5474
 -12231027.22747  -9514513.03145  22037721.7974                   22037722.6764
   7569271.01646   5911122.40644  23996408.2664                   23996406.6764
 -47316436.94947 -36852282.02946  21082512.6094                   21082509.0904
 11  8 18  1 40  0.0000000  0  8G12G30G10G05G04G25G29G02
 -33100980.02747 -25776364.18646  20818776.8984                   20818775.2814
 -13458626.63747 -10470467.29745  21727149.8054                   21727147.9534
 -35708433.37947 -27808747.81444  22050362.0394                   22050360.4494
 -30414145.32048 -23682736.21346  20385489.7894                   20385488.3094
 -48038198.97746 -37414252.08443  23916956.9534                   23916956.2934
 -12342144.56248  -9601097.95345  22016577.0704                   22016577.4734
   7424888.58746   5798616.67544  23968933.4064                   23968931.9844
 -47349151.05547 -36877773.53846  21076287.2274                   21076283.6094
 11  8 18  1 40 30.0000000  0  8G12G30G10G05G04G25G29G02
 -33145612.92648 -25811143.08346  20810283.2664                   20810281.4964
 -13551902.59447 -10543149.84545  21709399.6094                   21709398.1054
 -35691357.00047 -27795441.50944  22053611.2194                   22053610.0554
 -30499644.46548 -23749358.89546  20369219.9924                   20369217.9104
 -48019041.37146 -37399324.03543  23920602.6804                   23920601.1764
 -12452659.74648  -9687213.68745  21995546.8754                   21995547.4574
   7280546.58646   5686142.41044  23941465.6954                   23941465.2774
 -47381646.72347 -36903094.81046  21070103.7504                   21070099.9304
 11  8 18  1 41  0.0000000  0  8G12G30G10G05G04G25G29G02
 -33189585.89148 -25845407.72746  20801915.9454                   20801913.6294
 -13644499.94947 -10615303.63845  21691778.3524                   21691777.1484
 -35673785.36347 -27781749.30744  22056955.2424                   22056953.5514
 -30584485.04748 -23815468.40946  20353075.3054                   20353073.2384
 -47999844.41846 -37384365.36043  23924255.5314                   23924254.7234
 -12562570.65648  -9772858.53845  21974631.4304                   21974631.9024
   7136245.86346   5573700.30344  23914006.2584                   23914005.6804
 -47413924.03547 -36928245.94946  21063961.9774                   21063957.8714
 11  8 18  1 41 30.0000000  0  8G12G30G10G05G04G25G29G02
 -33232899.56648 -25879158.63246  20793673.6414                   20793671.1764
 -13736417.95347 -10686928.04045  21674287.4224                   21674286.0314
 -35655721.28147 -27767673.39644  22060392.7194                   22060390.8594
 -30668666.80948 -23881064.54546  20337056.1484                   20337054.1604
 -47980608.89846 -37369376.62543  23927916.1174                   23927914.8674
 -12671875.76648  -9858031.33945  21953831.2344                   21953831.9534
   6991987.67646   5461291.32643  23886554.5234                   23886554.1374
 -47445984.40248 -36953228.05846  21057860.6414                   21057857.0084
 11  8 18  1 42  0.0000000  0  8G12G30G10G05G04G25G29G02
 -33275554.86748 -25912396.52546  20785556.1564                   20785554.1334
 -13827656.70347 -10758023.17745  21656925.1174                   21656923.9614
 -35637168.50047 -27753216.68544  22063923.5084                   22063921.5944
 -30752190.29748 -23946147.75946  20321161.8984                   20321159.9734
 -47961336.44546 -37354359.02543  23931582.7344                   23931582.4414
 -12780574.45748  -9942731.59445  21933146.7894                   21933147.4224
   6847771.89146   5348915.37143  23859110.8134                   23859110.0474
 -47477829.27347 -36978042.23546  21051800.7344                   21051797.1914
 11  8 18  1 42 30.0000000  0  8G12G30G10G05G04G25G29G02
 -33317554.28947 -25945123.33646  20777564.4064                   20777562.1764
 -13918216.06647 -10828588.91145  21639692.2114                   21639691.0164
 -35618130.63747 -27738381.95744  22067545.6724                   22067544.5704
 -30835055.88348 -24010718.32246  20305393.3674                   20305391.3794
 -47942028.17246 -37339313.59443  23935257.7504                   23935256.6684
 -12888665.84447 -10026958.63045  21912577.5944                   21912578.2774
   6703598.69946   5236572.59943  23831675.5004                   23831674.2774
 -47509460.16447 -37002689.67546  21045781.5474                   21045777.8914
 11  8 18  1 43  0.0000000  0  8G12G30G10G05G04G25G29G02
 -33358902.09048 -25977342.39846  20769695.9224                   20769694.3554
 -14008098.51247 -10898627.18145  21622588.6414                   21622586.9144
 -35598613.64847 -27723173.90044  22071259.8754                   22071258.7384
 -30917266.51648 -24074778.53246  20289749.0704                   20289746.9774
 -47922688.14146 -37324243.38043  23938937.6094                   23938937.3594
 -12996151.66848 -10110713.81245  21892123.7504                   21892124.0944
   6559465.58646   5124261.04743  23804247.9694                   23804247.1214
 -47540881.36747 -37027173.73546  21039802.2664                   21039798.7074
 11  8 18  1 43 30.0000000  0  8G12G30G10G05G04G25G29G02
 -33399599.70348 -26009054.80946  20761951.4304                   20761949.5554
 -14097304.23047 -10968138.10045  21605612.8674                   21605611.8054
 -35578621.39147 -27707595.51144  22075063.7584                   22075062.8554
 -30998822.88748 -24138328.93546  20274229.2274                   20274227.2854
 -47903317.63746 -37309149.45943  23942623.4534                   23942623.6684
 -13103031.27048 -10193996.59845  21871784.5164                   21871785.8404
   6415372.71146   5011980.89744  23776829.0634                   23776827.8674
 -47572094.82447 -37051495.89946  21033862.4924                   21033858.6684
 11  8 18  1 44  0.0000000  0  8G12G30G10G05G04G25G29G02
 -33439647.65248 -26040260.99846  20754330.8674                   20754328.3914
 -14185832.09847 -11037120.82245  21588767.0944                   21588765.3014
 -35558156.23447 -27691648.63344  22078958.6484                   22078956.9614
 -31079724.65248 -24201369.24246  20258834.3134                   20258832.5044
 -47883917.18045 -37294032.23843  23946314.5704                   23946314.8594
 -13209302.87948 -10276805.61745  21851562.1564                   21851562.7114
   6271321.36746   4899733.12043  23749416.2424                   23749416.0824
 -47603100.64847 -37075656.27746  21027962.7504                   21027958.4774
 11  8 18  1 44 30.0000000  0  8G12G30G10G05G04G25G29G02
 -33479046.66448 -26070961.52146  20746833.1484                   20746831.3014
 -14273681.71547 -11105575.04345  21572049.5084                   21572048.0004
 -35537221.47747 -27675335.83644  22082942.3524                   22082940.3404
 -31159971.73448 -24263899.41346  20243563.7194                   20243561.9884
 -47864487.35246 -37278892.06543  23950011.7114                   23950011.2304
 -13314965.24248 -10359139.90045  21831455.6484                   21831456.1454
   6127312.34846   4787518.31643  23722012.7584                   23722012.0274
 -47633900.01647 -37099655.77346  21022101.6724                   21022097.5274
 11  8 18  1 45  0.0000000  0  8G12G30G10G05G04G25G29G02
 -33517800.43448 -26101159.25946  20739458.4064                   20739456.7974
 -14360854.51647 -11173501.86945  21555461.0704                   21555459.7544
 -35515822.24247 -27658661.09144  22087014.4924                   22087012.5664
 -31239565.61748 -24325920.59946  20228417.2194                   20228415.6994
 -47845030.79346 -37263731.16042  23953715.5084                   23953714.1414
 -13420018.98448 -10440999.93745  21811464.3984                   21811464.8634
   5983344.58247   4675335.63143  23694615.5314                   23694615.6054
 -47664496.09447 -37123496.86546  21016279.3754                   21016275.3674
 11  8 18  1 45 30.0000000  0  8G12G30G10G05G04G25G29G02
 -33555912.45348 -26130856.92346  20732206.3444                   20732204.2074
 -14447352.66847 -11240902.99045  21539000.9304                   21538999.9844
 -35493964.18747 -27641628.83944  22091173.7274                   22091172.2304
 -31318509.41848 -24387435.21946  20213394.7344                   20213392.9414
 -47825550.98846 -37248552.11343  23957422.3594                   23957421.7114
 -13524465.52748 -10522386.83445  21791588.9144                   21791589.2074
   5839416.00047   4563183.45843  23667227.3204                   23667226.6884
 -47694892.59447 -37147182.45246  21010494.8204                   21010491.3244
 11  8 18  1 46  0.0000000  0  8G12G30G10G05G04G25G29G02
 -33593382.38748 -26160054.29746  20725076.2034                   20725073.6644
 -14533174.26647 -11307776.92045  21522669.6334                   21522668.3364
 -35471648.71147 -27624240.14844  22095420.1884                   22095419.1334
 -31396801.47348 -24448442.00047  20198496.3594                   20198494.5354
 -47806047.22346 -37233354.41442  23961133.6414                   23961132.7504
 -13628302.12148 -10603298.43845  21771829.2274                   21771829.9494
   5695529.18446   4451063.90744  23639847.0394                   23639846.1604
 -47725088.63747 -37170711.83646  21004749.0084                   21004745.5514
 11  8 18  1 46 30.0000000  0  8G12G30G10G05G04G25G29G02
 -33630213.28148 -26188753.69046  20718066.9304                   20718064.8954
 -14618320.84047 -11374124.85045  21506467.1024                   21506465.4694
 -35448880.80947 -27606498.90744  22099753.0474                   22099751.2664
 -31474444.15248 -24508942.76946  20183721.5394                   20183719.6254
 -47786522.03146 -37218140.04043  23964848.7274                   23964849.2504
 -13731529.52348 -10683735.34046  21752185.9064                   21752186.5824
   5551683.05146   4338976.11443  23612473.7274                   23612472.0004
 -47755087.32048 -37194087.42745  20999040.2734                   20999036.5314
 11  8 18  1 47  0.0000000  0  8G12G30G10G05G04G25G29G02
 -33666405.53548 -26216955.45746  20711180.1724                   20711178.2974
 -14702791.02047 -11439945.74245  21490392.2114                   21490391.0594
 -35425662.54747 -27588406.73444  22104171.5234                   22104169.6414
 -31551436.18448 -24568936.54246  20169070.3984                   20169068.4844
 -47766975.31646 -37202908.85542  23968568.8914                   23968568.9964
 -13834145.59448 -10763695.89145  21732658.6334                   21732659.0554
   5407879.09847   4226921.11744  23585108.7894                   23585106.9264
 -47784888.90647 -37217309.43346  20993369.2194                   20993365.5824
 11  8 18  1 47 30.0000000  0  8G12G30G10G05G04G25G29G02
 -32126541.62548 -25017061.51846  21004206.8054                   21004204.5664
 -13211164.23847 -10277639.12045  21774239.7734                   21774238.2544
 -33826580.46946 -26342368.76044  22408466.5864                   22408465.1724
 -30052357.73848 -23400823.44246  20454335.4924                   20454333.5274
 -46171990.69546 -35960063.76843  24272083.2584                   24272084.1844
 -12360728.24248  -9615578.43546  22013040.5394                   22013040.8554
   6839540.78146   5342501.70243  23857544.9224                   23857542.7234
 -46239075.50047 -36012779.49846  21287528.1884                   21287524.0664
 11  8 18  1 48  0.0000000  0  8G12G30G10G05G04G25G29G02
 -32161465.50448 -25044274.93546  20997560.5784                   20997558.6414
 -13294285.94947 -10342409.26745  21758422.0004                   21758421.0164
 -33802476.41047 -26323586.38244  22413053.4224                   22413052.0124
 -30128054.69148 -23459808.05646  20439930.7664                   20439928.9534
 -46152407.98446 -35944804.50343  24275810.5864                   24275811.3284
 -12462123.37947  -9694587.60846  21993745.5704                   21993746.1294
   6695819.12946   5230510.82644  23830195.5864                   23830194.5234
 -46268490.57048 -36035700.31945  21281930.5084                   21281926.1564
 11  8 18  1 48 30.0000000  0  8G12G30G10G05G04G25G29G02
 -32195761.05548 -25070998.75946  20991034.5394                   20991032.3134
 -13376736.84447 -10406656.67445  21742732.1334                   21742730.9494
 -33777938.03147 -26304465.56244  22417722.7664                   22417721.8094
 -30203108.19548 -23518291.28946  20425648.5474                   20425646.7194
 -46132812.25446 -35929535.19943  24279540.0784                   24279539.4964
 -12562910.28148  -9773122.81946  21974566.1484                   21974567.1334
   6552135.78946   5118549.88244  23802852.2974                   23802852.6174
 -46297717.96947 -36058474.92745  21276368.5314                   21276364.4184
 11  8 18  1 49  0.0000000  0  8G12G30G10G05G04G25G29G02
 -32229428.85248 -25097233.42746  20984627.6024                   20984625.9304
 -13458516.08647 -10470380.75145  21727169.9774                   21727168.7304
 -33752967.44146 -26285007.93344  22422474.2194                   22422472.9414
 -30277517.52748 -23576272.55546  20411488.7664                   20411487.0594
 -46113203.52346 -35914255.73143  24283271.7734                   24283270.5554
 -12663087.18048  -9851182.71246  21955503.3444                   21955504.0594
   6408492.13347   5006619.87844  23775519.6174                   23775517.6334
 -46326757.87947 -36081103.41946  21270842.5784                   21270838.4104
 11  8 18  1 49 30.0000000  0  8G12G30G10G05G04G25G29G02
 -32262463.56248 -25122974.78046  20978341.7034                   20978339.7154
 -13539616.55547 -10533575.89145  21711737.1644                   21711735.9304
 -33727560.93747 -26265210.68544  22427308.7734                   22427307.9574
 -30351276.25848 -23633746.86846  20397452.9064                   20397451.2154
 -46093575.80146 -35898961.40943  24287006.7504                   24287006.1914
 -12762646.21147  -9928761.14445  21936557.9454                   21936558.8364
   6264896.32447   4894727.08044  23748192.7584                   23748191.8954
 -46355604.38747 -36103581.20746  21265352.9064                   21265349.3404
 11  8 18  1 50  0.0000000  0  8G12G30G10G05G04G25G29G02
 -32294871.91048 -25148228.05246  20972174.2274                   20972172.3524
 -13620043.32447 -10596246.09045  21696432.5164                   21696430.9964
 -33701727.25446 -26245080.54444  22432225.7664                   22432223.7624
 -30424390.11348 -23690718.67346  20383539.8834                   20383538.3094
 -46073935.05946 -35883656.96643  24290744.7274                   24290744.5664
 -12861591.59447 -10005861.41145  21917729.3984                   21917729.5514
   6121343.83246   4782868.07144  23720875.6724                   23720874.8524
 -46384263.77347 -36125913.18545  21259899.1884                   21259895.5984
 11  8 18  1 50 30.0000000  0  8G12G30G10G05G04G25G29G02
 -32326657.10548 -25172995.74946  20966126.0474                   20966123.5824
 -13699798.60247 -10658393.06645  21681255.6484                   21681253.9304
 -33675471.77747 -26224621.70144  22437221.6484                   22437219.6884
 -30496861.63748 -23747189.97447  20369748.9144                   20369747.5124
 -46054284.09046 -35868344.50743  24294483.2344                   24294483.3524
 -12959924.66048 -10082484.56745  21899017.1174                   21899017.1724
   5977832.96946   4671041.50144  23693567.1174                   23693565.7034
 -46412739.67648 -36148102.18646  21254480.8134                   21254476.9654
 11  8 18  1 51  0.0000000  0  8G12G30G10G05G04G25G29G02
 -32357820.95348 -25197279.28746  20960195.5944                   20960193.3794
 -13778882.23847 -10720016.67945  21666206.7974                   21666205.3714
 -33648797.48447 -26203836.54144  22442297.2974                   22442295.8014
 -30568691.09848 -23803160.95746  20356080.5314                   20356078.5234
 -46034623.54746 -35853024.66743  24298224.5474                   24298225.1094
 -13057644.40248 -10158629.79245  21880421.5084                   21880422.3714
   5834364.92646   4559248.33544  23666266.2194                   23666264.6254
 -46441032.50847 -36170148.52646  21249096.7974                   21249092.4924
 11  8 18  1 51 30.0000000  0  8G12G30G10G05G04G25G29G02
 -32388365.53947 -25221080.26546  20954383.2664                   20954380.8834
 -13857294.76647 -10781117.34645  21651285.0474                   21651283.7424
 -33621708.05147 -26182727.86044  22447452.5554                   22447450.7194
 -30639879.68448 -23858632.55347  20342533.7734                   20342531.6914
 -46014955.00846 -35837698.44343  24301967.3834                   24301967.4064
 -13154750.57047 -10234296.90645  21861942.8674                   21861943.4494
   5690939.91446   4447488.66344  23638972.4224                   23638971.5084
 -46469144.20347 -36192053.71446  21243747.0474                   21243743.1254
 11  8 18  1 52  0.0000000  0  8G12G30G10G05G04G25G29G02
 -32418293.97347 -25244401.14046  20948688.0554                   20948686.3284
 -13935037.27347 -10841695.93145  21636491.0634                   21636489.8714
 -33594208.01647 -26161299.26644  22452685.4304                   22452684.2774
 -30710428.93048 -23913605.96746  20329108.4924                   20329106.5944
 -45995280.06246 -35822367.36543  24305711.2814                   24305711.2194
 -13251243.35248 -10309486.09146  21843580.5864                   21843581.5004
   5547557.39146   4335762.10644  23611687.8594                   23611686.4844
 -46497076.62147 -36213819.22445  21238431.9384                   21238428.0314
 11  8 18  1 52 30.0000000  0  8G12G30G10G05G04G25G29G02
 -32447608.09447 -25267243.32146  20943109.2734                   20943107.3244
 -14012110.55547 -10901753.06545  21621824.8444                   21621823.2504
 -33566301.44547 -26139553.87444  22457995.7584                   22457994.3484
 -30780340.00048 -23968082.09146  20315804.7194                   20315803.0984
 -45975600.29346 -35807032.45943  24309457.1174                   24309455.6994
 -13347122.61347 -10384197.18345  21825335.5554                   21825336.5274
   5404217.48846   4224068.71444  23584411.1644                   23584410.6094
 -46524831.59047 -36235446.42845  21233150.0084                   21233146.3874
 11  8 18  1 53  0.0000000  0  8G12G30G10G05G04G25G29G02
 -32476307.77747 -25289606.72346  20937648.0004                   20937645.9614
 -14088513.04347 -10961287.49645  21607286.0164                   21607284.1724
 -33537989.78947 -26117492.85544  22463383.7504                   22463382.1954
 -30849611.69948 -24022060.01547  20302622.8674                   20302621.1094
 -45955914.66846 -35791693.00743  24313201.8204                   24313201.5904
 -13442385.94947 -10458428.35745  21807207.4144                   21807208.2814
   5260922.87547   4112410.62244  23557143.4144                   23557142.2274
 -46552409.10547 -36256935.38445  21227901.9694                   21227898.2544
 11  8 18  1 53 30.0000000  0  9G12G30G26G10G05G04G25G29G02
 -32504400.54748 -25311497.19146  20932302.5084                   20932300.2274
 -14164250.34847 -11020303.60845  21592873.6724                   21592872.1604
  15530483.56356  12115181.19552  24821229.1024                   24821228.7704
 -33509281.81647 -26095122.99144  22468846.8134                   22468844.9884
 -30918249.94148 -24075544.33846  20289561.4694                   20289559.5984
 -45936229.53146 -35776353.92242  24316948.0704                   24316946.2154
 -13537038.09047 -10532183.26446  21789195.8594                   21789196.5434
   5117668.90646   4000784.20044  23529882.4454                   23529881.8364
 -46579814.98847 -36278290.57845  21222687.1484                   21222682.9494
 11  8 18  1 54  0.0000000  0  9G12G30G26G10G05G04G25G29G02
 -32531897.21548 -25332923.17046  20927069.5234                   20927068.0944
 -14239331.75047 -11078808.63345  21578586.0944                   21578584.6214
  15377810.21946  11996215.09442  24792176.8284                   24792175.6994
 -33480189.96547 -26072453.98944  22474382.4844                   22474380.3014
 -30986264.55148 -24128542.70346  20276618.5784                   20276616.7734
 -45916554.59846 -35761022.74242  24320692.7664                   24320690.0164
 -13631087.40248 -10605468.45845  21771298.6484                   21771299.6024
   4974447.27747   3889182.96444  23502628.7274                   23502627.4414
 -46607059.54747 -36299520.09745  21217502.7194                   21217498.7344
 11  8 18  1 54 30.0000000  0  9G12G30G26G10G05G04G25G29G02
 -32558802.66448 -25353888.45146  20921949.8054                   20921947.8874
 -14313761.23048 -11136805.66145  21564422.6564                   21564421.3874
  15225049.87146  11877181.19942  24763107.3914                   24763106.9494
 -33450721.15247 -26049491.24644  22479990.2814                   22479988.3554
 -31053660.15248 -24181058.73246  20263793.6804                   20263791.9064
 -45896894.79346 -35745703.45342  24324432.7504                   24324432.0634
 -13724537.01647 -10678286.33245  21753515.9534                   21753516.7624
   4831254.89147   3777604.53144  23475380.1414                   23475379.0204
 -46634147.75047 -36320627.77345  21212348.1024                   21212343.6454
 11  8 18  1 55  0.0000000  0  9G12G30G26G10G05G04G25G29G02
 -32585118.85547 -25374394.58346  20916942.1024                   20916939.7304
 -14387538.54347 -11194294.51645  21550383.5084                   21550381.6684
  15072205.70746  11758082.00842  24734021.4384                   24734022.4494
 -33420878.44147 -26026237.20844  22485669.1094                   22485667.4534
 -31120437.01248 -24233092.62346  20251086.6484                   20251084.6844
 -45877249.96546 -35730395.78542  24328171.3914                   24328170.0274
 -13817385.79347 -10750636.05046  21735847.5474                   21735848.1254
   4688093.34447   3666050.09044  23448137.5634                   23448136.1024
 -46661080.12947 -36341614.01945  21207223.1484                   21207218.9024
 11  8 18  1 55 30.0000000  0  9G12G30G26G10G05G04G25G29G02
 -32610842.26248 -25394438.78946  20912046.9454                   20912044.4884
 -14460658.69948 -11251271.27045  21536468.9144                   21536467.2154
  14919285.23045  11638923.29043  24704921.6334                   24704922.9384
 -33390659.80947 -26002690.22044  22491419.3754                   22491417.8674
 -31186590.40248 -24284640.70246  20238497.5554                   20238495.7734
 -45857615.88746 -35715096.54342  24331908.2814                   24331906.8324
 -13909627.79347 -10822512.92646  21718294.6484                   21718294.8204
   4544968.53547   3554524.28844  23420901.1644                   23420900.4224
 -46687852.59447 -36362475.66845  21202128.2814                   21202124.1604
 11  8 18  1 56  0.0000000  0  9G12G30G26G10G05G04G25G29G02
 -32635972.02748 -25414020.42846  20907265.3444                   20907263.4184
 -14533119.65247 -11307734.36245  21522680.2974                   21522678.7154
  14766293.00446  11519708.78443  24675808.5394                   24675809.1524
 -33360065.84046 -25978850.76244  22497241.5704                   22497239.8204
 -31252118.73848 -24335701.71046  20226028.1414                   20226026.2584
 -45837990.82846 -35699804.29943  24335644.1334                   24335642.0274
 -14001260.09048 -10893914.72746  21700857.4534                   21700858.2624
   4401883.64147   3443029.62044  23393673.7814                   23393672.1954
 -46714463.62547 -36383211.51445  21197064.4844                   21197060.5634
 11  8 18  1 56 30.0000000  0  9G12G30G26G10G05G04G25G29G02
 -32660510.97747 -25433141.69446  20902595.4384                   20902593.7464
 -14604922.27747 -11363684.47845  21509016.2424                   21509014.8834
  14613231.08246  11400439.96142  24646680.9694                   24646681.7114
 -33329100.97746 -25954722.28844  22503133.6884                   22503132.3324
 -31317023.16448 -24386276.57146  20213677.1484                   20213675.3714
 -45818376.02346 -35684520.05942  24339375.3914                   24339374.2704
 -14092282.63747 -10964841.39746  21683536.3364                   21683536.6764
   4258838.95747   3331566.18644  23366452.9694                   23366451.3954
 -46740915.24247 -36403823.14945  21192030.7034                   21192026.7344
 11  8 18  1 57  0.0000000  0  9G12G30G26G10G05G04G25G29G02
 -32684457.51248 -25451801.33046  20898038.6804                   20898036.6024
 -14676063.49247 -11419119.20245  21495478.8524                   21495476.9774
  14460105.56646  11281121.55542  24617542.2344                   24617543.4264
 -33297764.91446 -25930304.57644  22509096.6724                   22509094.7814
 -31381301.24248 -24436363.36146  20201445.3594                   20201443.7814
 -45798768.79745 -35669241.72742  24343106.3674                   24343105.2664
 -14182691.45347 -11035289.84546  21666332.0474                   21666332.4804
   4115838.71546   3220137.50444  23339240.5234                   23339238.9804
 -46767204.45347 -36424308.23845  21187027.5864                   21187024.5594
 11  8 18  1 57 30.0000000  0  9G12G30G26G10G05G04G25G29G02
 -32707815.25848 -25470002.17346  20893593.6954                   20893591.3754
 -14746545.55547 -11474040.29645  21482066.8134                   21482065.0124
  14306916.89146  11161753.89243  24588391.4144                   24588392.0354
 -33266062.62946 -25905601.50644  22515129.8444                   22515128.0474
 -31444955.80548 -24485964.29846  20189332.5234                   20189330.7234
 -45779171.77345 -35653971.29342  24346835.3674                   24346834.4774
 -14272487.88748 -11105261.09246  21649245.1414                   21649245.0514
   3972882.11346   3108742.72144  23312037.1644                   23312035.1804
 -46793334.22347 -36444669.07945  21182055.9384                   21182051.7734
 11  8 18  1 58  0.0000000  0  9G12G30G26G10G05G04G25G29G02
 -32730580.04748 -25487740.96746  20889261.9144                   20889259.8714
 -14816362.69547 -11528443.26345  21468780.9774                   21468779.2304
  14153673.79746  11042343.84743  24559230.3444                   24559231.3404
 -33233991.35946 -25880610.88444  22521232.3134                   22521230.4804
 -31507981.23847 -24535075.00747  20177339.1884                   20177337.1294
 -45759579.60246 -35638704.60343  24350563.3204                   24350562.2974
 -14361665.21947 -11174749.93346  21632274.7584                   21632275.4734
   3829976.10247   2997387.41044  23284843.2664                   23284840.7234
 -46819299.54347 -36464901.77645  21177114.7814                   21177110.4534
 11  8 18  1 58 30.0000000  0  9G12G30G26G10G05G04G25G29G02
 -32752754.59048 -25505019.84446  20885042.4224                   20885040.3164
 -14885516.42647 -11582329.28445  21455621.5704                   21455619.9104
  14000377.75046  10922892.53543  24530058.3914                   24530059.7544
 -33201555.64846 -25855336.30744  22527404.1884                   22527402.6454
 -31570379.42248 -24583696.94046  20165464.6884                   20165463.0824
 -45739993.55946 -35623442.72843  24354290.2424                   24354290.3524
 -14450223.97348 -11243756.75646  21615422.5164                   21615422.7734
   3687120.77746   2886071.61844  23257658.1334                   23257656.7274
 -46845102.35247 -36485007.85445  21172204.4384                   21172200.6994
 11  8 18  1 59  0.0000000  0  9G12G30G26G10G05G04G25G29G02
 -32774341.67248 -25521840.95446  20880934.2974                   20880932.5864
 -14954007.90648 -11635699.24745  21442587.5944                   21442586.6844
  13847030.50446  10803401.33143  24500877.5554                   24500878.7274
 -33168759.30546 -25829780.72744  22533645.3834                   22533643.9104
 -31632151.97347 -24631831.37747  20153710.3284                   20153708.2384
 -45720415.67646 -35608187.20843  24358016.2584                   24358015.8834
 -14538164.56647 -11312281.88646  21598688.0704                   21598688.3594
   3544316.14846   2774795.30944  23230483.6414                   23230482.2934
 -46870744.70747 -36504988.89645  21167324.5864                   21167320.9414
 11  8 18  1 59 30.0000000  0  9G12G30G26G10G05G04G25G29G02
 -32795343.31648 -25538205.87746  20876937.7034                   20876935.4654
 -15021837.39548 -11688553.38345  21429680.6414                   21429678.7384
  13693634.84846  10683872.41443  24471687.0634                   24471687.3164
 -33135605.32447 -25803946.44644  22539954.8594                   22539953.5004
 -31693299.67247 -24679478.89546  20142074.1414                   20142072.2114
 -45700845.89546 -35592937.99943  24361740.2424                   24361740.1294
 -14625486.10947 -11380324.64146  21582071.2274                   21582071.9734
   3401563.28546   2663559.33944  23203318.7974                   23203317.6644
 -46896227.42647 -36524845.54745  21162475.4614                   21162471.6214
 11  8 18  2  0  0.0000000  0  9G12G30G26G10G05G04G25G29G02
 -32815757.71948 -25554113.20746  20873052.8594                   20873050.7344
 -15089001.71547 -11740889.18745  21416899.2814                   21416897.8324
  13540197.18446  10564310.70943  24442489.6094                   24442488.3404
 -33102093.62147 -25777833.44644  22546331.9064                   22546330.6844
 -31753819.82848 -24726637.44646  20130557.9064                   20130555.7624
 -45681281.49646 -35577693.01843  24365462.7504                   24365462.4574
 -14712184.57447 -11447881.86646  21565572.5784                   21565573.6334
   3258866.78946   2552367.28544  23176163.7344                   23176162.7704
 -46921547.55147 -36544575.51745  21157657.3134                   21157653.3794
 11  8 18  2  0 30.0000000  0  9G12G30G26G10G05G04G25G29G02
 -31260168.32848 -24341965.63746  21169071.5084                   21169069.7384
 -13580081.59847 -10565107.24745  21704037.3594                   21704035.4534
  14962142.71146  11672320.34043  24713076.0084                   24713076.1764
 -31492810.89147 -24523846.88644  22852567.7504                   22852566.0594
 -30238293.68448 -23545707.96246  20418952.6644                   20418950.8594
 -44086306.04746 -34334854.98643  24668976.6954                   24668976.5044
 -13222839.07848 -10287352.90346  21848986.1254                   21848986.6414
   4691649.91047   3668821.68044  23448814.5864                   23448812.6294
 -45371287.21947 -35336580.43445  21452661.7584                   21452658.3594
 11  8 18  2  1  0.0000000  0  9G12G30G26G10G05G04G25G29G02
 -31279418.86748 -24356966.05146  21165408.5314                   21165406.7974
 -13645921.86747 -10616411.33445  21691508.2894                   21691506.9574
  14808623.89146  11552695.42143  24683862.8364                   24683862.7544
 -31458597.93047 -24497187.45744  22859078.4144                   22859077.1994
 -30297566.03148 -23591894.19346  20407673.4774                   20407671.6054
 -44066758.69946 -34319623.27243  24672696.2664                   24672696.0434
 -13308294.78947 -10353941.74346  21832724.6334                   21832724.6024
   4549064.52046   3557716.22544  23421680.9304                   23421679.2974
 -45396289.44547 -35356062.67745  21447904.2344                   21447900.5274
 11  8 18  2  1 30.0000000  0  9G12G30G26G10G05G04G25G29G02
 -31298087.81248 -24371513.29746  21161856.0164                   21161854.2074
 -13711098.37147 -10667198.20445  21679105.4844                   21679104.1564
  14655071.06646  11433043.94143  24654643.2274                   24654642.2774
 -31424036.82846 -24470256.71744  22865655.2034                   22865654.1954
 -30356213.28948 -23637593.31346  20396513.3984                   20396511.1724
 -44047218.32446 -34304396.92943  24676414.7504                   24676414.6914
 -13393125.95748 -10420043.92446  21816581.4774                   21816581.6484
   4406538.89846   3446657.31244  23394558.7274                   23394557.5744
 -45421131.62547 -35375420.20345  21443177.1024                   21443172.7234
 11  8 18  2  2  0.0000000  0  9G12G30G26G10G05G04G25G29G02
 -31316175.46148 -24385607.56946  21158414.4304                   21158411.9654
 -13775609.83247 -10717466.84845  21666829.3134                   21666828.0824
  14501488.64546  11313369.49843  24625417.8284                   24625416.4884
 -31389128.85946 -24443055.72944  22872297.7584                   22872296.9454
 -30414234.39847 -23682804.55346  20385472.1804                   20385470.1644
 -44027683.52746 -34289175.05643  24680133.3834                   24680131.7274
 -13477330.38347 -10485657.74346  21800558.0314                   21800558.3284
   4264075.83646   3335647.15944  23367448.8284                   23367447.7034
 -45445812.71947 -35394652.21945  21438480.5314                   21438476.2934
 11  8 18  2  2 30.0000000  0  9G12G30G26G10G05G04G25G29G02
 -31333682.03148 -24399249.06146  21155082.5234                   21155080.4144
 -13839455.27047 -10767216.53445  21654679.5474                   21654678.5784
  14347881.03146  11193675.33642  24596185.6484                   24596185.0204
 -31353875.75046 -24415585.77244  22879006.5704                   22879004.6214
 -30471629.00047 -23727527.60946  20374550.6254                   20374548.0594
 -44008153.46946 -34273956.79043  24683849.2814                   24683847.4804
 -13560906.07847 -10550781.62046  21784654.0164                   21784654.3444
   4121677.90646   3224687.77644  23340352.0164                   23340350.3984
 -45470332.16047 -35413758.25345  21433814.4144                   21433810.3834
 11  8 18  2  3  0.0000000  0  9G12G30G26G10G05G04G25G29G02
 -31350611.94948 -24412441.20646  21151860.8674                   21151859.0164
 -13902637.45347 -10816449.38645  21642656.5784                   21642655.6134
  14194248.47346  11073961.83242  24566950.0864                   24566949.3874
 -31318282.82846 -24387851.01144  22885779.7504                   22885777.8524
 -30528400.15647 -23771764.85046  20363746.9534                   20363744.9264
 -43988630.62546 -34258744.14542  24687563.8364                   24687562.3404
 -13643854.83647 -10615416.98546  21768869.2584                   21768869.6954
   3979344.16846   3113778.41344  23313266.3364                   23313265.3134
 -45494692.96547 -35432740.69245  21429178.5474                   21429174.8484
 11  8 18  2  3 30.0000000  0  9G12G30G26G10G05G04G25G29G02
 -31366967.70748 -24425185.95346  21148748.7894                   21148746.6844
 -13965157.26648 -10865166.10945  21630759.7894                   21630758.4064
  14040593.85946  10954231.07842  24537711.0704                   24537710.0044
 -31282353.46546 -24359854.08944  22892616.7504                   22892614.9614
 -30584549.20747 -23815517.32946  20353062.1254                   20353060.1254
 -43969115.97345 -34243537.93742  24691277.3364                   24691275.9454
 -13726176.63348 -10679563.80045  21753203.9774                   21753204.4144
   3837075.45747   3002919.70944  23286193.3364                   23286192.0744
 -45518896.28947 -35451600.40845  21424573.0784                   21424568.9184
 11  8 18  2  4  0.0000000  0  9G12G30G26G10G05G04G25G29G02
 -31382753.09048 -24437486.25046  21145744.6644                   21145743.0434
 -14027017.17647 -10913368.62445  21618988.3914                   21618987.2304
  13886917.73846  10834483.63342  24508467.1484                   24508465.8284
 -31246092.79746 -24331599.05944  22899516.7814                   22899515.6454
 -30640078.74247 -23858787.07446  20342495.0474                   20342493.0394
 -43949611.83645 -34228339.90242  24694988.9144                   24694987.1094
 -13807872.91448 -10743223.21946  21737657.8834                   21737657.6094
   3694870.94546   2892111.03044  23259133.6564                   23259131.5904
 -45542944.36347 -35470339.15045  21419996.8834                   21419992.9694
 11  8 18  2  4 30.0000000  0  9G12G30G26G10G05G04G25G29G02
 -31397968.68048 -24449342.56346  21142849.3444                   21142847.5044
 -14088216.41847 -10961056.32845  21607342.4064                   21607340.9414
  13733224.48046  10714722.80942  24479219.9694                   24479218.9264
 -31209502.69546 -24303087.28944  22906479.9534                   22906479.1134
 -30694988.77747 -23901574.07946  20332046.5784                   20332044.2934
 -43930117.15245 -34213149.21542  24698698.1484                   24698697.1914
 -13888941.98848 -10806393.90246  21722230.6804                   21722231.0044
   3552733.00446   2781354.22744  23232085.0004                   23232083.8554
 -45566836.79347 -35488956.61345  21415450.2114                   21415446.6214
 11  8 18  2  5  0.0000000  0  9G12G30G26G10G05G04G25G29G02
 -31412615.68748 -24460755.81546  21140061.8524                   21140060.1134
 -14148754.72347 -11008229.03145  21595822.2504                   21595820.7234
  13579517.78146  10594951.51242  24449970.0314                   24449970.2304
 -31172585.16847 -24274320.37244  22913505.1334                   22913503.7854
 -30749279.18748 -23943878.27746  20321715.0554                   20321713.1334
 -43910631.41445 -34197965.45742  24702405.2734                   24702405.2814
 -13969382.55948 -10869074.84246  21706923.3054                   21706923.8094
   3410664.19546   2670651.30544  23205049.9844                   23205049.0124
 -45590573.42647 -35507452.67145  21410933.4064                   21410929.3634
 11  8 18  2  5 30.0000000  0  9G12G30G26G10G05G04G25G29G02
 -31426694.54348 -24471726.35146  21137383.3754                   21137381.0864
 -14208631.25447 -11054886.05945  21584427.7894                   21584426.6724
  13425801.98046  10475173.09543  24420719.6414                   24420719.5004
 -31135342.15246 -24245299.86044  22920592.5004                   22920591.2704
 -30802949.44547 -23985699.23446  20311502.0784                   20311499.8554
 -43891153.75046 -34182788.08642  24706112.8594                   24706111.3244
 -14049192.86348 -10931264.67346  21691736.0314                   21691736.6604
   3268667.09446   2560004.24144  23178029.3054                   23178027.5274
 -45614153.56647 -35525826.78445  21406446.0234                   21406442.2384
 11  8 18  2  6  0.0000000  0  8G12G30G26G10G05G25G29G02
 -31440209.22748 -24482257.28446  21134810.9924                   21134809.1884
 -14267848.50447 -11101029.36945  21573159.3674                   21573158.2034
  13272078.01646  10355388.35843  24391466.5314                   24391467.5434
 -31097778.16047 -24216029.20444  22927740.7274                   22927739.0164
 -30856002.72348 -24027039.43646  20301406.1954                   20301404.3014
 -14128374.47348 -10992964.61246  21676668.2034                   21676668.5824
   3126740.84046   2449412.39744  23151021.3284                   23151020.1884
 -45637579.62147 -35544080.83846  21401988.0784                   21401984.4734
 11  8 18  2  6 30.0000000  0  8G12G30G26G10G05G25G29G02
 -31453157.69948 -24492347.01146  21132347.4614                   21132345.3554
 -14326402.85547 -11146656.13945  21562016.8984                   21562015.4844
  13118353.19546  10235602.94043  24362213.4144                   24362213.9184
 -31059892.18446 -24186507.64744  22934950.5634                   22934948.7154
 -30908435.55548 -24067896.17246  20291428.5314                   20291426.5944
 -14206922.64848 -11054170.97746  21661721.2194                   21661721.4414
   2984891.34046   2338880.32244  23124028.5864                   23124027.4104
 -45660847.94147 -35562211.96845  21397560.4534                   21397556.5554
 11  8 18  2  7  0.0000000  0  8G12G30G26G10G05G25G29G02
 -31465532.09448 -24501989.39546  21129992.2664                   21129990.6094
 -14384285.30547 -11191759.35345  21551002.5084                   21551000.8094
  12964640.37546  10115826.85943  24332962.9144                   24332961.6024
 -31021677.69546 -24156730.15444  22942222.1484                   22942220.1094
 -30960239.04347 -24108262.51146  20281570.8134                   20281568.7074
 -14284827.49648 -11114876.03446  21646896.4144                   21646896.8284
   2843129.32046   2228416.44644  23097051.6954                   23097050.7934
 -45683949.60547 -35580213.25445  21393164.3984                   21393160.6724
 11  8 18  2  7 30.0000000  0  8G12G30G26G10G05G25G29G02
 -31477330.35948 -24511182.84346  21127747.2344                   21127745.5004
 -14441492.16847 -11236336.12745  21540116.3914                   21540114.9734
  12810946.60546   9996065.67243  24303715.3364                   24303713.5594
 -30983133.52347 -24126695.74944  22949556.7974                   22949554.7114
 -31011409.91847 -24148135.91046  20271832.8524                   20271831.1374
 -14362084.32048 -11175076.16446  21632194.7194                   21632194.9844
   2701460.62546   2118025.30944  23070092.9534                   23070091.7544
 -45706880.93747 -35598081.79045  21388801.0164                   21388796.3404
 11  8 18  2  8  0.0000000  0  8G12G30G26G10G05G25G29G02
 -31488551.11748 -24519926.29546  21125612.2034                   21125609.7624
 -14498020.85947 -11280384.45445  21529359.2034                   21529357.5864
  12657278.14546   9876324.15943  24274473.5394                   24274471.2894
 -30944259.26647 -24096404.07844  22956953.8054                   22956951.9884
 -31061946.12948 -24187514.74746  20262216.4454                   20262214.4844
 -14438689.49248 -11234768.50645  21617617.1564                   21617617.9184
   2559889.79346   2007710.41544  23043153.1804                   23043151.7584
 -45729639.18747 -35615815.47845  21384470.1804                   21384465.8954
 11  8 18  2  8 30.0000000  0  8G12G30G26G10G05G25G29G02
 -31499205.33648 -24528228.28846  21123584.3914                   21123582.9774
 -14553880.92247 -11323911.77745  21518729.2584                   21518727.6454
  12503629.16046   9756597.87243  24245234.7974                   24245234.3634
 -30905066.71546 -24065864.44143  22964412.6644                   22964410.0004
 -31111857.42648 -24226406.65546  20252718.7504                   20252716.4454
 -14514651.68748 -11293959.82346  21603162.3754                   21603162.6134
   2418409.56346   1897466.09944  23016230.0314                   23016228.7624
 -45752233.75047 -35633421.62445  21380170.0554                   21380165.6214
 11  8 18  2  9  0.0000000  0  8G12G30G26G10G05G25G29G02
 -31509294.73848 -24536090.15346  21121664.5234                   21121662.8484
 -14609072.94948 -11366918.54845  21508226.8754                   21508225.3404
  12350002.95746   9636889.33543  24216000.7664                   24215999.8204
 -30865558.49646 -24035078.84144  22971929.8594                   22971927.8634
 -31161144.84447 -24264812.41546  20243339.2424                   20243337.3014
 -14589970.39548 -11352649.73246  21588829.0234                   21588829.7624
   2277021.51247   1787293.63744  22989325.4304                   22989324.1644
 -45774664.87147 -35650900.38845  21375901.9844                   21375897.7584
 11  8 18  2  9 30.0000000  0  8G12G30G26G10G05G25G29G02
 -31518821.74248 -24543513.80046  21119851.6094                   21119849.9104
 -14663597.94547 -11409405.56345  21497851.0164                   21497849.3874
  12196402.30146   9517200.58943  24186771.0944                   24186770.7034
 -30825737.93746 -24004049.83843  22979507.3984                   22979504.9184
 -31209809.37148 -24302732.80846  20234078.7584                   20234077.0204
 -14664645.68448 -11410838.27146  21574619.1024                   21574619.7344
   2135726.76647   1677193.85444  22962437.2424                   22962436.4384
 -45796933.75447 -35668252.74245  21371663.9064                   21371659.8834
 11  8 18  2 10  0.0000000  0  8G12G30G26G10G05G25G29G02
 -31527792.66448 -24550504.12346  21118144.6334                   21118142.4104
 -14717460.63347 -11451376.46945  21487600.9924                   21487599.8674
  12042826.46146   9397531.30743  24157546.6484                   24157545.9614
 -30785611.87946 -23972782.70243  22987143.0864                   22987141.0314
 -31257856.17648 -24340171.85546  20224936.0944                   20224934.0004
 -14738681.14148 -11468528.23846  21560530.8754                   21560531.2114
   1994522.69547   1567164.75444  22935566.9454                   22935566.8754
 -45819044.47747 -35685481.85245  21367456.1724                   21367452.0664
 11  8 18  2 10 30.0000000  0  8G12G30G26G10G05G25G29G02
 -31536211.93448 -24557064.58946  21116542.8364                   21116540.1604
 -14770664.09447 -11492833.70945  21477476.6804                   21477475.4884
  11889276.11346   9277881.80743  24128326.7664                   24128327.3284
 -30745185.80946 -23941281.91844  22994836.1884                   22994833.7734
 -31305288.90248 -24377132.40346  20215909.9844                   20215907.7734
 -14812078.98048 -11525721.37246  21546563.6024                   21546564.2504
   1853408.62947   1457205.78544  22908714.2814                   22908713.0234
 -45840999.80947 -35702589.90345  21363278.5234                   21363274.5164
 11  8 18  2 11  0.0000000  0  8G12G30G26G10G05G25G29G02
 -31544080.88348 -24563196.24146  21115045.3984                   21115042.9144
 -14823208.75447 -11533777.58345  21467477.5704                   21467476.9104
  11735754.75846   9158254.88843  24099112.6644                   24099112.8484
 -30704462.24246 -23909549.28443  23002585.6804                   23002584.1684
 -31352108.09848 -24413614.86946  20207000.6804                   20206998.6294
 -14884838.58248 -11582417.17646  21532718.0084                   21532718.6524
   1712386.45746   1347318.43644  22881877.8674                   22881877.6994
 -45862799.88347 -35719576.95245  21359130.6954                   21359126.3054
 11  8 18  2 11 30.0000000  0  8G12G30G26G10G05G25G29G02
 -31551403.52748 -24568902.20446  21113651.7344                   21113649.6604
 -14875097.04747 -11574210.01045  21457604.0474                   21457602.7304
  11582264.07846   9038651.88243  24069904.3594                   24069903.7194
 -30663445.60246 -23877588.26243  23010390.8674                   23010389.0944
 -31398316.50848 -24449621.39446  20198207.3134                   20198205.0594
 -14956961.39548 -11638616.76746  21518993.3444                   21518994.2074
   1571455.95347   1237502.45244  22855059.9224                   22855059.1214
 -45884446.68747 -35736444.59345  21355010.9694                   21355006.7854
 11  8 18  2 12  0.0000000  0  8G12G30G26G10G05G25G29G02
 -31558180.75047 -24574183.15746  21112361.8834                   21112360.0984
 -14926328.39547 -11614130.53745  21447854.7344                   21447853.6724
  11428808.18446   8919076.07943  24040702.6644                   24040701.5204
 -30622137.40647 -23845400.08043  23018251.6334                   23018249.4964
 -31443913.86348 -24485151.78846  20189530.3204                   20189528.1214
 -15028445.73848 -11694318.82546  21505390.2034                   21505390.8524
   1430620.18047   1127760.37544  22828259.9844                   22828258.8794
 -45905939.59047 -35753192.30545  21350921.0554                   21350916.6994
 11  8 18  2 12 30.0000000  0  8G12G30G26G10G05G25G29G02
 -31564416.90648 -24579042.49946  21111175.4454                   21111173.3404
 -14976906.09847 -11653541.72445  21438230.1954                   21438228.7274
  11275388.28146   8799528.18643  24011507.3054                   24011507.0554
 -30580543.12546 -23812988.94543  23026166.6484                   23026164.2464
 -31488903.80548 -24520208.85946  20180969.1024                   20180966.9884
 -15099294.02348 -11749525.28146  21491908.5234                   21491908.6564
   1289878.20747   1018091.33844  22801477.7034                   22801476.2734
 -45927281.18047 -35769822.10645  21346860.1954                   21346855.7734
 11  8 18  2 13  0.0000000  0  8G12G30G26G10G05G25G29G02
 -31570112.98448 -24583481.00846  21110091.2194                   21110089.0394
 -15026829.74247 -11692443.24745  21428730.2344                   21428728.4454
  11122008.78946   8680011.77943  23982321.5164                   23982320.1724
 -30538664.34046 -23780356.09543  23034136.0474                   23034133.4574
 -31533286.14848 -24554792.48946  20172523.2584                   20172521.2194
 -15169504.75448 -11804234.92746  21478547.5394                   21478547.9144
   1149232.76247    908497.54044  22774713.9144                   22774712.8014
 -45948470.75847 -35786333.44845  21342827.6804                   21342823.3204
 11  8 18  2 13 30.0000000  0  8G12G30G26G10G05G25G29G02
 -31575272.04747 -24587501.06446  21109109.5004                   21109107.7894
 -15076100.89847 -11730836.34645  21419353.9144                   21419352.7974
  10968672.20746   8560528.92343  23953141.0234                   23953141.7034
 -30496504.62546 -23747504.40743  23042158.7344                   23042156.5744
 -31577062.74248 -24588904.09546  20164192.9144                   20164190.7894
 -15239078.54348 -11858448.24646  21465308.0864                   21465308.4064
   1008684.88747    798979.76244  22747968.3524                   22747967.2854
 -45969509.43047 -35802727.20545  21338824.2034                   21338820.1524
 11  8 18  2 14  0.0000000  0  8G12G30G26G10G05G25G29G02
 -30004474.96148 -23363503.34046  21408022.2344                   21408020.8554
 -13549298.07047 -10541119.85845  21709895.4064                   21709893.4024
  12390807.51646   9668686.39243  24223764.3834                   24223765.4654
 -28878647.49246 -22486836.51843  23350027.3444                   23350024.8874
 -30044812.46148 -23394942.81946  20455770.6804                   20455767.9884
 -13732592.16048 -10684562.73746  21751983.0004                   21751983.5634
   2443661.67647   1917143.54144  23021034.8364                   23021033.7664
 -44414975.91447 -34591402.37245  21634641.8754                   21634638.1604
 11  8 18  2 14 30.0000000  0  8G12G30G26G10G05G25G29G02
 -30008563.05147 -23366688.86346  21407244.3914                   21407242.6134
 -13597264.34448 -10578496.17645  21700767.5004                   21700765.9884
  12237569.00846   9549279.90043  24194604.0394                   24194603.5594
 -28835931.73447 -22453551.51443  23358155.6334                   23358153.5514
 -30087378.10548 -23428110.83646  20447670.6724                   20447668.2934
 -13800889.03548 -10737781.06346  21738986.6094                   21738987.1414
   2303316.50447   1807783.71944  22994328.3754                   22994326.8674
 -44435710.88747 -34607559.47545  21630695.8204                   21630692.0474
 11  8 18  2 15  0.0000000  0  8G12G30G26G10G05G25G29G02
 -30012122.03547 -23369462.10146  21406567.1094                   21406565.1644
 -13644582.56247 -10615367.50945  21691763.2894                   21691761.6604
  12084381.58246   9429913.17443  24165453.5554                   24165452.5204
 -28792944.98046 -22420055.33843  23366335.5944                   23366334.1884
 -30129343.09848 -23460810.81446  20439684.5944                   20439682.9384
 -13868550.34048 -10790504.13946  21726110.9614                   21726111.4384
   2163072.25047   1698502.53744  22967641.0394                   22967639.1414
 -44456297.56647 -34623601.03545  21626778.6484                   21626774.7034
 11  8 18  2 15 30.0000000  0  8G12G30G26G10G05G25G29G02
 -30015156.41848 -23371826.56746  21405989.4614                   21405987.6724
 -13691255.87947 -10651736.33445  21682881.2114                   21682879.7624
  11931246.22346   9310587.08143  24136312.5784                   24136310.4614
 -28749692.45346 -22386352.06244  23374565.8984                   23374564.3164
 -30170711.23848 -23493045.71946  20431812.6024                   20431810.5594
 -13935578.17248 -10842733.60246  21713356.1024                   21713356.4694
   2022928.01647   1589299.28444  22940971.6254                   22940970.4844
 -44476738.34047 -34639528.90045  21622889.1484                   21622884.5084
 11  8 18  2 16  0.0000000  0  8G12G30G26G10G05G25G29G02
 -30017667.77348 -23373783.47246  21405512.3594                   21405509.8014
 -13737284.75447 -10687602.99045  21674122.3524                   21674120.6764
  11778166.91446   9191304.59343  24107182.3134                   24107180.7734
 -28706176.50046 -22352443.54643  23382846.8134                   23382846.0274
 -30211483.17248 -23524816.03546  20424053.9534                   20424051.8834
 -14001972.07048 -10894469.08846  21700721.4844                   21700721.7814
   1882886.43447   1480176.01244  22914322.9454                   22914321.4614
 -44497033.08647 -34655342.97545  21619026.9144                   21619022.2974
 11  8 18  2 16 30.0000000  0  8G12G30G26G10G05G25G29G02
 -30019659.67648 -23375335.61146  21405132.9454                   21405130.9804
 -13782671.65248 -10722969.41845  21665485.4304                   21665483.9264
  11625145.37946   9072067.11243  24078063.6484                   24078063.4734
 -28662401.43446 -22318333.07744  23391177.8914                   23391176.3484
 -30251661.09048 -23556123.49546  20416408.5554                   20416406.5744
 -14067733.42248 -10945711.69346  21688207.8134                   21688207.6454
   1742947.63347   1371132.87744  22887693.3754                   22887691.4224
 -44517183.69547 -34671044.75045  21615192.3754                   21615187.9924
 11  8 18  2 17  0.0000000  0  8G12G30G26G10G05G25G29G02
 -30021130.92648 -23376482.03346  21404852.7274                   21404850.7234
 -13827414.02747 -10757833.60945  21656971.3364                   21656969.8284
  11472188.49646   8952880.01643  24048956.2194                   24048957.5634
 -28618366.10246 -22284019.85043  23399556.5634                   23399555.2894
 -30291242.73448 -23586966.31846  20408876.3204                   20408874.1954
 -14132858.68048 -10996458.62546  21675814.7664                   21675814.9844
   1603116.80147   1262173.82444  22861084.1174                   22861082.8634
 -44537186.95747 -34686631.68745  21611385.8444                   21611381.6764
 11  8 18  2 17 30.0000000  0  8G12G30G26G10G05G25G29G02
 -30022085.90247 -23377226.15546  21404671.3754                   21404669.0554
 -13871515.18048 -10792198.15545  21648579.0474                   21648577.4184
  11319297.58646   8833744.34243  24019862.0004                   24019862.5314
 -28574075.81646 -22249507.90743  23407984.3594                   23407983.0124
 -30330231.87548 -23617347.43546  20401456.6334                   20401454.6374
 -14197350.09448 -11046711.66846  21663542.1414                   21663542.7304
   1463393.48047   1153298.57044  22834496.3284                   22834494.3324
 -44557045.05547 -34702105.51045  21607607.2504                   21607603.1914
 11  8 18  2 18  0.0000000  0  8G12G30G26G10G05G25G29G02
 -30022529.54747 -23377571.84346  21404586.9614                   21404584.8244
 -13914978.61747 -10826065.78645  21640308.4774                   21640306.9064
  11166473.57846   8714660.79843  23990780.9304                   23990778.8874
 -28529535.71146 -22214801.36443  23416460.5164                   23416459.1254
 -30368632.10548 -23647269.68446  20394149.5784                   20394147.5744
 -14261210.12148 -11096472.71446  21651390.2814                   21651390.5084
   1323777.12147   1044506.64744  22807928.0394                   22807926.3164
 -44576760.87547 -34717468.47645  21603855.2034                   21603851.0164
 11  8 18  2 18 30.0000000  0  8G12G30G26G10G05G25G29G02
 -30022463.28547 -23377520.23546  21404599.7814                   21404597.5744
 -13957804.68448 -10859436.76745  21632158.7814                   21632157.5204
  11013720.33646   8595632.34443  23961712.9614                   23961709.5124
 -28484747.91846 -22179901.82743  23424983.5634                   23424981.5514
 -30406444.46948 -23676733.84046  20386954.2504                   20386952.0084
 -14324438.22348 -11145741.36846  21639358.5864                   21639359.0124
   1184270.23447    935800.03345  22781380.3834                   22781379.5124
 -44596333.87947 -34732720.15745  21600131.1024                   21600126.7274
 11  8 18  2 19  0.0000000  0  8G12G30G26G10G05G25G29G02
 -30021890.79747 -23377074.13846  21404707.9614                   21404706.8014
 -13999995.93748 -10892313.07945  21624130.1804                   21624128.7304
  10861040.01246   8476660.71843  23932658.5784                   23932656.6524
 -28439716.50046 -22144812.43843  23433552.5164                   23433551.2304
 -30443671.16048 -23705741.62446  20379870.4384                   20379868.0084
 -14387035.78548 -11194518.68646  21627446.6804                   21627447.3054
   1044872.96547    827178.84245  22754854.0084                   22754852.8364
 -44615765.52747 -34747861.68845  21596432.9144                   21596428.6844
 11  8 18  2 19 30.0000000  0  8G12G30G26G10G05G25G29G02
 -30020812.02347 -23376233.53246  21404913.5704                   21404912.0984
 -14041551.39548 -10924693.94745  21616222.4924                   21616220.7384
  10708438.05946   8357750.13943  23903619.6484                   23903618.5744
 -28394441.93046 -22109533.55243  23442168.1564                   23442166.0664
 -30480311.23848 -23734292.31746  20372897.5084                   20372895.1954
 -14449000.97348 -11242803.25646  21615654.6414                   21615655.7894
    905589.21547    718646.13045  22728349.6644                   22728347.6414
 -44635054.25047 -34762891.85545  21592762.9144                   21592758.3954
 11  8 18  2 20  0.0000000  0  8G12G30G26G10G05G25G29G02
 -30019229.98047 -23375000.76846  21405214.7584                   21405213.0744
 -14082472.46547 -10956580.51745  21608435.3834                   21608433.8364
  10555917.85546   8238903.29043  23874595.5394                   23874596.0594
 -28348927.14547 -22074067.48643  23450829.5864                   23450827.4344
 -30516366.62148 -23762387.39846  20366036.8204                   20366034.3244
 -14510334.03947 -11290595.27646  21603983.4844                   21603984.4344
    766420.52347    610203.01844  22701866.2344                   22701864.8524
 -44654200.33647 -34777810.86945  21589118.5234                   21589114.5314
 11  8 18  2 20 30.0000000  0  8G12G30G26G10G05G25G29G02
 -30017148.20747 -23373378.62446  21405611.0164                   21405608.4574
 -14122761.93448 -10987974.91745  21600768.6484                   21600767.0704
  10403481.05946   8120121.47043  23845587.8444                   23845587.1484
 -28303176.95746 -22038418.00243  23459535.5944                   23459532.3054
 -30551840.61348 -23790029.45746  20359285.8364                   20359283.7304
 -14571036.86748 -11337896.19246  21592432.0634                   21592432.9024
    627366.94947    501849.64545  22675405.1254                   22675403.9774
 -44673205.74647 -34792620.28545  21585502.0554                   21585497.6684
 11  8 18  2 21  0.0000000  0  8G12G30G26G10G05G25G29G02
 -30014574.45347 -23371373.11946  21406100.6024                   21406098.9414
 -14162425.90247 -11018881.91745  21593220.2974                   21593219.3164
  10251126.27346   8001403.51943  23816595.6954                   23816595.0354
 -28257198.67246 -22002590.76143  23468284.8834                   23468282.5664
 -30586738.97748 -23817222.98746  20352645.0634                   20352642.8134
 -14631114.44948 -11384709.89346  21581000.0704                   21581000.2304
    488425.72747    393583.81945  22648965.3914                   22648963.6684
 -44692075.50847 -34807323.99145  21581911.4774                   21581907.0274
 11  8 18  2 21 30.0000000  0  8G12G30G26G10G05G25G29G02
 -30011510.57047 -23368985.66246  21406683.5004                   21406681.7074
 -14201465.47348 -11049302.36145  21585791.5394                   21585790.0634
  10098857.11746   7882752.30244  23787619.7664                   23787619.3134
 -28210994.71146 -21966587.62943  23477077.2974                   23477075.0274
 -30621063.20748 -23843969.11146  20346113.4614                   20346111.2194
 -14690566.94148 -11431036.52346  21569686.5004                   21569686.9924
    349598.80147    285407.07345  22622547.5314                   22622546.6914
 -44710809.76647 -34821922.11245  21578346.5164                   21578342.6024
 11  8 18  2 22  0.0000000  0  8G12G30G26G10G05G25G29G02
 -30007953.24247 -23366213.73246  21407360.4144                   21407358.9614
 -14239876.28548 -11079232.86545  21578482.5474                   21578480.6254
   9946682.60246   7764174.83343  23758661.4844                   23758660.8874
 -28164562.17647 -21930406.45343  23485913.3204                   23485910.4694
 -30654809.05948 -23870264.55746  20339691.6414                   20339689.4264
 -14749388.88747 -11476871.81146  21558493.0634                   21558493.4694
    210893.60947    177325.13945  22596152.8754                   22596151.7774
 -44729402.91447 -34836410.27645  21574808.3204                   21574804.4104
 11  8 18  2 22 30.0000000  0  8G12G30G26G10G05G25G29G02
 -30003909.42647 -23363062.72946  21408130.1954                   21408128.1914
 -14277664.29748 -11108678.07045  21571291.8364                   21571289.7584
   9794601.76246   7645670.34943  23729721.4844                   23729720.8674
 -28117908.67647 -21894053.12943  23494791.7344                   23494788.9534
 -30687982.79348 -23896114.20246  20333378.7114                   20333376.4924
 -14807585.31247 -11522219.68246  21547418.3364                   21547419.1454
     72306.81347     69335.47945  22569780.6484                   22569778.8244
 -44747859.66847 -34850792.15645  21571296.0084                   21571292.1374
 11  8 18  2 23  0.0000000  0  8G12G30G26G10G05G25G29G02
 -29999377.74247 -23359531.55346  21408992.3594                   21408990.3524
 -14314826.85548 -11137635.90545  21564219.6644                   21564218.1994
   9642621.64146   7527244.38543  23700800.1644                   23700800.4024
 -28071033.02046 -21857526.67443  23503711.1954                   23503708.8404
 -30720581.78948 -23921516.00546  20327175.2814                   20327173.2114
 -14865152.41847 -11567077.17446  21536464.0234                   21536464.5664
    -66154.82447    -38556.64345  22543432.0084                   22543430.7774
 -44766176.52747 -34865065.02145  21567810.3674                   21567806.6454
 11  8 18  2 23 30.0000000  0  8G12G30G26G10G05G25G29G02
 -29994364.40647 -23355625.06246  21409946.2974                   21409944.4024
 -14351369.06647 -11166110.35045  21557266.0234                   21557264.4224
   9490742.07846   7408896.76043  23671899.1644                   23671898.8874
 -28023941.14546 -21820831.71143  23512672.1174                   23512670.5124
 -30752611.35948 -23946474.09046  20321080.5164                   20321078.3484
 -14922094.42247 -11611447.57246  21525628.2034                   21525628.7304
   -204493.58647   -146353.03045  22517107.3674                   22517106.0664
 -44784357.19547 -34879231.77545  21564350.7034                   21564346.8404
 11  8 18  2 24  0.0000000  0  8G12G30G26G10G05G25G29G02
 -29988868.06247 -23351342.19346  21410992.5084                   21410990.4144
 -14387288.37148 -11194099.38045  21550430.9144                   21550428.7344
   9338970.44946   7290633.26943  23643017.1024                   23643018.0554
 -27976632.05146 -21783967.48343  23521675.1334                   23521673.4264
 -30784068.77748 -23970986.33746  20315094.3914                   20315091.9844
 -14978407.74247 -11655328.07246  21514911.9774                   21514912.5044
   -342703.84447   -254049.29745  22490806.8204                   22490804.9454
 -44802398.07847 -34893289.60345  21560917.3204                   21560913.6024
 11  8 18  2 24 30.0000000  0  9G12G30G26G10G05G15G25G29G02
 -29982896.69947 -23346689.19646  21412128.5944                   21412126.5474
 -14422592.23848 -11221608.89145  21543712.7114                   21543711.0434
   9187304.45746   7172452.03343  23614156.4224                   23614155.4414
 -27929114.73046 -21746941.03243  23530717.3674                   23530715.1094
 -30814961.69948 -23995058.73346  20309215.6254                   20309213.3014
  18685059.85556  14573135.73052  24526501.6954                   24526500.5354
 -15034098.79747 -11698723.69146  21504314.6254                   21504315.0704
   -480789.73447   -361648.62745  22464529.8284                   22464528.6914
 -44820305.44947 -34907243.39345  21557509.8444                   21557505.6094
 11  8 18  2 25  0.0000000  0  9G12G30G26G10G05G15G25G29G02
 -29976460.89847 -23341674.28146  21413353.1954                   21413351.8324
 -14457289.81247 -11248645.93845  21537109.6564                   21537108.2384
   9035739.68446   7054349.72843  23585314.2504                   23585313.4304
 -27881399.34046 -21709760.28443  23539797.3754                   23539795.3324
 -30845299.71148 -24018698.71646  20303442.1954                   20303440.1214
  18534873.11345  14456107.26242  24497921.5164                   24497920.9574
 -15089175.64547 -11741640.69646  21493833.3364                   21493834.2274
   -618756.97747   -469155.54445  22438275.5004                   22438273.9304
 -44838086.78147 -34921098.99745  21554126.5784                   21554122.4264
 11  8 18  2 25 30.0000000  0  9G12G30G26G10G05G15G25G29G02
 -29969570.72747 -23336305.32846  21414664.3984                   21414662.7424
 -14491390.09447 -11275217.56845  21530621.0784                   21530619.5234
   8884272.13346   6936323.14343  23556491.0314                   23556490.4924
 -27833496.37946 -21672433.33343  23548912.7034                   23548911.8324
 -30875091.82048 -24041913.33246  20297773.0864                   20297770.9064
  18384589.96145  14339003.64842  24469325.3674                   24469322.5124
 -15143646.33647 -11784085.37346  21483468.5394                   21483468.6174
   -756611.32047   -576574.45845  22412042.5704                   22412040.8714
 -44855750.05147 -34934862.57845  21550765.2194                   21550761.0084
 11  8 18  2 26  0.0000000  0  9G12G30G26G10G05G15G25G29G02
 -29962226.19147 -23330582.31746  21416062.1254                   21416060.2734
 -14524892.24247 -11301323.11645  21524245.7504                   21524243.9734
   8732907.59046   6818376.86244  23527687.9454                   23527687.1484
 -27785405.97746 -21634960.38143  23558064.7194                   23558063.6214
 -30904337.16048 -24064701.88546  20292208.0474                   20292205.7734
  18234215.23045  14221828.66143  24440709.0864                   24440707.4924
 -15197509.15647 -11826056.39446  21473218.3984                   21473218.8444
   -894348.62547   -683902.17845  22385831.6724                   22385830.6994
 -44873293.14547 -34948532.53145  21547426.4534                   21547423.1294
 11  8 18  2 26 30.0000000  0  9G12G30G26G10G05G15G25G29G02
 -29954429.14147 -23324506.70846  21417546.1414                   21417544.0634
 -14557797.09047 -11326963.24645  21517983.8204                   21517982.3484
   8581650.28546   6700514.10043  23498904.3284                   23498903.5824
 -27737130.05146 -21597342.82643  23567251.0314                   23567250.1254
 -30933036.64847 -24087065.10346  20286746.6334                   20286744.0704
  18083752.36346  14104584.98943  24412076.7734                   24412076.4064
 -15250763.85247 -11867553.52446  21463084.7424                   21463084.9694
  -1031966.20747   -791136.60045  22359643.9694                   22359642.5664
 -44890715.54747 -34962108.43845  21544111.3054                   21544107.6454
 11  8 18  2 27  0.0000000  0  9G12G30G26G10G05G15G25G29G02
 -29946179.28147 -23318078.25546  21419115.6024                   21419114.1174
 -14590103.66847 -11352137.17945  21511836.0554                   21511834.7424
   8430506.28546   6582739.63243  23470142.5784                   23470141.8444
 -27688668.80947 -21559580.83143  23576473.0944                   23576471.4964
 -30961189.40248 -24109002.29646  20281389.4694                   20281386.8324
  17933206.48046  13987276.63643  24383428.3594                   24383428.5514
 -15303408.29348 -11908575.16846  21453066.7734                   21453067.1994
  -1169459.56647   -898274.24545  22333480.0784                   22333478.5474
 -44908014.68747 -34975588.27245  21540819.1024                   21540815.6764
 11  8 18  2 27 30.0000000  0  9G12G30G26G10G05G15G25G29G02
 -29937479.64547 -23311299.31046  21420771.0704                   21420769.5634
 -14621813.55947 -11376846.17745  21505802.2344                   21505800.3284
   8279479.09446   6465056.17543  23441402.5944                   23441401.5824
 -27640025.06647 -21521676.60843  23585729.6884                   23585727.8094
 -30988797.26247 -24130514.88646  20276135.8984                   20276133.3014
  17782579.91846  13869905.45844  24354764.9304                   24354765.3204
 -15355443.25448 -11949121.87646  21443164.8054                   21443165.5004
  -1306827.05947  -1005313.80045  22307339.6724                   22307338.4534
 -44925191.00047 -34988972.39745  21537551.0944                   21537547.2704
 11  8 18  2 28  0.0000000  0  9G12G30G26G10G05G15G25G29G02
 -28352911.64847 -22076571.01646  21722304.6334                   21722302.9774
 -13077505.75847 -10173489.42945  21799674.0554                   21799672.4344
   9703998.82446   7575071.59743  23712480.3984                   23712478.6994
 -26015781.08646 -20256031.98843  23894812.7664                   23894810.5354
 -29440439.37147 -22924002.23246  20570778.4614                   20570776.0944
  19207301.77046  14980078.49743  24625881.1484                   24625880.8794
 -13831445.93748 -10761591.48246  21733171.6334                   21733171.9734
    131359.66847    115351.22745  22581017.7034                   22581016.0354
 -43366822.01247 -33774658.93145  21834098.9534                   21834094.6094
 11  8 18  2 28 30.0000000  0  9G12G30G26G10G05G15G25G29G02
 -28343316.25047 -22069094.08446  21724130.5704                   21724128.8284
 -13108023.53147 -10197269.51645  21793866.2664                   21793865.0474
   9553219.16046   7457581.06843  23683788.1024                   23683786.0944
 -25966776.01646 -20217846.25843  23904137.7814                   23904136.2304
 -29466959.04348 -22944666.89046  20565731.4774
  20565729.2814   19056525.05546  14862590.33444  24597187.8444   24597188.4264
 -13882260.02348 -10801186.85346  21723502.2424                   21723502.8284
     -5746.52747      8515.28245  22554926.8984                   22554925.7234
 -43383748.79347 -33787848.63245  21830877.8674                   21830873.5664
 11  8 18  2 29  0.0000000  0  9G12G30G26G10G05G15G25G29G02
 -28333275.00847 -22061269.73846  21726041.5004                   21726039.3284
 -13137945.57047 -10220585.36445  21788172.4384                   21788171.0474
   9402570.77746   7340192.79244  23655120.4304                   23655119.5204
 -25917592.28547 -20179521.30943  23913497.6884                   23913495.3094
 -29492934.82447 -22964907.74246  20560788.7424                   20560786.5514
  18905679.24946                  14745048.33143  24568483.5164   24568483.8874
 -13932462.53148 -10840305.67546  21713948.7974                   21713949.6954
   -142716.71547    -98214.66845  22528862.4064                   22528861.1454
 -43400548.74647 -33800939.50745  21827680.8284                   21827676.1024
 11  8 18  2 29 30.0000000  0  9G12G30G26G10G05G15G25G29G02
 -28322790.72747 -22053100.17646  21728036.2814                   21728034.4654
 -13167273.65647 -10243438.42445  21782591.3834                   21782590.1294
   9252057.05946   7222909.44943  23626478.2424                   23626477.7814
 -25868232.96146 -20141059.52042  23922890.6174                   23922888.6454
 -29518368.53147 -22984726.19946  20555949.0084                   20555946.5984
  18754766.82446                  14627454.35243  24539765.5634   24539765.5124
 -13982054.31648 -10878948.61546  21704511.7194                   21704512.6254
   -279549.31247   -204837.43545  22502824.0004                   22502822.4614
 -43417222.48047 -33813932.01545  21824508.0004                   21824503.2194
 11  8 18  2 30  0.0000000  0  9G12G30G26G10G05G15G25G29G02
 -28311865.06647 -22044586.66645  21730115.3054                   21730113.9844
 -13196008.94947 -10265829.56145  21777123.9614                   21777121.8244
   9101682.16846   7105734.27344  23597862.5314                   23597863.1994
 -25818699.95346 -20102462.44043  23932315.5554                   23932314.8674
 -29543261.39848 -23004123.22046  20551211.9304                   20551209.8714
  18603790.96546                  14509810.96543  24511035.6024   24511035.3284
 -14031035.38348 -10917115.67346  21695191.1484                   21695191.4884
   -416241.84447   -311351.05045  22476812.4614                   22476810.9104
 -43433769.43047 -33826825.74345  21821358.9614                   21821354.6604
 11  8 18  2 30 30.0000000  0  9G12G30G26G10G05G15G25G29G02
 -28300498.37147 -22035729.50745  21732278.6644                   21732276.8244
 -13224150.77347 -10287758.25545  21771768.2424                   21771766.6644
   8951451.87946   6988671.74743  23569274.6334                   23569273.9454
 -25768993.37946 -20063729.98843  23941774.3594                   23941774.0634
 -29567613.11348 -23023098.57046  20546578.1254                   20546575.7504
  18452756.63346                  14392122.01943  24482294.6564   24482293.9774
 -14079404.16847 -10954805.61346  21685986.7424                   21685986.9064
   -552790.06647   -417752.21845  22450828.2424                   22450826.7464
 -43450187.35547 -33839618.90745  21818234.7424                   21818230.4654
 11  8 18  2 31  0.0000000  0  9G12G30G26G10G05G15G25G29G02
 -28288696.85547 -22026533.52846  21734524.3524                   21734522.4384
 -13251704.47747 -10309228.66845  21766525.0004                   21766523.4384
   8801366.32046   6871722.07544  23540714.9064                   23540712.7974
 -25719119.49646 -20024867.37843  23951265.4064                   23951264.5904
 -29591428.70348 -23041656.17346  20542045.8914                   20542043.7194
  18301662.72746                  14274386.68943  24453541.7114   24453541.9224
 -14127165.04347 -10992021.87946  21676898.1484                   21676898.3284
   -689195.46947   -524042.10745  22424871.3284                   22424869.5904
 -43466479.88347 -33852314.38345  21815134.8444                   21815130.6604
 11  8 18  2 31 30.0000000  0  9G12G30G26G10G05G15G25G29G02
 -28276464.75447 -22017002.03045  21736852.0394                   21736849.8204
 -13278673.26647 -10330243.30845  21761393.0084                   21761391.5824
   8651427.55147   6754886.73943  23512181.7194                   23512180.0274
 -25669082.58646 -19985877.60343  23960787.8284                   23960785.5124
 -29614711.54348 -23059798.63446  20537615.6724                   20537613.0084
  18150510.42246                  14156605.82043  24424778.2114   24424777.9964
 -14174320.21548 -11028766.15946  21667924.8444                   21667925.0474
   -825457.72747   -630220.44545  22398941.1564                   22398939.0084
 -43482648.44147 -33864913.24445  21812057.7894                   21812053.8754
 11  8 18  2 32  0.0000000  0  9G12G30G26G10G05G15G25G29G02
 -28263801.73847 -22007134.74045  21739261.2814                   21739259.4804
 -13305055.96547 -10350801.24745  21756372.5164                   21756371.0124
   8501641.99246   6638170.78243  23483677.9534                   23483677.6844
 -25618882.10946 -19946760.36743  23970340.5864                   23970338.5354
 -29637460.29748 -23077524.92646  20533286.5704                   20533284.1804
  17999305.47346                  14038783.85643  24396005.1644   24396003.9574
 -14220867.55547 -11065036.80046  21659067.4144                   21659067.8674
   -961571.64147   -736283.17545  22373039.5944                   22373037.7274
 -43498690.02347 -33877413.15545  21809005.2734                   21809000.6254
 11  8 18  2 32 30.0000000  0  9G12G30G26G10G05G15G25G29G02
 -28250707.47747 -21996931.41945  21741753.0944                   21741751.5554
 -13330851.88347 -10370901.95745  21751463.7424                   21751462.4024
   8352015.92646   6521579.09643  23455204.6484                   23455205.4614
 -25568518.14546 -19907515.75343  23979924.9224                   23979923.2234
 -29659674.38348 -23094834.59646  20529059.2664                   20529057.1524
  17848052.94546                  13920924.88643  24367222.5164   24367221.2814
 -14266805.31647 -11100832.45646  21650325.6644                   21650326.0904
  -1097532.82847   -842226.93045  22347167.1174                   22347165.2154
 -43514602.54747 -33889812.52345  21805977.2734                   21805972.7814
 11  8 18  2 33  0.0000000  0  9G12G30G26G10G05G15G25G29G02
 -28237193.03947 -21986400.68346  21744324.7504                   21744323.5004
 -13356070.45347 -10390552.77945  21746665.2344                   21746663.3244
   8202545.14846   6405108.39644  23426761.4694                   23426762.2234
 -25518000.59446 -19868151.40243  23989537.9304                   23989536.6094
 -29681363.28148 -23111735.02546  20524931.9534                   20524929.6914
  17696747.98046                  13803025.06643  24338430.3674   24338429.1214
 -14312142.02347 -11136159.76246  21641697.9694                   21641698.3094
  -1233346.64847   -948055.84445  22321322.0944                   22321320.3134
 -43530393.48447 -33902117.12445  21802972.1174                   21802967.6884
 11  8 18  2 33 30.0000000  0  9G12G30G26G10G05G15G25G29G02
 -28223256.71947 -21975541.22246  21746977.1174                   21746975.3634
 -13380709.22347 -10409751.80745  21741976.6484                   21741974.7464
   8053237.68047   6288764.97544  23398350.7194                   23398348.7814
 -25467327.86346 -19828666.20343  23999179.9454                   23999178.9304
 -29702524.77748 -23128224.49546  20520905.2974                   20520902.8634
  17545397.30146                  13685089.58843  24309629.2034   24309628.0864
 -14356874.17647 -11171015.97846  21633185.9454                   21633185.8364
  -1369007.14147  -1053765.28345  22295506.7424                   22295505.0784
 -43546058.60247 -33914323.70145  21799991.3284                   21799987.0864
 11  8 18  2 34  0.0000000  0  9G12G30G26G10G05G15G25G29G02
 -28208897.00847 -21964351.84546  21749710.0634                   21749707.8054
 -13404765.99647 -10428497.34945  21737398.5864                   21737396.7424
   7904101.18047   6172554.78444  23369969.9924                   23369968.8054
 -25416498.62546 -19789059.06543  24008852.6254                   24008851.9224
 -29723156.23048 -23144300.93946  20516979.1174                   20516976.6644
  17394007.88346                  13567123.96243  24280821.6724   24280820.1374
 -14400998.69547 -11205398.71046  21624789.1644                   21624789.5864
  -1504508.38347  -1159350.63545  22269722.2974                   22269720.5744
 -43561594.04747 -33926429.23445  21797034.5704                   21797030.6024
 11  8 18  2 34 30.0000000  0  9G12G30G26G10G05G15G25G29G02
 -28194120.18047 -21952837.44846  21752521.4614                   21752519.9104
 -13428246.33647 -10446793.70245  21732930.2734                   21732928.7934
   7755135.65246   6056477.80344  23341622.9224                   23341622.3484
 -25365518.96946 -19749334.67243  24018554.6094                   24018552.9964
 -29743263.38748 -23159968.85446  20513152.5394                   20513150.6884
  17242578.35546                  13449126.98343  24252004.4144   24252004.6684
 -14444520.10548 -11239311.49146  21616507.4614                   21616507.8554
  -1639851.72347  -1264812.95145  22243966.5084                   22243964.8594
 -43577003.25047 -33938436.40345  21794102.8134                   21794098.3794
 11  8 18  2 35  0.0000000  0  9G12G30G26G10G05G15G25G29G02
 -28178928.63747 -21940999.88746  21755412.5634                   21755410.7034
 -13451151.88747 -10464642.18745  21728571.4224                   21728570.1454
   7606344.87147   5940536.97944  23313308.7894                   23313308.4384
 -25314391.23046 -19709494.86343  24028283.1804                   24028281.6764
 -29762847.92248 -23175229.52146  20509425.9924                   20509423.5124
  17091112.30146                  13331101.67643  24223181.2274   24223181.4104
 -14487439.11748 -11272754.86246  21608340.3054                   21608340.7934
  -1775034.72347  -1370150.31545  22218242.6484                   22218240.9104
 -43592285.91847 -33950344.96245  21791194.3594                   21791190.3754
 11  8 18  2 35 30.0000000  0  9G12G30G26G10G05G15G25G29G02
 -28163327.19947 -21928842.92846  21758381.4534                   21758379.5434
 -13473486.53947 -10482045.80645  21724321.2034                   21724319.9734
   7457730.59447   5824733.70944  23285028.2274                   23285027.7234
 -25263120.08246 -19669543.26543  24038038.7504                   24038037.2734
 -29781913.69148 -23190085.96246  20505797.4614                   20505795.4884
  16939610.09046                  13213048.18543  24194351.2424   24194351.7074
 -14529758.68048 -11305731.11546  21600286.9064                   21600287.5084
  -1910057.34847  -1475362.72845  22192548.7734                   22192546.8954
 -43607444.23047 -33962156.62645  21788309.6024                   21788305.7704
 11  8 18  2 36  0.0000000  0  9G12G30G26G10G05G15G25G29G02
 -28147317.81647 -21916368.11245  21761428.2344                   21761426.0314
 -13495251.29347 -10499005.34245  21720179.8134                   21720178.1414
   7309297.15247   5709071.30544  23256782.7504                   23256782.1024
 -25211707.16846 -19629481.28243  24047822.7894                   24047820.9494
 -29800461.51248 -23204538.81146  20502268.1954                   20502266.2114
  16788075.39846                  13094969.34743  24165514.8754   24165514.8094
 -14571478.85548 -11338240.33646  21592347.9534                   21592348.3364
  -2044916.65247  -1580447.86345  22166885.0864                   22166883.7424
 -43622477.25047 -33973870.64545  21785449.0634                   21785444.7814
 11  8 18  2 36 30.0000000  0  9G12G30G26G10G05G15G25G29G02
 -28130901.85947 -21903576.46445  21764552.1804                   21764550.1294
 -13516447.23447 -10515521.66345  21716146.2114                   21716144.8754
   7161049.47347   5593553.68944  23228572.0944                   23228570.9694
 -25160153.81246 -19589309.80942  24057632.6804                   24057631.4304
 -29818492.39548 -23218588.84646  20498836.9534                   20498835.0394
  16636511.98046                  12976868.10443  24136673.0394   24136673.7074
 -14612599.66448 -11370282.52346  21584523.0704                   21584523.5434
  -2179609.60947  -1685403.38745  22141254.0634                   22141252.6884
 -43637383.99247 -33985486.28545  21782612.2664                   21782608.4804
 11  8 18  2 37  0.0000000  0  9G12G30G26G10G05G15G25G29G02
 -28114083.11347 -21890470.94845  21767752.3054                   21767750.4264
 -13537077.25847 -10531597.00645  21712220.6174                   21712219.3834
   7012990.16846   5478182.85644  23200397.0314                   23200396.2854
 -25108463.10546 -19549031.34842  24067469.3524                   24067468.6564
 -29836009.32448 -23232238.39146  20495503.7894                   20495501.6294
  16484921.36746                  12858745.70843  24107826.3134   24107826.2894
 -14653123.11348 -11401859.21546  21576811.6804                   21576812.0514
  -2314135.20747  -1790228.49845  22115654.9614                   22115653.3984
 -43652165.64147 -33997004.42645  21779799.6804                   21779795.2194
 11  8 18  2 37 30.0000000  0  9G12G30G26G10G05G15G25G29G02
 -28096866.12947 -21877055.13045  21771028.8914                   21771026.7974
 -13557144.75447 -10547234.00345  21708401.6254                   21708400.3444
   6865121.31646   5362960.44144  23172258.4614                   23172257.3834
 -25056639.34846 -19508649.18042  24077331.7894                   24077330.7154
 -29853015.59448 -23245490.02446  20492267.3054                   20492265.1174
  16333305.22346                  12740603.42843  24078975.0084   24078974.4494
 -14693051.69548 -11432972.39346  21569213.4694                   21569213.7504
  -2448492.63747  -1894922.56945  22090087.2584                   22090085.7194
 -43666822.97747 -34008425.74745  21777010.5474                   21777005.9144
 11  8 18  2 38  0.0000000  0  9G12G30G26G10G05G15G25G29G02
 -28079251.95347 -21863329.80345  21774380.1334                   21774378.5554
 -13576650.19947 -10562433.04845  21704689.8284                   21704688.1214
   6717448.21547   5247890.57044  23144157.7424                   23144156.4964
 -25004683.47346 -19468164.09442  24087218.7034                   24087216.6174
 -29869511.48447 -23258343.96246  20489128.0314                   20489126.1254
  16181667.44946                  12622444.23543  24050119.0234   24050118.0944
 -14732384.89848 -11463621.62246  21561728.4224                   21561728.6764
  -2582678.28547  -1999482.79545  22064552.6804                   22064550.9414
 -43681354.70347 -34019749.14845  21774245.0704                   21774240.5904
 11  8 18  2 38 30.0000000  0  9G12G30G26G10G05G15G25G29G02
 -28061241.70747 -21849295.87045  21777807.7344                   21777805.9884
 -13595594.10947 -10577194.54945  21701085.4064                   21701083.1844
   6569976.24647   5132977.34444  23116094.3754                   23116093.4344
 -24952595.99646 -19427576.43442  24097130.8284                   24097128.3444
 -29885497.54347 -23270800.63046  20486086.6644                   20486084.3404
  16030012.71946                  12504271.85544  24021259.8834   24021259.4264
 -14771122.28548 -11493806.59146  21554357.1334                   21554357.1294
  -2716688.23447  -2103906.09945  22039051.0554                   22039050.0044
 -43695759.16447 -34030973.41445  21771504.3364                   21771499.9884
 11  8 18  2 39  0.0000000  0  9G12G30G26G10G05G15G25G29G02
 -28042841.46947 -21834958.03145  21781308.6954                   21781307.3134
 -13613981.85947 -10591522.66245  21697585.6564                   21697584.1214
   6422705.66446   5018221.12744  23088069.5164                   23088069.3094
 -24900383.24246 -19386891.16442  24107066.5394                   24107063.8754
 -29900978.87148 -23282863.98746  20483140.3754                   20483138.2894
  15878340.68446                  12386085.99544  23992397.4924   23992397.1174
 -14809268.21548 -11523530.67346  21547097.7424                   21547098.1844
  -2850523.66847  -2208193.41345  22013583.4224                   22013581.9924
 -43710039.81247 -34042101.17545  21768786.5554                   21768782.1524
 11  8 18  2 39 30.0000000  0  9G12G30G26G10G05G15G25G29G02
 -28024054.00047 -21820318.45645  21784883.9534                   21784882.1844
 -13631815.26647 -10605418.82545  21694192.3914                   21694190.3364
   6275640.30146   4903624.79344  23060083.8444                   23060083.3204
 -24848046.99246 -19346109.66442  24117025.5004                   24117023.7504
 -29915957.56248 -23294535.69946  20480290.3524                   20480288.1684
  15726653.87946                  12267888.57343  23963532.2034   23963531.8054
 -14846823.74248 -11552794.71246  21539951.4844                   21539951.6484
  -2984182.35547  -2312343.01345  21988149.3594                   21988147.2854
 -43724196.13347 -34053132.07445  21766092.3834                   21766088.6094
 11  8 18  2 40  0.0000000  0  9G12G30G26G10G05G15G25G29G02
 -28004883.50847 -21805380.42945  21788532.3134                   21788530.2974
 -13649098.18047 -10618886.04545  21690903.4614                   21690901.8404
   6128782.21946   4789189.94544  23032138.0944                   23032136.7774
 -24795591.51646 -19305235.30343  24127007.9534                   24127005.4574
 -29930437.13747 -23305818.48146  20477534.5704                   20477532.2154
  15574953.72346                  12149680.81343  23934665.3204   23934663.4384
 -14883791.56248 -11581600.80046  21532916.5864                   21532917.0704
  -3117664.12947  -2416354.72445  21962748.2274                   21962746.8754
 -43738229.71547 -34064067.34145  21763421.7814                   21763418.3594
 11  8 18  2 40 30.0000000  0  9G12G30G26G10G05G15G25G29G02
 -27985329.41447 -21790143.47445  21792253.5084                   21792251.1454
 -13665829.07447 -10631923.09945  21687720.0394                   21687717.9224
   5982138.71146   4674922.33544  23004232.1644                   23004230.9654
 -24743015.75846 -19264267.11543  24137012.1484                   24137009.8714
 -29944415.96548 -23316711.07846  20474874.7424                   20474872.4494
  15423246.49246                  12031467.48743  23905795.9144   23905794.7624
 -14920169.59448 -11609947.31346  21525994.1174                   21525994.1724
  -3250962.98047  -2520223.91745  21937381.8984                   21937380.1414
 -43752137.14147 -34074904.30145  21760775.5394                   21760771.1564
 11  8 18  2 41  0.0000000  0  9G12G30G26G10G05G15G25G29G02
 -27965395.23848 -21774610.36545  21796046.6884                   21796044.8834
 -13682010.96947 -10644532.38245  21684640.4454                   21684639.0124
   5835712.73047   4560824.22644  22976369.2274                   22976367.1094
 -24690322.72346 -19223207.54343  24147040.2814                   24147037.2274
 -29957897.12548 -23327215.86646  20472309.3524                   20472306.9734
  15271534.19546                  11913250.19343  23876925.8594   23876924.4224
 -14955959.64548 -11637835.66446  21519183.4774                   21519183.8094
  -3384077.57447  -2623949.53445  21912051.6644                   21912049.2274
 -43765918.94147 -34085643.37445  21758152.9304                   21758149.3484
 11  8 18  2 41 30.0000000  0  9G12G30G26G10G05G15G25G29G02
 -27945086.42647 -21758785.34945  21799911.3754                   21799909.3244
 -13697648.71147 -10656717.63545  21681664.7664                   21681662.9224
   5689505.16846   4446896.32444  22948546.0234                   22948544.6644
 -24637517.93446 -19182060.98743  24157087.9144                   24157084.8874
 -29970885.16048 -23337336.41346  20469838.1094                   20469835.4024
  15119816.94946                  11795029.07543  23848054.5314   23848053.8874
 -14991165.75848 -11665269.00746  21512484.2584                   21512484.2814
  -3517008.52747  -2727532.05845  21886755.6174                   21886753.6094
 -43779577.94147 -34096286.75245  21755553.8524                   21755549.2344
 11  8 18  2 42  0.0000000  0  9G12G30G26G10G05G15G25G29G02
 -26348984.64547 -20515069.67245  22103639.7974                   22103637.7154
 -12137321.83247  -9440878.50745  21978585.0704                   21978583.5554
   7118946.78547   5560746.96044  23220559.4614                   23220558.8874
 -23009182.97746 -17913228.46843  24466949.6254                   24466947.1844
 -28407959.24647 -22119472.05146  20767252.5864                   20767250.3444
  16543524.74246                  12904411.88643  24118977.2344   24118976.3364
 -13450365.92648 -10464645.75046  21805688.6024                   21805688.9964
  -2074327.10547  -1603364.64845  22161288.6024                   22161286.5004
 -42217691.10947 -32879232.06245  22052770.8834                   22052766.8714
 11  8 18  2 42 30.0000000  0  9G12G30G26G10G05G15G25G29G02
 -26327934.26247 -20498666.80745  22107645.0084                   22107643.3794
 -12151876.73047  -9452220.00545  21975815.2194                   21975813.6604
   6973188.23447   5447168.91144  23192823.2894                   23192821.7504
 -22956159.73046 -17871911.63243  24477039.1884                   24477037.7344
 -28419965.80147 -22128827.81346  20764967.8444                   20764965.4774
  16391807.16446                  12786190.51043  24090106.0234   24090106.2424
 -13484406.85548 -10491171.15546  21799210.6254                   21799211.3134
  -2206883.06247  -1706654.95345  22136064.1564                   22136061.8404
 -42231102.90647 -32889682.81245  22050218.7424                   22050214.6684
 11  8 18  2 43  0.0000000  0  9G12G30G26G10G05G15G25G29G02
 -26306515.59847 -20481976.93845  22111721.0704                   22111719.3244
 -12165891.85247  -9463140.86245  21973148.2504                   21973146.3984
   6827661.42647   5333771.46744  23165130.2034                   23165128.6174
 -22903029.49246 -17830511.43143  24487149.9774                   24487147.6564
 -28431483.19147 -22137802.39646  20762776.4694                   20762773.9654
  16240095.34446                  12667973.57543  24061236.5004   24061236.9064
 -13517865.46948 -10517242.79646  21792844.1024                   21792844.1604
  -2339246.53947  -1809795.27145  22110875.8284                   22110874.2074
 -42244389.24247 -32900035.81545  22047690.4454                   22047686.3094
 11  8 18  2 43 30.0000000  0  9G12G30G26G10G05G15G25G29G02
 -26284734.11347 -20465004.36645  22115865.7894                   22115863.8914
 -12179371.88347  -9473644.78845  21970583.1414                   21970581.2704
   6682367.70746   5220555.64744  23137480.9064                   23137479.8714
 -22849797.27746 -17789031.78942  24497279.6024                   24497277.3444
 -28442515.98848 -22146399.37446  20760676.4924                   20760674.3164
  16088389.62146                  12549761.43644  24032367.4304   24032367.5394
 -13550745.62948 -10542863.71946  21786586.9694                   21786587.3834
  -2471417.81647  -1912785.81345  22085724.2584                   22085723.1644
 -42257552.57447 -32910292.93045  22045185.3444                   22045181.1804
 11  8 18  2 44  0.0000000  0  9G12G30G26G10G05G15G25G29G02
 -26262592.87547 -20447751.47645  22120079.4924                   22120077.5084
 -12192319.48047  -9483733.82045  21968118.9534                   21968118.0864
   6537310.48046   5107524.08744  23109877.4144                   23109876.7194
 -22796465.35946 -17747474.47342  24507428.5704                   24507426.8284
 -28453066.47748 -22154620.52346  20758669.0164                   20758666.6684
  15936692.66446                  12431556.08444  24003501.0314   24003500.1914
 -13583048.98848 -10568035.16346  21780439.8364                   21780440.0824
  -2603395.15247  -2015625.24945  22060610.2814                   22060608.0314
 -42270593.08647 -32920454.36845  22042703.8674                   22042700.0274
 11  8 18  2 44 30.0000000  0  9G12G30G26G10G05G15G25G29G02
 -26240095.86747 -20430221.33845  22124360.2504                   22124358.3914
 -12204737.90247  -9493410.50145  21965756.2894                   21965754.3954
   6392492.27046   4994678.79944  23082319.6644                   23082318.5594
 -22743037.36746 -17705842.28542  24517595.4224                   24517593.9844
 -28463138.09447 -22162468.52546  20756752.4144                   20756749.5554
  15785006.34846                  12313359.05144  23974635.4924   23974635.0004
 -13614777.95348 -10592759.03346  21774401.9064                   21774402.2624
  -2735177.15647  -2118312.46645  22035532.6564                   22035531.0514
 -42283511.62147 -32930520.76045  22040245.7034                   22040241.2664
 11  8 18  2 45  0.0000000  0  9G12G30G26G10G05G15G25G29G02
 -26217245.30147 -20412415.70645  22128708.3834                   22128706.8014
 -12216628.64547  -9502676.01845  21963493.3524                   21963492.0554
   6247917.76646   4882023.37244  23054808.4614                   23054807.2734
 -22689515.03946 -17664136.59042  24527780.9304                   24527778.5984
 -28472731.90648 -22169944.22246  20754926.9534                   20754924.1254
  15633334.31646                  12195173.14644  23945774.1024   23945772.6564
 -13645933.14147 -10617035.80146  21768473.1884                   21768473.6024
  -2866760.83247  -2220845.15745  22010493.1254                   22010491.0124
 -42296307.16447 -32940491.31745  22037810.7974                   22037806.6684
 11  8 18  2 45 30.0000000  0 10G12G30G26G10G05G15G25G29G02G21
 -26194046.82847 -20394338.97245  22133123.2274                   22133121.4804
 -12227997.38347  -9511534.79245  21961330.2974                   21961328.2504
   6103587.35947   4769558.17944  23027342.8754                   23027341.8714
 -22635903.43746 -17622361.32842  24537981.1254                   24537980.7664
 -28481853.24248 -22177051.75846  20753191.2734                   20753188.7704
  15481676.08646                  12076997.95843  23916913.9224   23916912.6214
 -13676519.37148 -10640869.21846  21762652.4614                   21762652.8914
  -2998147.30947  -2323224.16645  21985490.6414                   21985488.8954
 -42308982.74647 -32950368.37345  22035398.3134                   22035394.2114
  21891796.17656  17068471.57253  25245991.2814                   25245989.5084
 11  8 18  2 46  0.0000000  0 10G12G30G26G10G05G15G25G29G02G21
 -26170512.89147 -20376000.85945  22137601.5004                   22137599.7974
 -12238855.53147  -9519995.68345  21959263.9064                   21959262.4774
   5959495.61346   4657278.95044  22999923.4924                   22999922.3364
 -22582214.34446 -17580525.70342  24548199.2274                   24548197.2934
 -28490513.32448 -22183799.84746  20751543.2424                   20751540.4844
  15330025.43846                  11958828.75244  23888055.7584   23888054.7234
 -13706547.10548 -10664267.45746  21756938.8594                   21756939.3594
  -3129343.64847  -2425455.04245  21960525.7274                   21960523.3634
 -42321547.63347 -32960159.19445  22033007.3674                   22033003.4264
  21779918.06346  16981293.92843  25224700.9454                   25224700.2464
 11  8 18  2 46 30.0000000  0 10G12G30G26G10G05G15G25G29G02G21
 -26146649.93047 -20357406.33945  22142142.4304                   22142140.5864
 -12249208.98847  -9528063.30545  21957293.8134                   21957292.0864
   5815642.52047   4545185.69244  22972549.0394                   22972547.6844
 -22528453.85946 -17538634.45342  24558429.5314                   24558427.8594
 -28498718.01247 -22190193.10446  20749981.5314                   20749979.0594
  15178381.55546                  11840664.73643  23859198.8594   23859197.7074
 -13736021.53548 -10687234.53946  21751330.0634                   21751331.0864
  -3260351.12547  -2527538.74645  21935595.2114                   21935593.0274
 -42334005.32447 -32969866.48245  22030637.3204                   22030632.6684
  21668072.09446  16894141.30343  25203417.8984                   25203416.9384
 11  8 18  2 47  0.0000000  0 10G12G30G26G10G05G15G25G29G02G21
 -26122456.86347 -20338554.61145  22146746.6804                   22146744.3524
 -12259056.16447  -9535736.43445  21955419.6024                   21955418.0634
   5672035.96147   4433284.51944  22945221.3364                   22945219.1764
 -22474619.80546 -17496685.84442  24568674.3284                   24568671.3324
 -28506465.62948 -22196230.20546  20748507.4224                   20748504.9964
  15026751.60546                  11722511.62744  23830343.9694   23830343.2934
 -13764940.01648 -10709768.42446  21745826.9454                   21745827.6914
  -3391163.26247  -2629470.23545  21910702.5164                   21910700.3874
 -42346351.36347 -32979486.77945  22028287.8524                   22028283.1954
  21556261.66846  16807016.35843  25182140.8834                   25182139.0824
 11  8 18  2 47 30.0000000  0 10G12G30G26G10G05G15G25G29G02G21
 -26097937.33647 -20319448.50345  22151412.2584                   22151410.1684
 -12268400.51247  -9543017.73345  21953641.7974                   21953639.8014
   5528678.54347   4321577.50844  22917941.2504                   22917939.6884
 -22420715.67646 -17454682.72342  24578931.6024                   24578929.5164
 -28513759.36747 -22201913.61146  20747119.5234                   20747116.9654
  14875137.32447                  11604370.66644  23801493.4224   23801492.1414
 -13793305.30148 -10731871.23746  21740429.1024                   21740430.0784
  -3521779.17247  -2731248.84045  21885847.2194                   21885845.1484
 -42358587.10547 -32989021.11445  22025959.7504                   22025955.1564
  21444485.36746  16719917.97043  25160870.2114                   25160869.0234
 11  8 18  2 48  0.0000000  0 10G12G30G26G10G05G15G25G29G02G21
 -26073095.43747 -20300091.18745  22156139.3284                   22156137.0474
 -12277245.15247  -9549909.66845  21951958.3134                   21951957.0904
   5385573.34047   4210067.02044  22890709.6254                   22890708.1954
 -22366744.40646 -17412627.19343  24589202.4694                   24589199.8284
 -28520601.94547 -22207245.47646  20745817.4774                   20745814.8054
  14723540.73446                  11486243.50944  23772645.3444   23772645.0474
 -13821119.60548 -10753544.72246  21735136.6024                   21735136.9534
  -3652197.35247  -2832873.35945  21861029.6564                   21861027.5434
 -42370712.60947 -32998469.55945  22023651.6804                   22023647.3594
  21332741.81346  16632845.22443  25139605.7424                   25139605.4024
 11  8 18  2 48 30.0000000  0 10G12G30G26G10G05G15G25G29G02G21
 -26047933.27347 -20280484.34045  22160927.9304                   22160925.4614
 -12285591.92247  -9556413.63945  21950370.2274                   21950368.5554
   5242724.55947   4098756.32144  22863526.1644                   22863525.5044
 -22312708.04346 -17370520.92143  24599484.8524                   24599483.3554
 -28526994.89847 -22212226.99646  20744600.9844                   20744598.4734
  14571965.46947                  11368132.98644  23743802.0554   23743801.1804
 -13848383.89148 -10774789.62046  21729948.4844                   21729948.7504
  -3782414.63747  -2934341.35745  21836249.8674                   21836247.7814
 -42382727.32847 -33007831.67445  22021365.7194                   22021360.9844
  21221031.23446  16545798.07443  25118348.0084                   25118347.5904
 11  8 18  2 49  0.0000000  0  9G12G30G26G05G15G25G29G02G21
 -26022449.33247 -20260626.72645  22165777.0004                   22165775.5124
 -12293438.72747  -9562528.03045  21948877.4304                   21948875.0784
   5100140.64147   3987652.01744  22836393.0784                   22836392.1914
 -28532935.93047 -22216856.35146  20743470.1024                   20743467.8524
  14420419.10946                  11250044.97544  23714963.2504   23714962.9734
 -13875095.23048 -10795603.63846  21724865.1174                   21724865.5234
  -3912424.46947  -3035647.69445  21811509.8204                   21811507.5824
 -42394626.55947 -33017103.78645  22019101.1174                   22019097.0234
  21109357.48046  16458779.57842  25097097.9694                   25097095.7854
 11  8 18  2 49 30.0000000  0  9G12G30G26G05G15G25G29G02G21
 -25996642.00047 -20240517.15645  22170688.4924                   22170686.0554
 -12300783.47747  -9568251.19945  21947479.7504                   21947477.6174
   4957829.77047   3876760.47544  22809312.6254                   22809310.7344
 -28538423.00447 -22221131.98146  20742426.1954                   20742423.9384
  14268908.98047                  11131985.20944  23686130.9844   23686131.5744
 -13901250.73847 -10815984.54546  21719887.8594                   21719888.3984
  -4042220.06247  -3136787.10745  21786810.6644                   21786808.6484
 -42406405.50847 -33026282.21145  22016860.3284                   22016855.3914
  20997724.77346  16371793.06342  25075854.4224                   25075852.2154
 11  8 18  2 50  0.0000000  0  9G12G30G26G05G15G25G29G02G21
 -25970508.42247 -20220153.33445  22175660.9304                   22175659.2234
 -12307623.02347  -9573580.71945  21946177.9614                   21946176.4734
   4815801.28547   3766088.97044  22782285.0394                   22782283.0704
 -28543452.23047 -22225050.85046  20741469.1174                   20741467.0234
  14117443.78146                  11013960.44344  23657308.9844   23657308.0044
 -13926846.43048 -10835929.24046  21715017.5164                   21715017.5164
  -4171793.42247  -3237753.35145  21762153.4844                   21762151.9694
 -42418058.52047 -33035362.48645  22014642.7114                   22014638.2584
  20886138.23446  16284842.61342  25054619.3754                   25054616.7464
 11  8 18  2 50 30.0000000  0  9G12G30G26G05G15G25G29G02G21
 -25944043.88747 -20199531.64645  22180697.1644                   22180695.2424
 -12313952.00047  -9578512.39245  21944973.6644                   21944971.8554
   4674066.89147   3655646.63344  22755313.5314                   22755312.8634
 -28548018.09447 -22228608.64746  20740600.1564                   20740597.6214
  13966034.27346                  10895979.04244  23628496.6564   23628494.9384
 -13951876.07448 -10855432.85846  21710254.6094                   21710254.4614
  -4301134.22747  -3338538.37545  21737540.7734                   21737538.4534
 -42429577.57447 -33044338.37645  22012450.5554                   22012446.0664
  20774605.06645  16197933.70342  25033394.8984                   25033392.8834
 11  8 18  2 51  0.0000000  0  9G12G30G26G05G15G25G29G02G21
 -25917255.34447 -20178657.48545  22185794.6564                   22185793.0594
 -12319777.02047  -9583051.36145  21943865.5394                   21943863.1054
   4532625.98847   3545432.96744  22728397.9534                   22728397.9104
 -28552127.35247 -22231810.65846  20739818.2504                   20739815.8364
  13814679.22746                  10778040.10744  23599694.7274   23599693.4454
 -13976345.53148 -10874499.96346  21705598.0234                   21705598.5044
  -4430244.68747  -3439143.93245  21712971.8754                   21712970.0164
 -42440966.25447 -33053212.67245  22010283.1884                   22010278.8444
  20663120.60945  16111062.78942  25012180.2424                   25012178.2704
 11  8 18  2 51 30.0000000  0  9G12G30G26G05G15G25G29G02G21
 -25890144.43747 -20157532.11845  22190954.1954                   22190951.9804
 -12325099.50847  -9587198.73945  21942851.8754                   21942850.9264
   4391483.59047   3435451.93844  22701539.8204                   22701538.5164
 -28555780.80947 -22234657.49646  20739122.7734                   20739120.4844
  13663382.80546                  10660146.82744  23570903.7034   23570902.0744
 -14000255.30548 -10893130.95846  21701048.0704                   21701048.6094
  -4559121.13748  -3539567.12345  21688447.5784                   21688445.4964
 -42452223.21947 -33061984.32845  22008141.0704                   22008136.8404
  20551685.65645  16024230.42642  24990975.5394                   24990973.7894
 11  8 18  2 52  0.0000000  0  9G12G30G26G05G15G25G29G02G21
 -25862717.84447 -20136160.77245  22196173.3834                   22196171.6564
 -12329925.66047  -9590959.39145  21941933.4064                   21941932.2814
   4250639.84047   3325703.58144  22674738.4224                   22674737.0784
 -28558984.39847 -22237153.79046  20738513.6644                   20738510.9494
  13512144.29746                  10542298.68744  23542123.0634   23542122.4344
 -14023610.83248 -10911330.06746  21696603.8834                   21696603.9414
  -4687764.99648  -3639809.09745  21663967.2814                   21663965.3554
 -42463352.30947 -33070656.36845  22006023.2194                   22006018.7854
  20440295.80546  15937433.31642  24969778.6254                   24969776.1884
 11  8 18  2 52 30.0000000  0  9G12G30G26G05G15G25G29G02G21
 -25834977.28547 -20114544.77245  22201452.1414                   22201450.5434
 -12334256.49247  -9594334.07445  21941109.7114                   21941108.0864
   4110099.99647   3216192.05844  22647994.7114                   22647992.7734
 -28561738.64548 -22239299.93946  20737989.5474                   20737986.6844
  13360968.36746                  10424499.30844  23513355.5234   23513354.6524
 -14046412.29348 -10929097.44046  21692264.6254                   21692265.1414
  -4816172.29748  -3739866.72545  21639532.2114                   21639530.0864
 -42474351.43047 -33079227.12245  22003930.1254                   22003926.0234
  20328952.54345  15850672.42242  24948590.5784                   24948588.1454
 11  8 18  2 53  0.0000000  0  9G12G30G26G05G15G25G29G02G21
 -25806927.84047 -20092688.08045  22206789.7034                   22206787.9264
 -12338096.89847  -9597326.61945  21940378.4774                   21940376.9804
   3969865.28147   3106918.29644  22621308.3134                   22621307.2704
 -28564048.44947 -22241099.77546  20737549.8444                   20737547.4304
  13209855.41046                  10306749.00744  23484599.6884   23484598.4144
 -14068663.87948 -10946436.35546  21688030.6254                   21688030.7544
  -4944343.14547  -3839740.10046  21615142.4614                   21615139.8014
 -42485222.93047 -33087698.42345  22001861.5084                   22001857.1214
  20217652.30545  15763945.11342  24927410.3054                   24927408.3834
 11  8 18  2 53 30.0000000  0  9G12G30G26G05G15G25G29G02G21
 -25778572.88347 -20070593.32145  22212185.3674                   22212183.6804
 -12341449.88347  -9599939.33345  21939740.8054                   21939738.9884
   3829939.07047   2997884.89944  22594681.3984                   22594680.1804
 -28565916.30547 -22242555.24846  20737194.4454                   20737191.6484
  13058808.14546                  10189049.90744  23455856.0554   23455855.6684
 -14090367.84848 -10963348.52746  21683900.3524                   21683900.7424
  -5072275.68748  -3939427.79246  21590797.4924                   21590795.4534
 -42495966.89547 -33096070.35345  21999817.1564                   21999812.8404
  20106394.44945  15677250.85942  24906239.3444                   24906237.1604
 11  8 18  2 54  0.0000000  0  9G12G30G26G05G15G25G29G02G21
 -25749915.40647 -20048262.84345  22217638.9924                   22217636.9304
 -12344317.81247  -9602174.10945  21939194.8834                   21939193.7624
   3690325.38346   2889095.06644  22568113.6724                   22568112.2304
 -28567344.25847 -22243667.94246  20736922.4614                   20736920.0274
  12907829.94946                  10071404.57944  23427126.6254   23427125.5314
 -14111525.64547 -10979835.14646  21679873.8834                   21679874.2854
  -5199967.48047  -4038927.86946  21566498.5004                   21566496.9494
 -42506582.78547 -33104342.49845  21997796.6564                   21997792.6454
  19995179.18046  15590589.73842  24885075.6254                   24885073.5204
 11  8 18  2 54 30.0000000  0  9G12G30G26G05G15G25G29G02G21
 -25720959.50447 -20025699.83745  22223148.9144                   22223146.4694
 -12346704.87547  -9604034.15445  21938740.7194                   21938739.3594
   3551026.47747   2780550.48544  22541606.4694                   22541604.6564
 -28568336.49247 -22244441.09546  20736734.2344                   20736731.3484
  12756922.02046   9953814.06944                  23398409.6174   23398409.1024
 -14132140.69547 -10995898.82846  21675951.2664                   21675951.8014
  -5327417.46547  -4138239.50846  21542245.6644                   21542243.5664
 -42517071.94147 -33112515.87045  21995800.6024                   21995796.6414
  19884003.75445  15503959.68442  24863919.5704                   24863917.8324
 11  8 18  2 55  0.0000000  0  9G12G30G26G05G15G25G29G02G21
 -25691709.85547 -20002907.93745  22228714.8524                   22228712.8754
 -12348615.18046  -9605522.73045  21938377.3444                   21938375.7854
   3412044.34847   2672252.77944  22515158.6724                   22515157.0354
 -28568896.26647 -22244877.28546  20736627.6254                   20736624.5984
  12606085.95746   9836279.54044                  23369705.6954   23369705.7504
 -14152216.34448 -11011542.20246  21672130.8054                   21672131.2974
  -5454625.00847  -4237362.22446  21518038.8444                   21518036.6454
 -42527435.83647 -33120591.62845  21993828.5634                   21993824.0904
  19772866.43446  15417359.35942  24842770.4614                   24842768.4184
 11  8 18  2 55 30.0000000  0  9G12G30G26G05G15G25G29G02G21
 -25662164.32847 -19979885.47645  22234337.3834                   22234335.5044
 -12350046.13747  -9606637.78045  21938105.1724                   21938103.7114
   3273388.09047   2564208.95044  22488772.9694                   22488771.8524
 -28569020.63348 -22244974.18546  20736603.6024                   20736600.9614
  12455330.16446   9718807.54444                  23341018.1884   23341017.3634
 -14171749.25048 -11026762.65946  21668413.8444                   21668414.5704
  -5581582.70348  -4336290.25546  21493879.5864                   21493877.3444
 -42537668.71147 -33128565.30445  21991881.3444                   21991876.8714
  19661771.88746  15330792.34842  24821629.6724                   24821628.1844
 11  8 18  2 56  0.0000000  0  9G12G30G26G05G15G25G29G02G21
 -25632333.08647 -19956640.35545  22240014.4534                   22240012.1884
 -12351007.71547  -9607387.08145  21937922.0474                   21937920.2664
   3135054.25847   2456416.38744  22462448.6334                   22462447.8984
 -28568719.64848 -22244739.64146  20736661.0164                   20736658.2704
  12304650.09846   9601394.55544                  23312344.8364   23312343.6334
 -14190748.66448 -11041567.41346  21664798.5784                   21664798.6254
  -5708295.23448  -4435027.24546  21469766.8204                   21469764.7814
 -42547777.67647 -33136442.42345  21989958.0864                   21989953.2584
  19550712.33646  15244252.47243  24800495.4694                   24800493.1914
 11  8 18  2 56 30.0000000  0  9G12G30G26G05G15G25G29G02G21
 -24026800.09847 -18705575.72145  22545537.1414                   22545535.5664
 -10776082.45747  -8380172.60545  22237620.4694                   22237618.4454
   4572471.02347   3576481.45344  22735980.8204                   22735978.7034
 -26992575.11747 -21016575.06946  21036591.0084                   21036588.6214
  13729473.94946  10711646.97144                  23583479.1414   23583478.1884
 -12633795.78948  -9828357.39546  21961076.3834                   21961077.0434
  -4259336.04747  -3305968.08946  21745494.6254                   21745492.3714
 -40982342.41047 -31916622.74545  22287850.6804                   22287845.7584
  21015110.98446  16385342.54343  25079160.3284                   25079158.9454
 11  8 18  2 57  0.0000000  0  9G12G30G26G05G15G25G29G02G21
 -23996404.90647 -18681891.18945  22551320.9614                   22551319.6054
 -10776111.41447  -8380195.18645  22237614.8364                   22237613.1414
   4434794.70747   3469201.25844  22709781.7734                   22709779.9144
 -26991427.92247 -21015681.15146  21036809.0944                   21036806.9304
  13578956.59846  10594360.78744                  23554838.2114   23554835.5394
 -12651732.07848  -9842333.75946  21957663.5314                   21957664.3634
  -4385549.53147  -3404316.21946  21721476.7114                   21721474.7424
 -40992201.11747 -31924304.87745  22285974.0554                   22285969.8834
  20904121.80546  16298857.63243  25058040.7194                   25058038.6294
 11  8 18  2 57 30.0000000  0  9G12G30G26G05G15G25G29G02G21
 -23965731.18747 -18657989.60745  22557157.9774                   22557156.0944
 -10775677.42247  -8379857.03645  22237697.5554                   22237696.1054
   4297453.72747   3362182.32844  22683646.2344                   22683645.1094
 -26989860.24247 -21014459.58846  21037108.0944                   21037105.3404
  13428525.96146  10477142.20644                  23526210.8754   23526209.2274
 -12669139.02047  -9855897.62546  21954350.9064                   21954351.3754
  -4511509.21147  -3502466.56346  21697506.7344                   21697504.9264
 -41001933.37947 -31931888.45445  22284121.9694                   22284117.7894
  20793167.78146  16212400.11443  25036926.5864                   25036925.3794
 11  8 18  2 58  0.0000000  0  9G12G30G26G05G15G25G29G02G21
 -23934785.31247 -18633875.96145  22563046.7424                   22563045.0434
 -10774786.37147  -8379162.73445  22237867.4064                   22237865.6174
   4160448.35247   3255424.94544  22657575.1174                   22657573.5314
 -26987877.71947 -21012914.76146  21037485.0554                   21037482.4414
  13278181.48446  10359990.72444                  23497601.1174   23497599.7384
 -12686021.76248  -9869053.01645  21951138.4224                   21951138.6414
  -4637216.05547  -3600419.88646  21673586.1334                   21673584.0944
 -41011542.18047 -31939375.83545  22282293.3524                   22282289.4304
  20682245.05946  16125966.97343  25015818.8204                   25015816.9614
 11  8 18  2 58 30.0000000  0  9G12G30G26G05G15G25G29G02G21
 -23903569.20347 -18609551.72645  22568987.0164                   22568985.1094
 -10773439.86347  -8378113.52745  22238123.0704                   22238121.9144
   4023783.47347   3148932.85444  22631568.7114                   22631567.2974
 -26985481.79747 -21011047.79546  21037941.0004                   21037938.5554
  13127927.61746  10242909.87044                  23469009.0004   23469007.0744
 -12702381.19548  -9881800.64345  21948025.6334                   21948025.8244
  -4762666.68747  -3698173.58846  21649713.6804                   21649711.8244
 -41021026.21547 -31946766.01245  22280489.2504                   22280484.7544
  20571354.46946  16039558.83143  24994717.0314                   24994714.8054
 11  8 18  2 59  0.0000000  0  9G12G30G26G05G15G25G29G02G21
 -23872085.14847 -18585018.71745  22574978.2504                   22574976.1684
 -10771640.09847  -8376711.14245  22238465.7584                   22238464.6374
   3887463.31347   3042709.41444  22605627.7194                   22605626.1024
 -26982674.12147 -21008859.99546  21038475.2424                   21038472.7584
  12977768.18446  10125902.59144                  23440434.6484   23440433.0704
 -12718218.73048  -9894141.59546  21945011.6644                   21945012.1134
  -4887857.98847  -3795725.20546  21625890.4924                   21625888.5784
 -41030384.52347 -31954058.20545  22278708.1484                   22278703.8404
  20460496.24246  15953176.01543  24973621.1094                   24973619.0314
 11  8 18  2 59 30.0000000  0  9G12G30G26G05G15G25G29G02G21
 -23840333.38347 -18560277.10245  22581020.2664                   22581018.5634
 -10769386.92647  -8374955.43245  22238894.7424                   22238893.3444
   3751494.54347   2936759.76845  22579753.8594                   22579752.5634
 -26979454.11747 -21006350.89146  21039088.0554                   21039085.3364
  12827708.70746  10008973.20044                  23411878.8284   23411878.0124
 -12733533.63748  -9906075.31246  21942097.3134                   21942098.1174
  -5012784.74247  -3893070.69246  21602117.9614                   21602115.9924
 -41039614.11347 -31961250.08545  22276951.9694                   22276947.6294
  20349672.62146  15866820.04243  24952532.4304                   24952529.5004
 11  8 18  3  0  0.0000000  0  9G12G30G26G05G15G25G29G02G21
 -23808319.45347 -18535331.19645  22587112.4844                   22587110.8754
 -10766685.50047  -8372850.46045  22239408.6094                   22239406.9694
   3615878.37947   2831084.88244  22553946.9614                   22553945.0984
 -26975826.35247 -21003524.07146  21039778.2504                   21039775.5944
  12677750.17247   9892122.48044                  23383343.0944   23383342.3524
 -12748330.21547  -9917605.13345  21939281.8444                   21939282.3914
  -5137446.70747  -3990209.84446  21578395.3674                   21578392.9104
 -41048717.15247 -31968343.38745  22275220.1884                   22275215.0124
  20238880.50846  15780488.66743  24931448.4924                   24931447.3054
 11  8 18  3  0 30.0000000  0  9G12G30G26G05G15G25G29G02G21
 -23776047.70747 -18510184.40545  22593252.9534                   22593252.2424
 -10763540.29346  -8370399.65745  22240006.8754                   22240005.0784
   3480617.19147   2725686.57344  22528207.2584                   22528205.5784
 -26971794.90247 -21000382.67446  21040545.4384                   21040543.0434
  12527893.57847   9775351.18044                  23354826.0004   23354825.3444
 -12762612.31248  -9928734.05745  21936563.8284                   21936564.2504
  -5261843.58647  -4087142.45845  21554723.3284                   21554721.2034
 -41057694.65247 -31975338.82745  22273511.4304                   22273506.7704
  20128117.95346  15694180.25543  24910371.3284                   24910369.4304
 11  8 18  3  1  0.0000000  0  9G12G30G26G05G15G25G29G02G21
 -23743519.64847 -18484837.89245  22599443.3594                   22599441.4804
 -10759952.34047  -8367603.87745  22240689.7974                   22240689.0474
   3345715.93847   2620568.75944  22502536.1254                   22502534.8364
 -26967361.00447 -20996927.69946  21041389.0084                   21041386.9384
  12378144.16847   9658663.38344                  23326330.3594   23326329.1294
 -12776380.37147  -9939462.42845  21933943.9144                   21933943.9024
  -5385970.89148  -4183864.99546  21531102.5314                   21531100.7154
 -41066544.71947 -31982235.02545  22271826.4774                   22271822.5354
  20017385.78946  15607895.61043  24889300.4384                   24889297.6724
 11  8 18  3  1 30.0000000  0  9G12G30G26G05G15G25G29G02G21
 -23710740.56247 -18459295.75345  22605681.5554                   22605679.5314
 -10755926.72347  -8364467.04545  22241455.9844                   22241454.8554
   3211176.29347   2515732.70444  22476934.4144                   22476932.8834
 -26962528.79347 -20993162.33746  21042308.7114                   21042306.1484
  12228502.62147   9542059.66144                  23297853.9064   23297852.9734
 -12789638.63348  -9949793.55646  21931420.9844                   21931421.3874
  -5509828.88347  -4280377.69846  21507533.1954                   21507531.1134
 -41075269.62947 -31989033.65345  22270166.8754                   22270162.5514
  19906681.76246  15521632.91643  24868232.8134                   24868230.6294
 11  8 18  3  2  0.0000000  0  9G12G30G26G05G15G25G29G02G21
 -23677713.59447 -18433560.46345  22611965.8984                   22611964.0084
 -10751466.33647  -8360991.43945  22242305.0944                   22242303.3984
   3077001.87947   2411181.23944  22451402.4064                   22451400.0784
 -26957300.38747 -20989088.25246  21043303.7344                   21043301.2194
  12078971.90247   9425542.28644                  23269398.9614   23269397.3674
 -12802389.33247  -9959729.17545  21928994.2344                   21928995.2274
  -5633415.26247  -4376678.74546  21484015.3134                   21484013.6484
 -41083868.66447 -31995734.18145  22268530.4924                   22268526.2734
  19796005.18446  15435391.51043  24847171.7814                   24847169.6994
 11  8 18  3  2 30.0000000  0  9G12G30G26G05G15G25G29G02G21
 -23644439.30947 -18407632.46445  22618298.1884                   22618296.2234
 -10746571.78547  -8357177.51645  22243236.1724                   22243234.4494
   2943198.60247   2306918.97744  22425940.3284                   22425938.5594
 -26951676.25847 -20984705.81946  21044374.0164                   21044371.5004
  11929557.66447   9309115.67044                  23240967.0394   23240964.9144
 -12814632.36748  -9969269.21745  21926664.9224                   21926665.3204
  -5756725.05547  -4472764.28646  21460550.1804                   21460548.4304
 -41092339.32047 -32002334.71645  22266918.5784                   22266914.5434
  19685357.75446  15349172.92043  24826116.6884                   24826115.2664
 11  8 18  3  3  0.0000000  0  9G12G30G26G05G15G25G29G02G21
 -23610923.11347 -18381515.96545  22624675.8284                   22624674.1564
 -10741248.09447  -8353029.19645  22244249.1644                   22244247.8874
   2809767.83647   2202947.00444  22400549.1804                   22400547.4064
 -26945660.93747 -20980018.56846  21045518.3134                   21045516.3284
  11780260.24647   9192780.08744                  23212556.3364   23212554.3444
 -12826372.25047  -9978417.17745  21924430.6414                   21924431.1994
  -5879758.69148  -4568634.65346  21437138.1804                   21437135.9414
 -41100683.59047 -32008836.76245  22265330.7814                   22265326.8524
  19574736.86346  15262974.85643  24805065.9064                   24805064.0704
 11  8 18  3  3 30.0000000  0  9G12G30G26G05G15G25G29G02G21
 -23577164.61347 -18355210.66245  22631099.8204                   22631097.5354
 -10735494.53947  -8348545.93145  22245344.0474                   22245343.0984
   2676716.97747   2099271.05644  22375230.1644                   22375228.9144
 -26939253.05547 -20975025.41546  21046738.0554                   21046735.8404
  11631086.46147   9076540.82744                  23184169.9064   23184168.0514
 -12837607.46948  -9987171.91045  21922292.9774                   21922293.3484
  -6002509.84047  -4664284.89146  21413779.2274                   21413777.2034
 -41108897.57447 -32015237.26745  22263768.0784                   22263763.5274
  19464145.51246  15176799.95943  24784019.5864                   24784019.1174
 11  8 18  3  4  0.0000000  0  9G12G30G26G05G15G25G29G02G21
 -23543170.07047 -18328721.43045  22637568.8444                   22637567.1954
 -10729317.57847  -8343732.73545  22246519.7344                   22246518.5554
   2544045.89847   1995891.01744  22349983.4774                   22349981.9184
 -26932458.99647 -20969731.36146  21048031.2034                   21048028.4184
  11482035.96547   8960397.62444                  23155806.5554   23155804.2194
 -12848343.80547  -9995537.88446  21920249.8054                   21920250.2344
  -6124979.63348  -4759715.89346  21390474.2344                   21390472.0434
 -41116984.82847 -32021539.05645  22262229.0634                   22262224.6804
  19353579.62546  15090644.85243  24762980.1094                   24762978.8324
 11  8 18  3  4 30.0000000  0  9G12G30G26G05G15G25G29G02G21
 -23508941.43447 -18302049.79645  22644082.9224                   22644080.3484
 -10722719.01247  -8338591.01645  22247775.6024                   22247774.2234
   2411759.48047   1892810.75544  22324810.7584                   22324808.3284
 -26925279.87947 -20964137.23246  21049396.6024                   21049394.5234
  11333112.99247   8844353.81344                  23127467.6334   23127465.2624
 -12858582.43748 -10003516.04945  21918301.4614                   21918301.5824
  -6247164.52048  -4854924.89046  21367223.1724                   21367220.6564
 -41124943.54347 -32027740.66145  22260714.3834                   22260710.0394
  19243039.89846  15004510.10443  24741946.2734                   24741943.9384
 11  8 18  3  5  0.0000000  0  9G12G30G26G05G15G25G29G02G21
 -23474485.08647 -18275200.70245  22650639.3204                   22650637.6764
 -10715704.87547  -8333125.45945  22249110.2664                   22249108.4844
   2279858.28147   1790030.62845  22299710.2584                   22299708.9454
 -26917721.23847 -20958247.38746  21050835.8984                   21050833.2384
  11184317.44547   8728409.28144                  23099151.8834   23099150.2384
 -12868328.78947 -10011110.59545  21916446.6884                   21916447.1564
  -6369065.48448  -4949912.65346  21344026.2114                   21344023.7734
 -41132776.72747 -32033844.44145  22259223.4304                   22259219.1174
  19132522.71146  14918392.94443  24720915.3204                   24720912.9694
 11  8 18  3  5 30.0000000  0  9G12G30G26G05G15G25G29G02G21
 -23439800.88347 -18248174.06745  22657239.6254                   22657237.5704
 -10708274.75047  -8327335.77345  22250524.1174                   22250522.7584
   2148349.10547   1687555.97444  22274684.7424                   22274683.3594
 -26909782.07447 -20952061.01346  21052346.1484                   21052343.8444
  11035655.59447   8612568.91044                  23070862.7194   23070860.9964
 -12877581.76647 -10018320.72045  21914686.0004                   21914686.4454
  -6490676.63748  -5044674.60046  21320884.1954                   21320881.8524
 -41140480.71947 -32039847.58145  22257757.9924                   22257753.5664
  19022030.89546  14832295.52742  24699888.9534                   24699886.3484
 11  8 18  3  6  0.0000000  0  9G12G30G26G05G15G25G29G02G21
 -23404894.32847 -18220974.16145  22663881.8984                   22663880.0084
 -10700434.35247  -8321226.40545  22252015.8594                   22252014.8244
   2017232.93047   1585387.54144  22249734.3134                   22249732.8634
 -26901467.59047 -20945582.19846  21053928.5084                   21053925.9494
  10887127.88747   8496833.06744                  23042598.4924   23042597.7774
 -12886346.46948 -10025150.38345  21913017.6954                   21913018.2344
  -6611998.49248  -5139211.10846  21297797.4384                   21297795.2814
 -41148057.84847 -32045751.84645  22256315.5784                   22256311.5594
  18911561.06346  14746215.22742  24678867.1024                   24678864.8524
 11  8 18  3  6 30.0000000  0  9G12G30G26G05G15G25G29G02G21
 -23369769.37947 -18193604.09245  22670565.9224                   22670563.7664
 -10692187.39546  -8314800.17945  22253585.5634                   22253584.0234
   1886512.59047   1483527.59044  22224858.9384                   22224857.1844
 -26892780.88747 -20938813.34246  21055581.3984                   21055579.1844
  10738736.57447   8381203.54844                  23014360.2344   23014359.4574
 -12894626.02047 -10031601.98145  21911442.1254                   21911442.8674
  -6733029.18748  -5233520.73646  21274766.0634                   21274763.9694
 -41155508.54347 -32051557.58845  22254898.1094                   22254893.6334
  18801112.08246  14660151.12542  24657849.5234                   24657846.5004
 11  8 18  3  7  0.0000000  0  9G12G30G26G05G15G25G29G02G21
 -23334425.68447 -18166063.55845  22677291.7274                   22677289.5784
 -10683533.29747  -8308056.76545  22255232.2664                   22255230.8284
   1756195.24647   1381981.63544  22200060.1174                   22200058.4804
 -26883721.15647 -20931753.80346  21057305.4454                   21057302.8094
  10590488.25847   8265685.40944                  22986149.5084   22986148.3014
 -12902419.15648 -10037674.56745  21909959.5394                   21909960.0634
  -6853762.95348  -5327598.99546  21251790.8914                   21251788.8714
 -41162829.19547 -32057261.98944  22253504.9384                   22253500.7504
  18690686.82046  14574105.53542  24636835.8834                   24636833.4454
 11  8 18  3  7 30.0000000  0  9G12G30G26G05G15G25G29G02G21
 -23298868.03547 -18138356.33245  22684058.5474                   22684056.3324
 -10674476.92647  -8300999.85645  22256955.3674                   22256954.3594
   1626282.50847   1280750.95844  22175338.7734                   22175337.1454
 -26874292.54347 -20924406.83546  21059099.8284                   21059096.9654
  10442383.96947   8150279.55844                  22957966.4224   22957964.3404
 -12909730.32048 -10043371.60146  21908568.4304                   21908568.7544
  -6974199.69548  -5421445.81546  21228873.2114                   21228870.5084
 -41170021.23047 -32062866.19445  22252135.9224                   22252132.0474
  18580283.00446  14488076.68842  24615826.3524                   24615823.8364
 11  8 18  3  8  0.0000000  0  9G12G30G26G05G15G25G29G02G21
 -23263100.73047 -18110485.70845  22690864.0864                   22690862.3324
 -10665022.51247  -8293632.79445  22258754.4924                   22258753.0354
   1496776.78947   1179837.44944  22150695.1414                   22150693.3634
 -26864498.76647 -20916775.31646  21060963.2894                   21060961.0704
  10294425.94947   8034987.60944                  22929810.5784   22929809.2894
 -12916562.90648 -10048695.70245  21907268.1564                   21907268.7934
  -7094337.91447  -5515060.00246  21206011.2974                   21206008.7194
 -41177085.38347 -32068370.76244  22250792.3284                   22250787.7814
  18469898.81346  14402063.15642  24594820.8134                   24594818.1214
 11  8 18  3  8 30.0000000  0  9G12G30G26G05G15G25G29G02G21
 -23227125.34047 -18082452.95345  22697710.3204                   22697708.6564
 -10655171.49647  -8285956.68245  22260629.1724                   22260627.5314
   1367683.16047   1079245.05944  22126129.0234                   22126127.4454
 -26854340.65248 -20908859.89146  21062896.2194                   21062894.1524
  10146618.76247   7919813.25544                  22901684.2584   22901682.7114
 -12922917.85547 -10053647.61845  21906059.0704                   21906059.5044
  -7214173.68748  -5608438.52346  21183206.7664                   21183205.4654
 -41184019.96947 -32073774.34045  22249472.6564                   22249468.1414
  18359535.53946  14316065.89542  24573819.8834                   24573816.6564
 11  8 18  3  9  0.0000000  0  9G12G30G26G05G15G25G29G02G21
 -23190944.82047 -18054260.37445  22704595.2194                   22704593.3324
 -10644927.02047  -8277973.98945  22262578.8204                   22262577.0944
   1239004.98847    978976.36544  22101642.0864                   22101640.6724
 -26843820.85947 -20900662.65546  21064898.2664                   21064895.6844
   9998965.28547   7804758.65244                  22873586.8914   22873585.1334
 -12928797.78548 -10058229.39745  21904939.7034                   21904940.4304
  -7333705.04747  -5701579.82446  21160461.1644                   21160458.9734
 -41190824.69147 -32079076.73844  22248177.5944                   22248172.8324
  18249192.34446  14230084.29343  24552821.8834                   24552819.5634
 11  8 18  3  9 30.0000000  0 10G12G30G26G18G05G15G25G29G02G21
 -23154563.30147 -18025911.15345  22711519.0004                   22711516.4494
 -10634292.83247  -8269687.62845  22264602.2344                   22264601.1094
   1110745.18847    879033.70744  22077235.2974                   22077233.6604
  23422153.10956  18263994.80152  24549707.6024                   24549706.2384
 -26832942.58248 -20892186.06546  21066967.9924                   21066965.6994
   9851467.83647   7689825.63844                  22845518.5004   22845516.8404
 -12934205.77347 -10062443.42645  21903910.7114                   21903911.1954
  -7452930.15647  -5794482.49146  21137773.5864                   21137771.0904
 -41197500.03947 -32084278.34544  22246907.2034                   22246902.6024
  18138868.14846  14144117.56243  24531827.8674                   24531826.2624
 11  8 18  3 10  0.0000000  0 10G12G30G26G18G05G15G25G29G02G21
 -23117994.98847 -17997416.35744  22718477.3204                   22718475.3524
 -10623283.24247  -8261108.72945  22266697.4304                   22266695.8914
    982895.97347    779410.96544  22052906.8054                   22052904.1994
  23278881.53546  18152354.80942  24522443.9064                   24522441.2854
 -26821719.44547 -20883440.75646  21069103.8914                   21069101.4804
   9704118.44547   7575007.97244                  22817478.9844   22817476.8794
 -12939155.56247 -10066300.42445  21902968.9064                   21902969.4224
  -7571857.91047  -5887153.46846  21115141.9614                   21115139.7424
 -41204056.90247 -32089387.61244  22245660.0164                   22245655.1684
  18028551.12146  14058156.27943  24510835.0784                   24510832.7154
 11  8 18  3 10 30.0000000  0 10G12G30G26G18G05G15G25G29G02G21
 -23081248.34847 -17968782.62645  22725469.8834                   22725467.9104
 -10611906.23047  -8252243.52245  22268862.2664                   22268860.8484
    855456.07847    680107.18744  22028655.4924                   22028653.0664
  23135789.49646  18040854.69142  24495213.8674                   24495211.3794
 -26810159.02747 -20874432.63046  21071303.7894                   21071301.2194
   9556915.25447   7460304.26044                  22789467.3594   22789465.8134
 -12943654.61347 -10069806.20545  21902112.6884                   21902113.3284
  -7690490.99647  -5979594.82846  21092566.8674                   21092564.6954
 -41210500.12547 -32094408.32345  22244433.5314                   22244429.1564
  17918235.94946  13972196.57743  24489842.8284                   24489840.3444
 11  8 18  3 11  0.0000000  0 10G12G30G26G18G05G15G25G29G02G21
 -21468901.32847 -16712408.35044  23032289.1644                   23032286.9384
  -9024739.17247  -7015490.00744  22570890.1414                   22570888.6254
   2303859.15247   1808732.95344  22304277.5634                   22304275.4694
  24568309.05145  19157103.92642  24767812.9064                   24767810.7814
 -25222838.15648 -19637559.23346  21373360.9454                   21373358.4844
  10985291.85947   8573325.04145                  23061278.4844   23061276.6214
 -11372279.18048  -8845357.82345  22201135.5554                   22201136.3054
  -6233397.05147  -4844196.92746  21369842.7894                   21369840.9804
 -39641402.98847 -30871735.22545  22543023.1724                   22543018.5904
  19383351.52746  15113845.15043  24768645.2114                   24768642.3954
 11  8 18  3 11 30.0000000  0 10G12G30G26G18G05G15G25G29G02G21
 -21431795.65247 -16683494.83345  23039350.2734                   23039348.2894
  -9012625.63747  -7006050.86745  22573195.8134                   22573193.9964
   2177259.16847   1710083.67744  22280186.0704                   22280184.4064
  24425590.64845  19045894.93442  24740654.6954                   24740652.8874
 -25210599.64548 -19628022.73246  21375690.0234                   21375687.0274
  10838400.43847   8458864.24145                  23033325.6644   23033324.3204
 -11375873.34848  -8848158.50645  22200451.6564                   22200452.3914
  -6351422.74247  -4936164.97846  21347382.8134                   21347381.5164
 -39647606.70747 -30876569.30344  22541842.1254                   22541838.2424
  19273048.98446  15027895.21043  24747655.3524                   24747652.9344
 11  8 18  3 12  0.0000000  0 10G12G30G26G18G05G15G25G29G02G21
 -21394515.99647 -16654445.76544  23046444.2894                   23046442.3794
  -9000149.41447  -6996329.16345  22575569.6804                   22575568.5124
   2051083.42647   1611764.94444  22256175.6884                   22256173.5634
  24283060.16045  18934832.50842  24713532.0554                   24713530.6024
 -25198027.05548 -19618225.90646  21378082.2894                   21378079.7774
  10691668.90247   8344528.03345                  23005403.5084   23005402.4614
 -11379019.78148  -8850610.29445  22199853.0234                   22199853.8954
  -6469142.02347  -5027894.27646  21324981.8834                   21324980.1174
 -39653690.94947 -30881310.28444  22540683.9224                   22540680.0634
  19162751.07846  14941948.85043  24726666.3984                   24726663.1684
 11  8 18  3 12 30.0000000  0 10G12G30G26G18G05G15G25G29G02G21
 -21357064.18447 -16625262.55044  23053571.6334                   23053569.7624
  -8987312.39847  -6986326.30945  22578012.3284                   22578010.9534
   1925336.45347   1513780.33445  22232246.3364                   22232244.5704
  24140719.88745  18823918.21542  24686445.9614                   24686444.2114
 -25185121.33648 -19608169.49046  21380538.2194                   21380535.7384
  10545101.40647   8230319.63445                  22977512.9924   22977511.0864
 -11381719.88348  -8852714.28345  22199339.1254                   22199340.0004
  -6586551.62547  -5119382.25746  21302639.8914                   21302637.7624
 -39659654.55547 -30885957.26044  22539549.5944                   22539545.1294
  19052458.59446  14856006.76043  24705678.9304                   24705675.1094
 11  8 18  3 13  0.0000000  0 10G12G30G26G18G05G15G25G29G02G21
 -21319442.77347 -16595947.19245  23060730.7664                   23060728.9804
  -8974116.93047  -6976044.09244  22580523.3594                   22580521.8134
   1800022.49647   1416133.12945  22208400.0004                   22208397.9414
  23998571.78545  18713153.61342  24659395.1724                   24659394.0124
 -25171884.06648 -19597854.73546  21383057.1024                   21383054.8444
  10398701.44147   8116241.78844                  22949653.5944   22949652.3834
 -11383975.48048  -8854471.92145  22198910.3134                   22198910.5704
  -6703648.13347  -5210626.27446  21280356.6564                   21280355.0864
 -39665496.13347 -30890509.15644  22538438.3284                   22538433.6604
  18942171.87146  14770069.14543  24684690.9064                   24684687.9264
 11  8 18  3 13 30.0000000  0 10G12G30G26G18G05G15G25G29G02G21
 -21281653.19547 -16566500.78945  23067921.5704                   23067920.1454
  -8960564.66447  -6965483.90545  22583102.2274                   22583100.8834
   1675146.44147   1318827.15145  22184637.0314                   22184635.4574
  23856618.75446  18602541.03942  24632382.4844                   24632381.2774
 -25158316.42248 -19587282.54446  21385639.1644                   21385636.0824
  10252474.26647   8002298.57745                  22921827.6564   22921826.1334
 -11385787.69147  -8855884.05345  22198565.0634                   22198565.5784
  -6820427.94547  -5301623.52346  21258134.4384                   21258132.4844
 -39671213.98847 -30894964.67144  22537350.1414                   22537345.0314
  18831891.35946  14684136.30043  24663705.4844                   24663703.4654
 11  8 18  3 14  0.0000000  0 10G12G30G26G18G05G15G25G29G02G21
 -21243694.13747 -16536922.30345  23075144.8444                   23075143.1884
  -8946654.14147  -6954644.54644  22585749.7504                   22585748.1564
   1550716.34447   1221868.65745  22160958.8284                   22160957.2774
  23714866.36346  18492084.79743  24605407.7584                   24605406.6564
 -25144416.46148 -19576451.40646  21388284.0634                   21388281.3324
  10106427.04747   7888495.57544                  22894035.4304   22894034.1174
 -11387154.57848  -8856949.16045  22198304.7344                   22198305.8244
  -6936884.18447  -5392368.63146  21235973.7274                   21235971.7424
 -39676803.30147 -30899320.00744  22536286.5234                   22536281.3094
  18721621.43046  14598211.77043  24642721.9774                   24642719.3594
 11  8 18  3 14 30.0000000  0 10G12G30G26G18G05G15G25G29G02G21
 -21205574.70347 -16507218.88244  23082399.1884                   23082397.4184
  -8932394.39147  -6943533.05545  22588463.3834                   22588461.7194
   1426730.00047   1125255.93845  22137365.0554                   22137363.2894
  23573310.23846  18381781.57043  24578470.3754                   24578469.0164
 -25130192.57448 -19565367.84946  21390990.9064                   21390987.8404
   9960557.01647   7774830.67044                  22866277.7504   22866275.9614
 -11388084.57847  -8857673.85345  22198127.5864                   22198128.9574
  -7053020.50047  -5482864.46046  21213873.3754                   21213871.4104
 -39682269.74247 -30903579.60944  22535246.1254                   22535241.7344
  18611355.91846  14512290.64443  24621738.8364                   24621736.1134
 11  8 18  3 15  0.0000000  0 10G12G30G26G18G05G15G25G29G02G21
 -21167294.84447 -16477390.42244  23089683.3054                   23089681.1454
  -8917785.56247  -6932149.58345  22591243.2194                   22591241.6994
   1303193.52347   1028993.77444  22113856.8754                   22113855.2344
  23431954.45346  18271634.41843  24551571.3054                   24551569.5904
 -25115643.98048 -19554031.28046  21393759.3364                   21393756.7344
   9814870.46547   7661308.74144                  22838553.9304   22838551.9804
 -11388577.30547  -8858057.81545  22198034.1564                   22198035.2274
  -7168831.29747  -5573106.62446  21191835.5004                   21191833.4574
 -39687609.86347 -30907740.76444  22534230.0634                   22534225.8244
  18501097.13746  14426374.76443  24600757.2734                   24600755.9024
 11  8 18  3 15 30.0000000  0 10G12G30G26G18G05G15G25G29G02G21
 -21128857.97747 -16447439.63744  23096997.5784                   23096995.0824
  -8902831.17247  -6920496.82544  22594088.3594                   22594087.1134
   1180110.07047    933084.63145  22090434.9454                   22090432.6484
  23290800.04746  18161644.26343  24524710.0944                   24524708.5204
 -25100773.92247 -19542444.21546  21396588.9924                   21396586.2194
   9669370.03147   7547931.83244                  22810866.3754   22810864.5554
 -11388635.87947  -8858103.47545  22198023.4454                   22198023.9694
  -7284314.84447  -5663093.79346  21169859.8754                   21169857.5514
 -39692823.52047 -30911803.36144  22533237.6484                   22533234.1024
  18390844.13346  14340463.44243  24579776.9924                   24579774.0554
 11  8 18  3 16  0.0000000  0 10G12G30G26G18G05G15G25G29G02G21
 -21090266.97347 -16417368.73244  23104340.8054                   23104339.2194
  -8887534.32847  -6908577.25145  22596999.7504                   22596998.7234
   1057483.28147    837531.32945  22067099.5234                   22067097.8954
  23149848.07046  18051811.75643  24497888.6254                   24497885.9694
 -25085584.59848 -19530608.38146  21399479.0704                   21399476.6994
   9524058.80547   7434702.33545                  22783214.2734   22783213.3834
 -11388262.83647  -8857812.81845  22198094.2344                   22198094.5044
  -7399468.57047  -5752823.95446  21147946.8674                   21147944.6804
 -39697910.25047 -30915767.07044  22532269.6094                   22532266.1724
  18280596.91446  14254556.53443  24558797.3284                   24558795.2034
 11  8 18  3 16 30.0000000  0 10G12G30G26G18G05G15G25G29G02G21
 -21051525.61747 -16387180.68644  23111713.5164                   23111711.2774
  -8871898.56247  -6896393.54845  22599974.7814                   22599973.3014
    935315.66047    742335.79745  22043851.8834                   22043849.7774
  23009099.47746  17942137.69843  24471103.8284                   24471102.1414
 -25070078.93448 -19518526.04546  21402430.0004                   21402427.5204
   9378939.37547   7321622.33245                  22755599.0944   22755597.4384
 -11387461.30547  -8857188.25545  22198246.7424                   22198247.3984
  -7514290.73047  -5842295.75246  21126096.4924                   21126094.8674
 -39702870.30947 -30919632.08145  22531326.3834                   22531322.2664
  18170354.17646  14168653.13343  24537819.1884                   24537816.3164
 11  8 18  3 17  0.0000000  0 10G12G30G26G18G05G15G25G29G02G21
 -21012633.93047 -16356875.48044  23119114.3134                   23119112.0514
  -8855924.00047  -6883945.85144  22603014.3594                   22603013.3444
    813614.05947    647503.40445  22020692.7584                   22020690.9694
  22868558.41046  17832625.40843  24444359.8134                   24444358.1884
 -25054256.56248 -19506196.93246  21405440.8834                   21405438.2894
   9234018.03146   7208696.65245                  22728021.4924   22728019.7854
 -11386230.92647  -8856229.54345  22198480.8054                   22198481.8244
  -7628775.85547  -5931504.92846  21104310.9384                   21104308.5234
 -39707700.39547 -30923395.80244  22530406.9144                   22530402.9454
  18060118.65646  14082755.41743  24516842.0784                   24516839.5274
 11  8 18  3 17 30.0000000  0 10G12G30G26G18G05G15G25G29G02G21
 -20973593.69947 -16326454.58444  23126543.4774                   23126541.3324
  -8839612.67647  -6871235.73544  22606118.5394                   22606117.6604
    692382.61747    553037.39145  21997623.2974                   21997621.3914
  22728227.26646  17723276.71943  24417655.1414                   24417653.4304
 -25038118.97348 -19493622.17746  21408511.7344                   21408509.1644
   9089298.84847   7095928.50045                  22700482.0554   22700480.4344
 -11384573.24247  -8854937.84945  22198796.4304                   22198797.1604
  -7742920.29747  -6020448.63246  21082589.5784                   21082587.4844
 -39712399.32447 -30927057.33445  22529512.9454                   22529508.4184
  17949890.74246  13996863.58843  24495865.7344                   24495863.8634
 11  8 18  3 18  0.0000000  0 10G12G30G26G18G05G15G25G29G02G21
 -20934411.44947 -16295922.93644  23133999.5084                   23133997.8674
  -8822970.97347  -6858268.17845  22609285.8834                   22609284.4534
    571621.60547    458937.92745  21974643.1954                   21974641.4384
  22588103.73446  17614089.73943  24390990.7424                   24390989.0164
 -25021671.52348 -19480805.98546  21411641.4534                   21411638.9024
   8944781.95747   6983317.98445                  22672981.6024   22672979.9694
 -11382494.19147  -8853317.82045  22199192.1414                   22199192.4964
  -7856725.09847  -6109127.66546  21060933.3984                   21060931.5314
 -39716969.30147 -30930618.39144  22528643.2584                   22528638.2584
  17839667.05146  13910975.03743  24474890.9614                   24474888.9224
